[[{"header":{"parameterUnit":"m.s-1","parameterCategory":1,"la1":30.6,"la2":29.2853,"lo1":-89.7004,"lo2":-87.6739,"dy":0.0162,"dx":0.0183,"nx":112,"ny":82,"refTime":"2024-03-22T12:00:00:Z","depth":0,"parameterNumber":2,"parameterNumberName":"U-component_of_WINDS"},"data":[0.0,0.0,0.0,0.0,0.0,0.0,0.0,0.0,0.0,0.0,0.0,0.0,0.0,0.0,0.0,0.0,0.0,0.0,0.0,0.0,0.0,0.0,0.0,0.0,0.0,0.0,0.0,0.0,0.0,0.0,0.0,0.0,0.0,0.0,0.0,0.0,0.0,0.0,0.0,0.0,0.0,0.0,0.0,0.0,0.0,0.0,0.0,0.0,0.0,0.0,0.0,0.0,0.0,0.0,0.0,0.0,0.0,0.0,0.0,0.0,0.0,0.0,0.0,0.0,0.0,0.0,0.0,0.0,0.0,0.0,0.0,0.0,0.0,0.0,0.0,0.0,0.0,0.0,0.0,0.0,0.0,0.0,0.0,0.0,0.0,0.0,0.0,0.0,0.0,0.0,0.0,4.0414,4.5532,4.8377,4.7479,4.6569,4.3611,3.7961,0.0,0.0,0.0,0.0,0.0,0.0,0.0,0.0,0.0,0.0,0.0,0.0,0.0,0.0,0.0,0.0,0.0,0.0,0.0,0.0,0.0,0.0,0.0,0.0,0.0,0.0,0.0,0.0,0.0,0.0,0.0,0.0,0.0,0.0,0.0,0.0,0.0,0.0,0.0,0.0,0.0,0.0,0.0,0.0,0.0,0.0,0.0,0.0,0.0,0.0,0.0,0.0,0.0,0.0,0.0,0.0,0.0,0.0,0.0,0.0,0.0,0.0,0.0,0.0,0.0,0.0,0.0,0.0,0.0,0.0,0.0,0.0,0.0,0.0,0.0,0.0,0.0,0.0,0.0,0.0,0.0,0.0,0.0,0.0,0.0,0.0,0.0,0.0,0.0,0.0,0.0,0.0,0.0,0.0,0.0,0.0,0.0,0.0,0.0,0.0,0.0,0.0,0.0,0.0,3.6024,4.3542,4.7058,4.8504,4.7629,4.6145,4.3346,3.8877,0.0,0.0,0.0,0.0,0.0,0.0,0.0,0.0,0.0,0.0,0.0,0.0,0.0,0.0,0.0,0.0,0.0,0.0,0.0,0.0,0.0,0.0,0.0,0.0,0.0,0.0,0.0,0.0,0.0,0.0,0.0,0.0,0.0,0.0,0.0,0.0,0.0,0.0,0.0,0.0,0.0,0.0,0.0,0.0,0.0,0.0,0.0,0.0,0.0,0.0,0.0,0.0,0.0,0.0,0.0,0.0,0.0,0.0,0.0,0.0,0.0,0.0,0.0,0.0,0.0,0.0,0.0,0.0,0.0,0.0,0.0,0.0,0.0,0.0,0.0,0.0,0.0,0.0,0.0,0.0,0.0,0.0,0.0,0.0,0.0,0.0,0.0,0.0,0.0,0.0,0.0,0.0,0.0,0.0,0.0,0.0,0.0,0.0,0.0,0.0,0.0,0.0,0.0,3.581,3.9395,4.6397,4.8604,4.9213,4.8376,4.6321,4.3314,3.9069,3.5191,0.0,0.0,0.0,0.0,0.0,0.0,0.0,0.0,0.0,0.0,0.0,0.0,0.0,0.0,0.0,0.0,0.0,0.0,0.0,0.0,0.0,0.0,0.0,0.0,0.0,0.0,0.0,0.0,0.0,0.0,0.0,0.0,0.0,0.0,0.0,0.0,0.0,0.0,0.0,0.0,0.0,0.0,0.0,0.0,0.0,0.0,0.0,0.0,0.0,0.0,0.0,0.0,0.0,0.0,0.0,0.0,0.0,0.0,0.0,0.0,0.0,0.0,0.0,0.0,0.0,0.0,0.0,0.0,0.0,0.0,0.0,0.0,0.0,0.0,0.0,0.0,0.0,0.0,0.0,0.0,0.0,0.0,0.0,0.0,0.0,0.0,0.0,0.0,0.0,0.0,0.0,0.0,0.0,0.0,0.0,0.0,0.0,0.0,0.0,0.0,0.0,0.0,4.0806,4.3552,4.8424,4.9681,4.9834,4.9034,4.6252,4.2938,3.907,3.4539,0.0,0.0,0.0,0.0,0.0,0.0,0.0,0.0,0.0,0.0,0.0,0.0,0.0,0.0,0.0,0.0,0.0,0.0,0.0,0.0,0.0,0.0,0.0,0.0,0.0,0.0,0.0,0.0,0.0,0.0,0.0,0.0,0.0,0.0,0.0,0.0,0.0,0.0,0.0,0.0,0.0,0.0,0.0,0.0,0.0,0.0,0.0,0.0,0.0,0.0,0.0,0.0,0.0,0.0,0.0,0.0,0.0,0.0,0.0,0.0,0.0,0.0,0.0,0.0,0.0,0.0,0.0,0.0,0.0,0.0,0.0,0.0,0.0,0.0,0.0,0.0,0.0,0.0,0.0,0.0,0.0,0.0,0.0,0.0,0.0,0.0,0.0,0.0,0.0,0.0,0.0,0.0,0.0,0.0,0.0,0.0,0.0,0.0,0.0,0.0,0.0,0.0,4.2679,4.6844,4.8869,4.9824,4.9954,4.9175,4.5316,4.1799,3.9052,3.3446,0.0,0.0,0.0,0.0,0.0,0.0,0.0,0.0,0.0,0.0,0.0,0.0,0.0,0.0,0.0,0.0,0.0,0.0,0.0,0.0,0.0,0.0,0.0,0.0,0.0,0.0,0.0,0.0,0.0,0.0,0.0,0.0,0.0,0.0,0.0,0.0,0.0,0.0,0.0,0.0,0.0,0.0,0.0,0.0,0.0,0.0,0.0,0.0,0.0,0.0,0.0,0.0,0.0,0.0,0.0,0.0,0.0,0.0,0.0,0.0,0.0,0.0,0.0,0.0,0.0,0.0,0.0,0.0,0.0,0.0,0.0,0.0,0.0,0.0,0.0,0.0,0.0,0.0,0.0,0.0,0.0,0.0,0.0,0.0,0.0,0.0,0.0,0.0,0.0,0.0,0.0,0.0,0.0,0.0,0.0,0.0,0.0,0.0,0.0,0.0,0.0,0.0,4.1495,4.543,0.0,4.9824,4.9748,4.8411,4.5851,4.2374,3.7677,0.0,0.0,0.0,0.0,0.0,0.0,0.0,0.0,0.0,0.0,0.0,0.0,0.0,0.0,0.0,0.0,0.0,0.0,0.0,0.0,0.0,0.0,0.0,0.0,0.0,0.0,0.0,0.0,0.0,0.0,0.0,0.0,0.0,0.0,0.0,0.0,0.0,0.0,0.0,0.0,0.0,0.0,0.0,0.0,0.0,0.0,0.0,0.0,0.0,0.0,0.0,0.0,0.0,0.0,0.0,0.0,0.0,0.0,0.0,0.0,0.0,0.0,0.0,0.0,0.0,0.0,0.0,0.0,0.0,0.0,0.0,0.0,0.0,0.0,0.0,0.0,0.0,0.0,0.0,0.0,0.0,0.0,0.0,0.0,0.0,0.0,0.0,0.0,0.0,0.0,0.0,0.0,0.0,0.0,0.0,0.0,0.0,0.0,0.0,0.0,0.0,0.0,3.7764,4.1992,4.5719,0.0,4.9771,4.9236,4.7532,4.5125,4.1533,3.6413,0.0,0.0,0.0,0.0,0.0,0.0,0.0,0.0,0.0,0.0,0.0,0.0,0.0,0.0,0.0,0.0,0.0,0.0,0.0,0.0,0.0,0.0,0.0,0.0,0.0,0.0,0.0,0.0,0.0,0.0,0.0,0.0,0.0,0.0,0.0,0.0,0.0,0.0,0.0,0.0,0.0,0.0,0.0,0.0,0.0,0.0,0.0,0.0,0.0,0.0,0.0,0.0,0.0,0.0,0.0,0.0,0.0,0.0,0.0,0.0,0.0,0.0,0.0,0.0,0.0,0.0,0.0,0.0,0.0,0.0,0.0,0.0,0.0,0.0,0.0,0.0,0.0,0.0,0.0,0.0,0.0,0.0,0.0,0.0,0.0,0.0,0.0,0.0,0.0,0.0,0.0,0.0,0.0,0.0,0.0,0.0,0.0,0.0,0.0,0.0,0.0,0.0,3.9708,4.4787,4.8537,5.0183,4.9609,4.84,4.6653,4.2717,3.8858,0.0,0.0,0.0,0.0,0.0,0.0,0.0,0.0,0.0,0.0,0.0,0.0,0.0,0.0,0.0,0.0,0.0,0.0,0.0,0.0,0.0,0.0,0.0,0.0,0.0,0.0,0.0,0.0,0.0,0.0,0.0,0.0,0.0,0.0,0.0,0.0,0.0,0.0,0.0,0.0,0.0,0.0,0.0,0.0,0.0,0.0,0.0,0.0,0.0,0.0,0.0,0.0,0.0,0.0,0.0,0.0,0.0,0.0,0.0,0.0,0.0,0.0,0.0,0.0,0.0,0.0,0.0,0.0,0.0,0.0,0.0,0.0,0.0,0.0,0.0,0.0,0.0,0.0,0.0,0.0,0.0,0.0,0.0,0.0,0.0,0.0,0.0,0.0,0.0,0.0,0.0,0.0,0.0,0.0,0.0,0.0,0.0,0.0,0.0,0.0,0.0,0.0,0.0,3.8153,4.4078,4.791,4.7795,4.8639,4.8235,4.5913,4.3522,3.9924,3.4655,0.0,0.0,0.0,0.0,0.0,0.0,0.0,0.0,0.0,0.0,0.0,0.0,0.0,0.0,0.0,0.0,0.0,0.0,0.0,0.0,0.0,0.0,0.0,0.0,0.0,0.0,0.0,0.0,0.0,0.0,0.0,0.0,0.0,0.0,0.0,0.0,0.0,0.0,0.0,0.0,0.0,0.0,0.0,0.0,0.0,0.0,0.0,0.0,0.0,0.0,0.0,0.0,0.0,0.0,0.0,0.0,0.0,0.0,0.0,0.0,0.0,0.0,0.0,0.0,0.0,0.0,0.0,0.0,0.0,0.0,0.0,0.0,0.0,0.0,0.0,0.0,0.0,0.0,0.0,0.0,0.0,0.0,0.0,0.0,0.0,0.0,0.0,0.0,0.0,0.0,0.0,0.0,0.0,0.0,0.0,0.0,0.0,0.0,0.0,0.0,0.0,0.0,3.8431,4.4249,4.8086,4.822,4.8565,4.7969,4.6049,4.3733,4.0133,3.484,0.0,0.0,0.0,0.0,0.0,0.0,0.0,0.0,0.0,0.0,0.0,0.0,0.0,0.0,0.0,0.0,0.0,0.0,0.0,0.0,0.0,0.0,0.0,0.0,0.0,0.0,0.0,0.0,0.0,0.0,0.0,0.0,0.0,0.0,0.0,0.0,0.0,0.0,0.0,0.0,0.0,0.0,0.0,0.0,0.0,0.0,0.0,0.0,0.0,0.0,0.0,0.0,0.0,0.0,0.0,0.0,0.0,0.0,0.0,0.0,0.0,0.0,0.0,0.0,0.0,0.0,0.0,0.0,0.0,0.0,0.0,0.0,0.0,0.0,0.0,0.0,0.0,0.0,0.0,0.0,0.0,0.0,0.0,0.0,0.0,0.0,0.0,0.0,0.0,0.0,0.0,0.0,0.0,0.0,0.0,0.0,0.0,0.0,0.0,0.0,0.0,0.0,3.9623,4.4858,4.8625,5.0084,4.9047,4.7741,4.6605,4.358,3.9942,3.5675,0.0,0.0,0.0,0.0,0.0,0.0,0.0,0.0,0.0,0.0,0.0,0.0,0.0,0.0,0.0,0.0,0.0,0.0,0.0,0.0,0.0,0.0,0.0,0.0,0.0,0.0,0.0,0.0,0.0,0.0,0.0,0.0,0.0,0.0,0.0,0.0,0.0,0.0,0.0,0.0,0.0,0.0,0.0,0.0,0.0,0.0,0.0,0.0,0.0,0.0,0.0,0.0,0.0,0.0,0.0,0.0,0.0,0.0,0.0,0.0,2.7094,0.0,0.0,0.0,0.0,0.0,0.0,0.0,0.0,0.0,0.0,0.0,0.0,0.0,0.0,0.0,0.0,0.0,0.0,0.0,0.0,0.0,0.0,0.0,0.0,0.0,0.0,0.0,0.0,0.0,0.0,0.0,0.0,0.0,0.0,0.0,0.0,0.0,0.0,0.0,0.0,0.0,3.805,4.4124,4.7991,4.7722,4.8529,4.8203,4.5918,4.3901,4.0943,3.6581,3.321,0.0,0.0,0.0,0.0,0.0,0.0,0.0,0.0,0.0,0.0,0.0,0.0,0.0,0.0,0.0,0.0,0.0,0.0,0.0,0.0,0.0,0.0,0.0,0.0,0.0,0.0,0.0,0.0,0.0,0.0,0.0,0.0,0.0,0.0,0.0,0.0,0.0,0.0,0.0,0.0,0.0,0.0,0.0,0.0,0.0,0.0,0.0,0.0,0.0,0.0,0.0,0.0,0.0,0.0,0.0,0.0,0.0,0.0,0.0,0.0,2.9193,0.0,0.0,0.0,0.0,0.0,0.0,0.0,0.0,0.0,0.0,0.0,0.0,0.0,0.0,0.0,0.0,0.0,0.0,0.0,0.0,0.0,0.0,0.0,0.0,0.0,0.0,0.0,0.0,0.0,0.0,0.0,0.0,0.0,0.0,0.0,0.0,0.0,0.0,0.0,0.0,3.9307,4.4696,4.8297,4.8663,4.8779,4.8221,4.6858,4.4841,4.2189,3.87,3.5681,0.0,0.0,0.0,0.0,0.0,0.0,0.0,0.0,0.0,0.0,0.0,0.0,0.0,0.0,0.0,0.0,0.0,0.0,0.0,0.0,0.0,0.0,0.0,0.0,0.0,0.0,0.0,0.0,0.0,0.0,0.0,0.0,0.0,0.0,0.0,0.0,0.0,0.0,0.0,0.0,0.0,0.0,0.0,0.0,0.0,0.0,0.0,0.0,0.0,0.0,0.0,0.0,0.0,3.9704,4.0974,4.2167,4.2338,4.2288,4.19,3.7559,3.5146,3.41,3.1504,0.0,0.0,0.0,0.0,0.0,0.0,0.0,0.0,0.0,0.0,0.0,0.0,0.0,0.0,0.0,0.0,0.0,0.0,0.0,0.0,0.0,0.0,0.0,0.0,3.997,3.9248,3.47,0.0,0.0,0.0,0.0,0.0,0.0,0.0,0.0,0.0,0.0,0.0,4.1193,4.556,4.8813,5.0317,4.9355,4.8432,4.8126,4.605,4.3667,4.113,3.8524,3.5311,0.0,0.0,0.0,0.0,0.0,0.0,0.0,0.0,0.0,0.0,0.0,0.0,0.0,0.0,0.0,0.0,0.0,0.0,0.0,0.0,0.0,0.0,0.0,0.0,0.0,0.0,0.0,0.0,0.0,0.0,0.0,0.0,2.812,2.9952,0.0,0.0,0.0,0.0,0.0,0.0,0.0,0.0,0.0,0.0,0.0,0.0,0.0,3.7211,3.8844,4.115,4.2801,4.3821,4.689,4.8094,4.7617,4.8355,4.8277,4.7501,4.608,0.0,3.8549,3.5989,0.0,0.0,0.0,0.0,0.0,0.0,0.0,0.0,0.0,0.0,0.0,0.0,0.0,0.0,0.0,0.0,0.0,0.0,0.0,0.0,0.0,0.0,4.4423,4.4654,4.4778,4.4283,0.0,3.8232,3.4122,3.0601,2.9407,0.0,0.0,0.0,0.0,0.0,0.0,0.0,4.1426,4.5658,4.8651,4.956,5.0138,4.9812,4.8312,4.7178,4.5483,4.2903,4.0369,3.7714,3.4944,3.1746,0.0,0.0,0.0,0.0,0.0,0.0,0.0,0.0,0.0,0.0,0.0,0.0,0.0,0.0,0.0,0.0,0.0,0.0,0.0,0.0,0.0,0.0,0.0,0.0,0.0,0.0,0.0,0.0,0.0,2.8126,3.0574,3.1351,3.1086,3.0704,0.0,0.0,0.0,0.0,0.0,0.0,0.0,0.0,0.0,4.0903,4.1699,4.2965,4.4733,4.6289,4.7522,4.8437,5.0864,5.1874,5.1547,5.2356,5.2278,5.1396,5.0052,4.8177,4.577,4.1197,3.8549,3.724,0.0,0.0,0.0,0.0,3.6809,3.6864,3.7909,3.7715,0.0,3.5742,0.0,0.0,0.0,0.0,0.0,0.0,0.0,0.0,0.0,0.0,4.5989,4.6993,4.7194,4.6854,4.5634,4.3612,4.0535,0.0,3.448,3.3053,2.9525,0.0,0.0,0.0,0.0,3.987,4.3588,4.6986,4.9341,5.0135,5.0117,4.977,4.902,4.8172,4.6805,4.4691,4.3088,4.0853,3.7822,3.5367,3.264,0.0,0.0,0.0,0.0,0.0,0.0,0.0,0.0,0.0,0.0,0.0,0.0,0.0,0.0,0.0,0.0,0.0,0.0,0.0,0.0,0.0,0.0,0.0,0.0,0.0,0.0,0.0,0.0,3.0775,3.2827,3.3269,3.3697,3.3704,0.0,0.0,0.0,0.0,0.0,0.0,4.0039,4.1544,4.342,4.5825,4.6619,4.7874,4.9654,5.0275,5.112,5.2208,5.3674,5.449,5.4813,5.554,5.545,5.4621,5.3081,5.2343,5.1707,4.5836,4.2449,4.0858,4.0188,3.9392,3.8877,4.1036,4.1517,4.1415,4.3299,4.3415,4.2434,4.0965,4.0036,3.8876,3.5472,0.0,0.0,0.0,0.0,4.282,4.4945,4.6288,4.7424,4.874,4.9019,4.8794,4.8191,4.7851,4.6005,0.0,3.9251,3.7771,3.3604,0.0,0.0,0.0,0.0,4.2576,4.565,4.8137,4.9914,5.0731,5.0229,4.9765,4.9517,4.8977,4.7896,4.6166,4.5256,4.3496,4.0524,3.8569,3.6033,3.2849,0.0,0.0,0.0,0.0,0.0,0.0,0.0,0.0,0.0,0.0,0.0,0.0,0.0,0.0,0.0,0.0,0.0,0.0,0.0,0.0,0.0,0.0,0.0,0.0,0.0,0.0,0.0,0.0,0.0,3.6735,3.833,0.0,0.0,0.0,0.0,3.9416,4.0273,4.1877,4.4423,4.5436,4.6761,4.8553,4.9387,5.0607,5.23,5.2339,5.3213,5.4815,5.5746,5.6601,5.7431,5.8234,5.8156,5.734,5.6447,5.5553,5.4388,4.9182,4.6074,4.452,4.4422,4.3857,4.3197,4.4145,4.4962,4.5583,4.5699,4.5208,4.4717,4.6187,4.5026,4.286,4.1816,4.0991,0.0,0.0,4.4791,4.6993,4.7867,4.9366,5.0674,5.0751,5.0758,5.0781,5.0735,5.003,4.8089,0.0,4.2342,4.1222,3.9379,0.0,3.8528,4.0152,4.2009,4.4098,4.6689,4.8585,5.0016,5.0813,5.0851,5.0488,4.9682,4.9567,4.8833,4.7133,4.6175,4.4901,4.3153,4.0642,3.8054,3.5465,3.2104,0.0,0.0,0.0,0.0,0.0,0.0,0.0,0.0,0.0,0.0,0.0,0.0,0.0,0.0,0.0,0.0,0.0,0.0,0.0,0.0,0.0,0.0,0.0,0.0,0.0,0.0,0.0,0.0,4.026,4.1427,0.0,4.0921,4.1427,4.2369,4.3792,4.5188,4.6629,4.8086,4.9559,5.0875,5.206,5.3428,5.4655,5.5833,5.6358,5.6931,5.7592,5.8398,5.8682,5.8509,5.8764,5.8414,5.7592,5.6083,5.5294,5.4801,5.2418,5.0736,4.9571,4.8421,4.7788,4.7544,4.7881,4.8167,4.8412,4.8412,4.8205,4.7843,4.7312,4.6189,4.5028,4.5233,4.5117,4.5349,4.7526,4.8856,4.9915,5.1277,5.2089,5.2569,5.2569,5.2553,5.2553,5.2569,5.2321,5.1493,4.9466,4.7023,4.4766,4.3079,4.2963,4.3131,4.3247,4.5142,4.7115,4.8585,4.9784,5.0596,5.0867,5.0906,5.0774,5.0449,4.9946,4.9135,4.7944,4.7071,4.5602,4.3347,4.2369,4.0178,3.6505,3.4704,3.1718,0.0,0.0,0.0,0.0,0.0,0.0,0.0,0.0,0.0,0.0,0.0,0.0,0.0,0.0,0.0,0.0,0.0,0.0,0.0,0.0,0.0,0.0,0.0,0.0,0.0,0.0,4.2101,4.2991,4.4625,4.5499,4.4986,4.5679,4.6816,4.8241,4.9403,5.0408,5.1281,5.2706,5.3719,5.432,5.5969,5.6962,5.7245,5.8364,5.8792,5.8559,5.9677,5.9921,5.9397,5.9655,5.9343,5.8481,5.7286,5.6419,5.5808,5.5252,5.4502,5.3569,5.1812,5.0945,5.0712,5.1023,5.1114,5.1114,5.1114,5.1062,5.079,4.9058,4.8114,4.7674,4.7932,4.8255,4.8875,5.0835,5.1818,5.2492,5.3298,5.3762,5.3862,5.3575,5.3498,5.3575,5.3862,5.3723,5.3468,5.3204,5.0588,4.7951,4.6603,4.6538,4.6496,4.6007,4.7579,4.9049,4.9629,5.0403,5.0906,5.0906,5.0906,5.079,5.0519,4.9745,4.8763,4.755,4.6714,4.536,4.3322,4.2731,4.0965,3.7831,3.6068,3.339,2.9689,0.0,0.0,0.0,0.0,0.0,0.0,0.0,0.0,0.0,0.0,0.0,0.0,0.0,0.0,0.0,0.0,0.0,0.0,0.0,0.0,0.0,0.0,0.0,3.9871,4.208,4.4081,4.5009,4.8093,4.9465,4.7852,4.9917,5.1749,5.2606,5.2684,5.3073,5.3931,5.4788,5.5256,5.5295,5.6892,5.7351,5.6514,5.8208,5.8627,5.7759,5.9493,6.0311,6.0289,6.1095,6.0978,6.0211,6.0172,5.9188,5.7631,5.7631,5.7164,5.6308,5.4463,5.3222,5.2562,5.3378,5.3715,5.3676,5.3649,5.3596,5.3325,5.1696,5.1125,5.0942,5.0156,5.0453,5.1252,5.2133,5.3582,5.4706,5.3886,5.4258,5.4646,5.3785,5.3575,5.3823,5.4684,5.422,5.394,5.4788,5.2802,5.0782,5.0054,4.9185,4.8561,4.8604,4.9311,0.0,4.9784,5.048,5.0983,5.0983,5.0983,5.0596,4.9823,4.8933,4.7657,4.5916,4.5026,4.4214,4.3324,4.1738,4.0462,3.9572,3.6223,3.4036,3.3087,0.0,0.0,0.0,0.0,0.0,0.0,0.0,0.0,0.0,0.0,0.0,0.0,0.0,0.0,0.0,0.0,0.0,0.0,0.0,0.0,0.0,3.9979,4.2727,4.3297,4.6144,4.8691,5.0238,5.1784,5.2581,5.2177,5.2777,5.3564,5.4422,5.45,5.4858,5.5723,5.6028,5.6418,5.7056,5.8094,5.8827,5.9209,6.033,6.0741,6.0497,6.1013,6.1247,6.1198,6.0827,6.0516,6.0224,5.956,5.9004,5.8597,5.8576,5.841,5.7982,5.5563,5.4502,5.423,5.3856,5.3689,5.3715,5.3663,5.3663,5.3586,5.3133,5.2964,5.2912,5.2627,5.2743,5.3145,5.3945,5.4527,5.5007,5.5365,5.566,5.5723,5.5459,5.542,5.5529,5.5691,5.5606,5.5559,5.5797,5.476,5.3529,5.277,5.2394,5.1964,5.1368,5.1973,0.0,5.1602,5.226,5.2801,5.2801,5.2221,5.1486,5.0635,4.9243,4.7657,4.5916,4.5026,4.4214,4.3324,4.286,4.1919,4.0398,3.7626,3.5786,0.0,0.0,0.0,0.0,0.0,0.0,0.0,0.0,0.0,0.0,0.0,0.0,0.0,0.0,0.0,0.0,0.0,0.0,0.0,0.0,0.0,0.0,4.4043,4.6831,4.8331,4.9673,5.1133,5.2826,5.4168,5.4818,5.4484,5.5124,5.5762,5.6237,5.6276,5.6666,5.7538,5.7602,5.7836,5.8318,5.917,5.9623,5.9732,6.0963,6.1422,6.1062,6.1802,6.1958,6.1607,6.1442,6.1208,6.0828,6.0253,5.9864,5.9523,5.9503,5.927,0.0,0.0,0.0,0.0,0.0,5.4824,5.4824,5.4824,5.4813,5.4723,5.4349,5.4013,5.3676,5.3637,5.3676,5.387,5.4724,5.519,5.5591,5.6093,5.6209,5.6194,5.6149,5.6164,5.618,5.6126,5.6194,5.6209,5.6251,5.5824,0.0,5.4867,5.4128,5.3441,5.2962,5.3281,5.3406,5.2864,5.322,5.3514,5.353,5.305,5.2221,5.1022,4.9359,0.0,0.0,0.0,4.3672,4.2783,4.2744,0.0,0.0,0.0,3.8929,3.8775,0.0,0.0,0.0,3.4364,3.3966,0.0,0.0,0.0,0.0,0.0,0.0,0.0,0.0,0.0,0.0,0.0,0.0,0.0,0.0,0.0,0.0,4.814,5.117,5.3594,5.2679,5.2347,5.4051,5.5676,5.6324,5.556,5.6815,5.768,5.7772,5.7818,5.8169,5.9066,0.0,0.0,0.0,0.0,6.0145,5.9311,6.0824,6.1197,6.0477,6.2114,6.2426,6.1607,6.2503,6.2426,6.1607,6.1607,6.114,6.0447,6.0438,5.9932,5.9035,5.813,5.7681,5.7515,5.6814,5.6464,5.6386,5.6386,0.0,0.0,5.5408,5.4633,5.4,5.3999,5.3987,5.4155,5.4919,5.5709,5.633,5.6329,5.6368,5.6393,5.6466,5.6427,5.6364,5.6354,5.6276,5.6251,5.6408,5.6369,5.6369,5.6563,5.5087,5.3882,5.3831,5.3853,5.3863,5.3737,5.3755,5.3785,5.3871,0.0,0.0,5.1177,4.9513,4.7811,4.6071,4.4562,4.3363,4.2628,4.2667,4.2667,4.2589,4.2589,4.2885,4.3501,4.3385,4.3009,4.2241,3.75,3.6832,0.0,0.0,0.0,0.0,0.0,0.0,0.0,0.0,0.0,0.0,0.0,0.0,0.0,0.0,0.0,4.7579,5.0299,5.2753,5.4654,5.4663,5.5082,5.6748,5.729,5.7471,5.7315,5.6953,5.7049,5.7752,5.7791,5.8187,5.9056,5.9787,6.0138,6.0149,6.0945,6.1283,6.1081,6.1439,6.1539,6.1373,0.0,0.0,6.1634,6.2513,6.2435,6.1595,6.1616,6.15,6.1361,6.1344,6.0828,5.9971,5.9085,5.8276,5.7592,5.7437,5.697,5.6386,5.6386,5.6364,5.6263,5.6108,5.5928,5.5812,5.5786,5.5786,0.0,5.6019,5.6175,5.6447,5.7146,5.734,5.7482,5.8139,5.7804,5.7313,5.7261,5.6731,5.6486,5.7224,5.6758,5.6719,5.8078,5.69,5.5527,5.4776,5.5253,5.5419,5.4661,5.5188,5.5598,5.5526,5.431,5.3072,5.2028,5.0403,4.8701,4.696,4.6535,4.6303,4.6109,4.6806,4.6844,4.6109,4.6109,4.5838,4.5283,4.4664,4.4573,4.4993,4.2594,4.1431,0.0,0.0,0.0,0.0,0.0,0.0,0.0,0.0,0.0,0.0,0.0,3.8611,4.1214,0.0,4.8319,5.093,5.2801,5.4359,5.5684,5.658,5.7243,5.7711,5.7775,5.779,5.7811,5.7395,5.7523,5.8392,5.8861,5.9685,6.0978,6.1871,6.2145,6.172,6.21,6.2083,6.1648,6.1666,6.1612,6.1603,6.2929,6.3093,6.2282,6.3583,6.3739,6.289,6.2864,6.2864,6.2834,6.2854,6.2348,6.1568,6.113,5.9864,5.8296,5.8296,5.7751,5.705,5.705,5.6757,5.6364,5.6364,5.603,5.5734,5.6188,5.5993,5.585,5.6732,5.6952,5.7146,5.7962,5.8195,5.8311,5.8711,5.8492,5.8195,5.8168,5.7832,5.769,5.8117,5.7845,5.7806,5.8661,5.8117,5.7379,5.6925,5.6484,5.6185,5.6156,5.611,5.6117,5.6117,5.5327,5.4281,5.3019,5.0966,4.9185,4.7868,4.7816,4.7801,4.7801,4.8213,4.8198,4.7773,4.7734,4.7526,4.7047,4.666,4.6684,4.7024,4.6127,4.5015,0.0,0.0,0.0,0.0,0.0,0.0,0.0,0.0,3.3718,3.6982,4.0227,4.3201,4.5453,4.8546,5.1554,5.4009,5.4983,5.5801,5.6853,5.7983,5.8655,5.8336,5.8297,5.8311,5.8304,5.8148,5.8465,5.9534,6.0276,6.1408,6.3164,6.4062,6.4062,6.3047,6.316,6.2725,6.1699,6.1849,6.1921,6.1868,6.3623,6.4014,6.3201,6.4778,6.5004,6.4185,6.4159,6.4111,6.4111,6.4111,6.376,6.3136,6.2971,6.1607,5.9737,5.9386,5.8685,5.7944,5.7944,5.7488,5.6903,5.6892,5.6364,5.5874,5.6382,5.6083,5.5785,5.7198,5.7612,5.7806,5.8817,5.905,5.9088,5.9244,5.9166,5.905,5.905,5.8933,5.8855,5.9011,5.8933,5.8894,5.9244,5.9011,5.8739,5.8583,5.7352,5.6678,5.7169,5.6567,5.6149,5.618,5.5994,5.5258,5.3737,5.1566,5.0054,4.9511,4.916,4.9069,4.9209,4.8987,4.8894,4.8894,4.8894,4.8879,4.881,4.8655,4.8562,4.8569,4.8326,4.7499,3.1573,3.1417,3.1929,3.3388,3.3829,3.5126,0.0,0.0,4.0714,4.3371,4.6059,4.8241,4.9255,5.1632,5.4048,5.584,5.623,5.6892,5.849,5.8217,5.839,5.9911,6.0113,6.0119,6.0099,5.9407,5.9646,6.1291,6.1486,6.2306,6.4062,6.496,6.4687,6.3047,6.3701,6.3299,6.1738,6.2428,6.2765,6.2765,6.4521,6.4879,6.4073,6.5074,6.5028,6.4201,6.4185,6.4177,6.4177,6.4177,6.4138,6.3973,6.3214,6.2737,6.227,6.0711,5.9581,5.8841,5.8851,5.8802,5.8714,5.8659,5.8557,5.8324,5.7664,5.7392,5.7353,5.7548,5.7612,5.7962,5.9555,5.9943,6.0137,6.0914,6.0526,5.9943,5.9943,5.936,5.905,5.9788,5.9322,5.9283,6.0837,5.9827,5.8545,5.7845,5.7573,5.7172,5.6432,5.6238,5.617,5.618,5.552,5.4629,5.3674,5.2613,5.2288,5.2995,5.1586,5.1029,5.1773,5.1022,5.0635,5.0635,5.0635,5.0635,5.0619,4.9885,4.9537,4.9537,4.8694,4.8166,3.5079,3.5009,3.5185,0.0,3.7267,3.9072,4.1688,4.2825,4.3877,4.5928,4.8857,5.1273,5.2044,5.3961,5.5957,0.0,5.7126,5.6892,5.8061,5.7944,5.8,5.8786,5.9762,6.0399,6.0383,5.9607,5.9807,6.1564,6.2189,6.3204,6.496,6.5858,6.5507,6.3828,6.4096,6.3662,6.2452,6.2797,6.3227,6.3734,6.4983,6.5373,6.5067,6.6421,6.6798,6.6432,6.5917,6.5714,6.5714,6.5714,6.5402,6.4879,6.4012,6.3331,6.2737,6.149,6.0516,5.9776,5.9767,5.9397,5.8997,5.8904,5.8892,5.8815,5.8402,5.8325,5.8454,5.8908,5.905,5.9322,6.0526,6.0875,6.0953,6.1303,6.1109,6.0875,6.0875,6.0565,6.0409,6.0798,6.0565,6.0526,6.1264,6.0798,6.0021,5.9166,5.8234,5.7638,5.7712,5.682,5.6199,5.6209,5.5461,5.4815,5.4466,5.3612,5.3055,5.2925,5.2186,5.1925,5.2259,5.1401,5.1138,5.1641,5.1177,5.1138,5.1641,5.0828,5.0906,5.1873,5.0471,5.0052,3.7179,3.7669,0.0,3.8539,4.074,4.3013,4.3604,4.5241,4.6956,4.7915,5.0883,5.3416,5.3758,5.5481,5.7321,5.8763,5.7983,5.7477,5.8295,5.8226,5.8087,5.8162,5.9261,6.0132,6.0393,6.0041,6.0549,6.2306,6.3008,6.4101,6.5858,6.6288,6.5897,6.4687,6.4179,6.375,6.336,6.336,6.3789,6.4687,6.5507,6.5936,6.5975,6.7208,6.7741,6.7688,6.7056,6.6783,6.6791,6.6783,6.6268,6.5441,6.4809,6.4012,6.3136,6.2279,6.1422,6.0672,6.0624,6.0224,5.9708,5.9627,5.9616,5.9565,5.927,5.9232,5.9348,5.9957,6.0099,6.0293,6.1186,6.1419,6.1419,6.1419,6.1419,6.1419,6.1419,6.1419,6.1419,6.1419,6.1419,6.1419,6.1419,6.1419,6.1109,6.0215,5.8855,5.8143,5.8736,5.7688,5.6717,5.6238,5.5877,5.5579,5.5372,5.4518,5.3858,5.3456,5.2951,5.2768,5.2986,5.1881,5.1711,5.2578,5.1695,5.1679,5.2585,5.1912,5.226,5.3459,5.2189,5.194,3.7335,3.8945,4.1108,4.1948,4.4713,4.7245,4.7306,4.9294,5.0891,5.0073,5.2684,5.4866,5.4048,5.5957,5.7944,5.8841,5.8957,5.923,6.0088,5.9482,5.8999,5.9059,5.9111,5.948,0.0,6.1134,6.2345,6.4101,6.4258,6.4999,6.6756,6.6092,6.5624,6.5546,6.3906,6.3438,6.4258,6.4258,6.4687,6.5585,6.6366,6.6756,6.6756,6.6817,6.685,6.685,6.6791,6.6798,6.6811,6.6791,6.6283,6.5517,6.548,6.4918,6.406,6.3202,6.2327,6.1568,6.15,6.1471,6.152,6.1429,6.1406,6.1238,6.0397,6.0125,6.006,6.0099,6.0099,6.0293,6.1186,6.1419,6.1419,6.1419,6.1419,6.1419,6.1419,6.1419,6.1419,6.1419,6.1419,6.1419,6.1419,6.1419,6.1109,6.0215,5.9322,5.8778,5.8817,5.8739,5.8065,5.6393,5.6936,5.7077,5.6218,5.5365,5.5195,5.5924,5.4444,5.3916,5.4684,5.3135,5.2661,5.3543,5.2655,5.264,5.3561,5.3491,5.3459,5.3498,5.3459,5.342,4.0096,4.1599,4.307,4.4518,4.6629,4.8468,4.9021,5.0268,5.1203,5.093,5.2255,5.358,5.3853,5.5061,5.6697,5.8685,5.849,5.8451,5.9308,5.917,5.8609,5.7492,5.8409,0.0,0.0,0.0,0.0,6.3321,6.3984,6.457,6.5155,6.5989,6.568,6.3945,6.4414,6.4609,6.4297,6.4882,6.559,6.6379,6.6683,6.7107,6.7654,6.7063,6.7102,6.7649,6.7057,6.6784,6.679,6.6784,6.6622,6.6304,6.5744,6.5332,6.4957,6.4099,6.3224,6.2387,6.1772,6.1568,6.1539,6.1518,6.1484,6.1382,6.1149,6.1019,6.0955,6.0955,6.1007,6.1097,6.1344,6.1421,6.1421,6.1421,6.1394,6.1575,6.2157,6.1808,6.1575,6.2157,6.1808,6.1419,6.1419,6.1419,6.1109,6.0215,5.936,5.8622,5.8078,5.8467,5.8583,5.7987,5.7715,5.7444,5.7158,5.6329,5.5708,5.5384,5.4788,5.458,5.4876,5.3776,5.3567,5.4366,5.3553,5.3561,5.4365,5.3855,5.411,5.5122,5.4,5.3807,4.2922,4.4503,4.5967,4.7993,4.9559,5.0696,5.0891,5.1593,5.1943,5.1047,5.1515,5.2216,5.245,5.3229,5.4749,5.7633,5.7914,5.8156,5.9287,5.9506,5.8981,5.7584,5.8421,5.9212,0.0,0.0,0.0,6.2852,6.3516,6.3989,6.4271,6.5368,6.5333,6.3958,6.47,6.5169,6.5247,6.5473,6.598,6.6809,6.68,6.7264,6.8083,6.7537,6.7732,6.8513,6.7654,6.7264,6.7224,6.6912,6.6634,6.6349,6.6076,6.5776,6.5433,6.4848,6.409,6.3244,6.2678,6.2075,6.1588,6.1899,6.1751,6.1433,6.1484,6.1472,6.1408,6.1396,6.146,6.1472,6.146,6.1447,6.1408,6.1396,6.1421,6.155,6.2094,6.1808,6.1575,6.2133,6.1769,6.1419,6.1419,6.1147,6.0759,6.0176,5.9632,5.8972,5.8156,5.9011,5.9347,5.8453,5.8143,5.7779,5.7158,5.6601,5.5902,5.5009,5.5242,5.5228,5.4918,5.4361,5.4463,5.5341,5.4488,5.4459,5.5288,5.4762,5.5017,5.5973,5.489,5.4697,4.5687,4.7689,4.9605,5.206,5.3307,5.3658,5.2801,5.3229,5.3034,5.0463,5.0579,5.0813,0.0,0.0,5.2411,5.5762,5.719,5.8445,6.0083,6.0392,6.0138,0.0,0.0,0.0,0.0,0.0,0.0,6.2852,0.0,6.3408,6.4206,6.4349,6.4778,6.5498,6.4834,6.5224,6.6862,6.6106,6.6092,6.6795,6.6795,6.7224,6.8044,6.8083,6.8552,6.9294,6.8513,6.8161,6.8083,6.7224,6.6405,6.5819,6.6505,6.6291,6.5574,6.5535,6.4918,6.4101,6.4101,6.301,6.1724,6.2542,6.2211,6.1479,6.1495,6.1484,6.1472,6.1408,6.146,6.1484,6.1523,6.1484,6.1472,6.1408,6.1396,6.1396,6.1473,6.1447,6.1433,6.146,6.1447,6.1419,6.1419,6.072,6.0176,6.0176,6.0137,5.9788,5.8972,6.037,6.0434,5.7921,5.8333,5.8125,5.6427,5.6218,5.5831,5.5016,5.5758,5.5811,5.4996,5.4957,5.5411,5.6291,5.5409,5.5365,5.618,5.6133,5.6062,5.6012,5.6012,5.6012,4.8319,5.0283,5.1943,5.3229,5.3736,5.3658,5.2801,5.2255,5.1437,4.9488,4.8787,4.8008,0.0,0.0,0.0,5.3346,5.6441,0.0,6.0161,6.0939,0.0,5.9279,0.0,6.0159,6.0393,6.0393,0.0,0.0,6.3594,6.3794,6.3369,6.516,6.5746,6.4657,6.5672,6.6453,6.6917,6.7264,6.7224,6.6795,6.6795,6.6912,6.7146,6.781,6.82,6.8474,6.8864,6.9059,6.8981,6.8122,6.7654,6.742,6.6985,6.6655,6.6393,6.573,6.4926,6.4101,6.4101,6.2961,6.1539,6.1772,6.1662,6.1421,6.1484,6.1472,6.1408,6.1396,6.146,6.1472,6.146,6.146,6.1523,6.1472,6.1447,6.159,6.2251,6.1849,6.1577,6.2249,6.1847,6.1419,6.1419,6.1225,6.107,6.107,6.0526,6.0021,5.9788,6.072,6.0914,5.958,5.9036,5.8376,5.7313,5.6653,5.6187,5.5954,5.6162,5.6162,5.5968,5.5929,5.6045,5.6213,5.6032,5.5991,5.6133,5.6149,5.6117,5.6012,5.6012,5.6012,5.0957,5.265,5.3922,5.4827,5.4749,5.3931,5.1904,5.1086,4.9722,4.6137,4.5319,4.4695,4.2981,4.5553,4.8709,0.0,0.0,0.0,6.0059,6.1134,6.1348,0.0,6.0661,0.0,6.1486,6.1213,6.1681,0.0,6.3672,6.3672,6.3594,6.5325,6.5879,6.4909,6.6575,6.7654,6.8,6.8083,6.7888,6.7381,6.699,6.7185,6.7966,6.8435,6.9103,6.9816,0.0,6.9762,6.9333,6.8474,6.7888,6.7498,6.6985,6.6817,6.6681,6.58,6.4918,6.4081,6.3711,6.2689,6.1627,6.1977,6.179,6.1445,6.1484,6.1472,6.146,6.1396,6.146,6.1484,6.146,6.1472,6.1484,6.146,6.1447,6.1512,6.2018,6.1732,6.1564,6.2041,6.1744,6.1394,6.1419,6.1419,6.1419,6.1419,6.0992,6.0681,6.0681,6.0759,6.037,5.9127,5.8894,5.8311,5.7107,5.6563,5.6136,5.5747,5.6097,5.6136,5.5747,5.6084,5.6226,5.6199,5.6238,5.6209,5.6117,5.6133,5.6117,5.6012,5.6012,5.6205,5.3322,5.4587,5.5424,5.6143,5.5684,5.4126,5.0618,4.9566,4.7735,4.2085,4.1383,4.1305,3.9747,4.1812,4.5085,4.9177,0.0,5.6425,5.9918,6.1062,6.1588,6.1676,6.1715,6.2032,6.293,6.2306,6.2618,6.4336,6.375,6.3672,6.4414,6.5297,6.5816,6.5937,6.7643,6.8796,6.9377,6.8713,6.8323,6.8249,6.7386,6.7815,6.9416,6.9528,7.0401,7.1786,7.1026,7.027,6.9489,6.8513,6.7654,6.6951,6.6862,6.6733,6.6532,6.5636,6.4762,6.3904,6.302,6.2231,6.1724,6.2465,6.2172,6.1489,6.1484,6.1472,6.1472,6.1434,6.1447,6.1511,6.1511,6.1472,6.1472,6.1408,6.1396,6.1396,6.1396,6.1408,6.1419,6.1433,6.1421,6.1383,6.1394,6.1419,6.1381,6.1381,6.1303,6.1225,6.1225,6.0681,5.9671,5.8078,5.8467,5.8156,5.6602,5.6369,5.5981,5.5204,5.5864,5.5942,5.5204,5.5838,5.6199,5.6199,5.6209,5.6164,5.6117,5.6117,5.6046,5.6012,5.6012,5.6476,5.4486,5.5463,5.6038,5.5463,5.4732,5.3229,4.98,4.7345,0.0,4.0838,3.9552,3.885,3.7837,4.15,4.5631,4.8553,5.2473,5.6386,5.9818,6.051,6.0879,0.0,6.171,6.2032,6.293,6.2852,0.0,0.0,6.5234,6.5234,6.5355,6.6205,6.6992,6.7734,6.9374,6.9996,6.9401,6.9241,6.9202,6.9166,6.8307,6.8418,6.9416,7.0158,7.064,7.0927,7.0767,0.0,7.0348,6.8747,6.8005,6.781,6.7068,6.6355,6.5634,6.4762,6.3881,6.2999,6.2123,6.1724,6.1607,6.1705,6.1617,6.1479,6.1421,6.1408,6.1396,6.1394,6.1394,6.1433,6.1433,6.1421,6.1408,6.1396,6.146,6.1472,6.1408,6.1408,6.1433,6.146,6.1447,6.1408,6.146,6.1447,6.1383,6.1383,6.0773,6.0332,6.0332,6.0837,6.0798,5.9749,5.9166,5.8428,5.7457,5.6719,5.6253,5.6097,5.6214,5.6214,5.6097,5.6214,5.6265,5.6199,5.6199,5.6156,5.6117,5.6117,5.6046,5.6012,5.6012,5.6476,5.533,5.6014,5.6153,5.5317,5.3818,5.1421,4.7097,0.0,0.0,3.6785,3.6512,3.6746,3.546,3.9435,4.3604,4.5748,4.9691,5.3876,5.7783,5.8747,5.9703,6.1504,6.171,6.2228,6.3555,6.3282,6.3906,6.6053,6.5858,6.578,6.6249,6.666,6.7689,6.9453,6.9844,7.0273,7.0739,7.031,6.988,6.945,6.8982,6.8785,6.8817,6.962,7.0019,7.0036,7.0031,6.9784,6.9294,6.8435,6.7849,6.7381,6.6946,6.6271,6.5406,6.4521,6.3639,6.2773,6.1889,6.1607,6.1607,6.1559,6.1539,6.1489,6.1456,6.1433,6.1447,6.1421,6.1408,6.1408,6.1381,6.1394,6.1408,6.1396,6.1408,6.1447,6.1408,6.1421,6.1434,6.146,6.1433,6.1445,6.1484,6.1472,6.146,6.146,6.1085,6.0786,6.0786,6.1161,6.0875,5.9555,5.9477,5.9127,5.8311,5.7845,5.7612,5.7612,5.7612,5.7599,5.7585,5.7571,5.7543,5.7459,5.7001,5.6969,5.74,5.6936,5.6958,5.7366,5.7366,5.783,5.5901,5.6302,5.608,5.5091,5.2894,4.9681,4.4503,4.1753,3.8694,3.3239,3.3824,3.4993,3.3863,3.7448,4.1266,4.3526,4.6839,5.0828,5.556,5.6985,5.8487,6.1114,6.1593,0.0,6.414,6.3672,0.0,6.66,6.6209,6.617,6.6839,6.7068,6.818,7.035,6.9922,7.043,7.1992,7.1133,7.0469,7.0039,6.9609,6.918,6.875,6.9208,6.9401,6.9373,6.9211,6.873,6.8083,6.7888,6.742,6.6795,6.6784,6.6154,6.5133,6.4435,6.3522,6.2539,6.185,6.1607,6.1607,6.1607,6.1559,6.1539,6.1489,6.1518,6.1484,6.146,6.1408,6.1434,6.1394,6.1394,6.1394,6.1396,6.1408,6.1434,6.1408,6.1434,6.1472,6.1421,6.1301,6.1284,6.1507,6.1379,6.1301,6.1456,6.1472,6.1408,6.1408,6.1408,6.0889,5.949,5.9788,5.9827,5.9127,5.8894,5.8817,5.8817,5.8817,5.8803,5.8814,5.8731,5.87,5.8612,5.7942,5.7907,5.8604,5.7907,5.7946,5.8604,5.8604,5.9068,5.6019,5.6278,5.5913,5.4319,5.1989,4.8786,4.3592,0.0,3.6507,3.2834,3.2922,3.3824,3.4369,3.6824,4.0058,4.4111,4.5761,4.862,5.4507,5.6056,5.7601,6.0216,0.0,0.0,6.414,6.4219,6.4921,6.6678,6.6717,6.6722,6.6813,6.762,6.8513,6.9499,7.0191,7.1055,7.1992,7.1133,7.1055,7.1758,7.0234,6.9844,7.0469,6.9726,6.9408,6.9342,6.8577,6.8183,0.0,6.7264,6.6873,6.6795,6.6795,6.5769,6.4314,6.4216,6.314,6.1712,6.1616,6.1607,6.1607,6.1607,6.1607,6.1559,6.1539,6.1489,6.1479,6.1484,6.1484,6.1472,6.1434,6.1396,6.1396,6.1396,6.146,6.1472,6.1472,6.146,6.1421,6.1479,6.0845,6.0611,6.1432,6.0916,6.0661,6.1373,6.1495,6.1484,6.1484,6.1447,6.1357,6.1201,6.0514,6.006,5.9982,5.9244,5.8817,5.8817,5.8817,5.8817,5.8817,5.8775,5.8769,5.87,5.8535,5.854,5.8604,5.8526,5.8526,5.8604,5.8604,5.9068,5.5126,5.5916,5.5889,5.4179,5.1442,4.7806,4.2702,0.0,3.5437,3.201,3.2016,3.2883,3.3707,3.5538,3.7993,4.1305,4.2565,4.5033,5.0569,5.2116,5.4206,5.8343,6.0071,6.1603,0.0,0.0,6.4716,6.5926,6.6517,6.68,6.6805,6.7151,6.8245,7.0136,6.9992,7.0584,7.1992,7.164,7.1406,7.1211,7.0547,6.9844,6.918,6.8828,6.8392,6.7893,6.7546,6.7351,0.0,6.6951,6.6795,6.6756,6.6288,6.5301,6.4145,6.3631,6.2664,6.1578,6.1607,6.1607,6.1607,6.1607,6.1607,6.1685,6.2182,6.1987,6.1666,6.2141,6.1907,6.1507,6.1472,6.1445,6.1456,6.1472,6.1472,6.1484,6.1484,6.1472,6.1484,6.1489,6.1266,6.1149,6.1529,6.1325,6.1198,6.152,6.1528,6.1518,6.1518,6.1433,6.1396,6.1396,6.1097,6.0875,6.0875,6.0565,6.037,6.037,6.037,6.0356,6.0289,6.0298,6.0251,6.0201,5.9663,5.9627,6.0112,5.9609,5.9609,6.0112,6.0112,6.0306,5.3766,5.4854,5.5165,5.3689,5.0759,4.696,4.2101,3.8346,3.4912,3.1493,3.1654,3.2639,3.3273,3.4759,3.6668,3.9045,4.0154,4.2504,4.769,4.9396,5.183,5.6514,0.0,6.0315,0.0,6.3662,6.4866,6.549,6.6321,6.6717,6.6444,6.6678,6.7898,7.0253,6.9713,7.023,7.1992,7.1992,7.1562,7.0703,7.0703,6.9805,6.8203,6.8203,6.773,6.6883,6.6917,6.6873,0.0,6.6795,6.6795,6.6717,6.5897,6.5022,6.4099,6.324,6.236,6.1616,6.1616,6.1616,6.1646,6.188,6.1997,6.2192,6.3283,6.2698,6.1724,6.2289,6.2006,6.1567,6.1818,6.1673,6.1567,6.1807,6.169,6.1495,6.1495,6.1484,6.1495,6.1539,6.1354,6.1286,6.1568,6.1373,6.1295,6.1568,6.1559,6.15,6.1489,6.1445,6.1331,6.1058,6.1253,6.1419,6.1419,6.1419,6.1419,6.1419,6.1419,6.1366,6.1337,6.1306,6.1259,6.1225,6.0648,6.0574,6.1155,6.0574,6.0613,6.1137,6.1369,6.164,5.1979,5.3067,5.3533,5.264,4.9904,4.626,4.1888,3.8299,3.4906,3.1417,3.2065,3.3295,3.3295,3.4709,3.6473,3.8227,3.9229,4.1627,4.6777,4.902,5.1414,0.0,5.6801,5.8519,6.0276,6.3555,6.5585,6.5585,6.6327,0.0,6.5663,6.6366,6.7615,6.9372,6.9394,7.0228,7.1992,7.1992,7.1562,7.0703,7.0703,6.9805,6.8203,6.8203,6.7733,6.6901,6.6883,6.6873,0.0,6.6795,6.6795,6.6717,6.5897,6.5028,6.4118,6.3299,6.2421,6.1603,6.1603,6.1586,6.1724,6.262,6.2893,6.3205,6.488,6.3595,6.1607,6.1607,6.1549,6.1684,6.2541,6.2151,6.1723,6.2585,6.2129,6.1489,6.1489,6.1507,6.1495,6.1598,6.0887,6.0604,6.1451,6.0867,6.0594,6.1451,6.1607,6.1559,6.15,6.1507,6.1172,6.0316,6.0916,6.1419,6.1419,6.1419,6.1419,6.1419,6.1419,6.1419,6.1419,6.1337,6.1283,6.1322,6.1275,6.1297,6.1297,6.1297,6.1281,6.1229,6.2081,6.2915,4.7711,4.8654,4.8965,4.7489,4.5491,4.3015,3.9897,3.7,3.4326,3.2039,3.2046,3.261,3.3179,3.4236,3.615,3.9708,4.0505,4.2081,4.6059,4.9123,0.0,5.4138,5.8514,6.2027,0.0,0.0,6.4682,6.4632,6.5463,6.5858,6.5624,6.6366,6.7615,6.9333,6.9416,7.0245,7.1971,7.1984,7.1872,7.1562,7.0976,7.0117,6.8984,6.8468,6.7718,6.6901,6.6844,6.6834,6.6795,6.6795,6.6483,6.5897,6.5038,6.4174,6.326,6.244,6.1882,6.1588,6.1603,6.1595,6.1742,6.263,6.2893,6.3088,6.4179,6.3945,6.3205,6.2659,6.2026,6.1754,6.265,6.265,6.2533,6.2795,6.2629,6.224,6.1666,6.1539,6.1528,6.1598,6.1364,6.1286,6.1568,6.1373,6.1295,6.1568,6.1559,6.15,6.1489,6.1445,6.1331,6.1058,6.1253,6.1186,6.0631,6.1084,6.1419,6.1419,6.1419,6.1419,6.1419,6.1337,6.1306,6.1275,6.1242,6.1191,6.1173,6.1173,6.1465,6.2027,6.2916,6.3458,4.3835,4.5165,4.5564,4.4489,4.2946,4.1053,3.8499,3.6129,3.3922,3.1909,3.176,3.2279,3.3161,3.3751,3.5204,3.8604,3.9402,4.0933,4.4682,4.8215,0.0,5.5494,0.0,0.0,0.0,6.4292,6.4057,6.4677,6.5267,6.5585,6.5585,6.6366,6.7459,6.8864,6.8903,6.9762,7.148,7.1495,7.1353,7.1009,7.1127,7.023,6.8475,6.8577,6.7984,6.6856,6.6805,6.6795,0.0,6.6795,6.6327,6.5507,6.4648,6.3784,6.2881,6.2017,6.166,6.1641,6.1627,6.1853,6.2235,6.3107,6.3838,6.4413,6.4919,6.4413,6.3556,6.3049,6.2503,6.2231,6.2776,6.2893,6.2893,6.2893,6.2601,6.2162,6.1685,6.1549,6.1539,6.1607,6.188,6.1997,6.1646,6.2114,6.2348,6.1685,6.1831,6.1889,6.1557,6.1445,6.1292,6.0968,6.12,6.1084,6.0268,6.0928,6.1419,6.1419,6.1419,6.1419,6.1419,6.1352,6.1337,6.1345,6.1259,6.1225,6.1191,6.1465,6.222,6.3381,6.3613,6.4019,0.0,4.2117,4.2748,4.2692,4.1489,3.9714,3.7364,3.5546,0.0,3.1273,3.1449,3.2279,3.3206,3.3375,3.4056,3.6021,3.7013,3.9057,4.3278,4.6995,0.0,0.0,5.9368,0.0,6.3984,6.3516,6.3672,6.5273,6.5429,6.5429,6.5507,6.6288,6.7107,6.7966,6.8005,6.8864,7.0699,7.0777,7.0348,6.9494,7.1128,7.0162,6.7057,6.858,6.8379,0.0,6.6795,6.6795,6.6795,6.6756,6.6249,6.5429,6.4531,6.3672,6.2813,6.1993,6.171,6.1699,6.1699,6.2194,6.296,6.3912,6.5328,6.6712,6.6712,6.4997,6.3088,6.3088,6.3049,6.2971,6.2971,6.2971,6.2971,6.2893,6.2211,6.1617,6.1607,6.1549,6.1539,6.1607,6.2309,6.262,6.1841,6.3049,6.3556,6.1997,6.2465,6.2679,6.1807,6.1678,6.1382,6.0579,6.1122,6.1278,6.0527,6.1045,6.1419,6.1419,6.1419,6.1419,6.1497,6.1419,6.1419,6.1483,6.1415,6.1423,6.1462,6.2271,6.3476,6.4967,6.4232,6.4715,3.4719,0.0,3.6386,3.5737,3.53,3.4853,0.0,3.3316,0.0,0.0,0.0,3.2492,3.4022,3.4276,3.5723,4.0089,4.0974,4.2351,4.6006,5.0672,0.0,6.1426,6.2095,6.2686,6.414,6.3516,6.3164,6.3594,6.3594,6.3906,6.457,6.5429,6.6249,6.7068,6.7107,6.8279,7.0699,7.1363,7.1251,7.0405,7.0826,6.9884,6.782,6.821,6.782,6.6795,6.6795,6.6795,6.6756,6.6131,6.539,6.4531,6.3633,6.2774,6.1993,6.1798,6.1715,6.1715,6.1705,6.1816,6.2239,6.3741,6.5316,6.6702,6.6702,6.5826,6.4803,6.4803,6.4335,6.3828,6.3828,6.3828,6.3672,6.3049,6.2737,6.2377,6.1724,6.1607,6.1559,6.1607,6.2309,6.2815,6.262,6.3439,6.3984,6.3556,6.367,6.3753,6.3507,6.3417,6.3351,6.3143,6.3284,6.3323,6.3104,6.2041,6.1419,6.1419,6.1419,6.1691,6.2391,6.1769,6.1677,6.2307,6.2228,6.2525,6.3147,6.4019,6.4619,6.5006,6.5412,6.5837,3.1835,3.3432,3.4884,3.4449,3.4342,3.4244,3.3891,3.285,0.0,0.0,0.0,3.1933,3.3697,3.3983,3.5429,3.9793,4.1186,4.3739,4.9551,0.0,5.8031,6.2414,6.2584,6.2864,0.0,6.311,6.2675,6.35,6.3193,6.3545,6.4799,6.496,6.5546,6.6756,6.6795,6.7654,6.9489,6.9957,6.9962,6.9503,6.9923,6.9176,6.7537,6.7927,6.7615,6.6795,6.6795,6.6795,6.6756,6.5936,6.5077,6.4219,6.3321,6.2462,6.172,6.172,6.1954,6.2228,6.1827,6.1978,6.2518,6.3793,6.5067,6.6065,6.5675,6.5502,6.5436,6.5426,6.4764,6.4023,6.3634,6.3556,6.3322,6.2503,6.2309,6.2153,6.1685,6.1607,6.1724,6.2114,6.2893,6.3439,6.3439,6.4452,6.5036,6.4218,6.4421,6.4555,6.4154,6.4066,6.4026,6.4012,6.3998,6.3983,6.3983,6.3129,6.2585,6.2585,6.2585,6.2818,6.3284,6.2857,6.2803,6.3185,6.312,6.3494,6.429,6.4774,6.518,6.5566,6.5992,6.6185,3.1062,3.346,3.5753,3.5224,3.5301,3.5301,3.4473,3.3161,0.0,0.0,0.0,0.0,3.3526,3.3876,0.0,3.8602,4.096,4.5157,5.3182,5.6277,5.9022,6.2305,6.2048,0.0,6.3662,6.2453,6.2219,6.3701,6.3176,6.3533,6.5211,6.4643,6.5077,6.6756,6.6795,6.7146,6.7888,6.8161,6.8239,6.8122,6.8864,6.8357,6.6834,6.7576,6.7498,6.6795,6.6678,0.0,6.6522,6.5585,6.4765,6.4023,6.3125,6.2345,6.172,6.172,6.2189,6.2696,6.1954,6.2257,6.3104,6.3812,6.4619,6.5145,6.4404,6.4708,6.5307,6.525,6.4686,6.3945,6.3244,6.2971,6.2698,6.1802,6.1607,6.1607,6.1607,6.1607,6.1841,6.2737,6.3556,6.414,6.4296,6.5621,6.6205,6.4725,6.5153,6.5338,6.4577,6.4504,6.4468,6.4403,6.4401,6.4386,6.4386,6.4372,6.4372,6.4372,6.4139,6.3983,6.3983,6.41,6.4163,6.4116,6.4028,6.4382,6.518,6.518,6.5528,6.6185,6.6185,6.6185,3.3228,3.524,3.6013,3.3122,3.3539,3.4449,3.3519,3.3214,3.3014,0.0,0.0,0.0,0.0,3.6534,3.7894,0.0,0.0,5.0306,0.0,0.0,5.8715,6.1478,0.0,6.169,6.1985,6.1751,6.1712,6.1985,6.1927,6.2635,6.4314,6.4331,6.5077,6.6756,6.6795,6.6873,6.699,6.8474,6.8825,6.8083,6.8239,6.7771,6.6795,6.6951,6.6912,6.6756,0.0,6.578,6.5663,6.4062,6.3321,6.3125,6.2228,6.1837,6.172,6.172,6.1798,6.1876,6.1759,6.2267,6.3003,6.312,6.374,6.4385,6.4229,6.4294,6.4396,6.4396,6.4246,6.4062,6.3945,6.34,6.2698,6.1802,6.1607,6.1607,6.1607,6.1607,6.1841,6.2737,6.3556,6.4335,6.5075,6.605,6.6595,6.6361,6.6418,6.6446,6.6318,6.6256,6.6192,6.6192,6.6192,6.6217,6.6217,6.6135,6.612,6.612,6.476,6.3983,6.3983,6.4644,6.5017,6.5009,6.492,6.5312,6.6109,6.6051,6.6069,6.6185,6.6185,6.6185,3.2029,3.3924,3.5162,3.3615,3.5232,3.6957,3.6115,3.5262,3.4637,0.0,0.0,0.0,0.0,0.0,4.0887,4.6095,0.0,5.2669,5.6583,5.7829,5.9212,0.0,0.0,6.1586,6.1603,6.1603,6.1603,6.1603,6.1619,6.2375,6.4131,6.3377,6.4091,6.6706,6.5931,6.5897,6.6795,6.7576,6.7771,6.7381,6.7381,6.7185,6.6795,6.6795,6.6795,6.6756,0.0,6.5585,6.5468,6.3711,6.3008,6.2891,6.2032,6.1993,6.2462,6.293,6.2813,6.2384,6.2384,6.2345,6.2306,6.2306,6.2886,6.3467,6.2998,6.3494,6.4106,6.3676,6.3499,6.3436,6.3457,6.2834,6.2093,6.1685,6.1607,6.1607,6.1607,6.1958,6.2542,6.34,6.4218,6.5075,6.5933,6.6439,6.6712,6.6712,6.6702,6.6691,6.6691,6.6669,6.6645,6.6645,6.6607,6.6606,6.6606,6.6538,6.6508,6.6508,6.577,6.5343,6.5343,6.5693,6.5911,6.5895,6.5846,6.5967,6.6338,6.6303,6.6225,6.6264,6.6244,6.6456,3.1565,3.3228,3.4814,3.5201,3.7119,3.8922,3.8905,3.7734,0.0,0.0,0.0,0.0,0.0,4.114,0.0,4.9604,5.1781,5.398,5.7497,5.8559,5.962,6.1364,6.1607,6.1607,6.1607,6.1607,6.1607,6.1607,6.1586,6.2266,6.3826,6.2882,6.3566,6.6414,6.5457,6.5502,6.679,6.6795,6.6795,6.6795,6.6795,6.6717,6.6522,6.6717,6.6717,6.6483,6.5663,6.5312,6.5155,6.3399,6.2696,6.2618,6.1954,6.211,6.2813,6.3672,6.3438,6.2696,6.2696,6.2384,6.1954,6.1759,6.2306,6.2852,6.1954,6.2608,6.35,6.2875,6.2668,6.2655,6.2867,6.2235,6.1603,6.1586,6.1616,6.1616,6.1607,6.227,6.3127,6.3945,6.4803,6.5699,6.6556,6.6712,6.6712,6.6712,6.6712,6.6712,6.6712,6.6691,6.6719,6.6708,6.6659,6.6581,6.6592,6.6524,6.6508,6.6508,6.6508,6.6508,6.6508,6.6508,6.6586,6.6819,6.6733,6.6794,6.7027,6.694,6.6903,6.6903,6.6864,6.7077,3.4466,3.5472,3.5974,3.756,3.7544,3.7788,4.0087,3.9929,0.0,4.2291,0.0,0.0,0.0,4.5121,4.8017,5.163,5.3001,5.484,5.8336,0.0,5.956,6.1295,6.1559,6.1607,6.1607,6.1607,6.1607,6.1607,6.1586,6.1993,6.2929,6.3655,6.4482,6.5581,6.6258,6.6694,6.6811,6.679,6.6795,6.6795,6.6795,6.6405,6.5702,6.6444,6.6405,6.5624,6.4765,6.4375,6.4258,6.2501,6.1798,6.1798,6.172,6.1759,6.1915,6.2774,6.254,6.1798,6.1798,6.2267,6.2774,6.1954,6.2306,6.2852,6.1954,6.1798,6.1871,6.1793,6.1793,6.1944,6.2694,6.2258,6.1588,6.1603,6.1595,6.1595,6.1616,6.227,6.3127,6.3945,6.4803,6.5699,6.6556,6.6712,6.6712,6.6712,6.6712,6.6712,6.6712,6.6712,6.6702,6.6719,6.6645,6.6555,6.6524,6.6508,6.6508,6.6508,6.6508,6.6508,6.6508,6.6508,6.6897,6.7674,6.7626,6.7997,6.8812,6.876,6.8703,6.8703,6.8703,6.8315,3.2792,3.4466,3.5858,3.6477,3.8036,0.0,0.0,4.1749,4.2676,4.5221,4.5103,0.0,0.0,0.0,4.9843,5.2756,5.3494,5.4711,5.7663,5.8569,5.9382,6.0594,6.1227,6.1549,6.1607,6.1607,6.1607,6.1607,6.1616,6.1976,6.2834,6.3202,6.3795,6.4661,6.5003,6.5172,6.5172,6.5228,6.5234,6.5234,6.578,6.5624,6.4804,6.5116,6.5077,6.4726,6.3867,6.3477,6.3399,6.2189,6.172,6.1759,6.2306,6.2852,6.3282,6.3086,6.3477,6.3906,6.2267,6.2267,6.2852,6.1993,6.1915,6.2149,6.1798,6.2071,6.2384,6.1837,6.211,6.2457,6.22,6.1921,6.1648,6.1627,6.1588,6.1736,6.2274,6.3085,6.3973,6.4831,6.5631,6.6322,6.6634,6.6712,6.6712,6.6712,6.6712,6.6712,6.6712,6.6712,6.6702,6.6719,6.662,6.6567,6.6508,6.6508,6.6508,6.6508,6.6508,6.6508,6.6508,6.6508,6.6897,6.779,6.7775,6.8202,6.904,6.9007,6.895,6.895,6.8917,6.8975,3.196,3.3699,3.5411,3.5925,3.8438,4.1261,4.3169,4.4099,4.5364,4.8218,4.7934,4.766,4.9132,0.0,0.0,0.0,5.3922,5.4944,5.7262,5.8363,5.9126,5.9794,6.0817,6.1422,6.1208,6.1451,6.1607,6.1607,6.1607,6.1841,6.2465,6.2756,6.3154,6.3778,6.4045,6.4184,6.419,6.4247,6.4135,6.3906,6.4492,6.4453,6.3906,6.4179,6.414,6.3867,6.3243,6.3008,6.293,6.2071,6.172,6.1798,6.2657,6.3204,6.3438,6.3125,6.3594,6.4101,6.2306,6.2267,6.2852,6.1993,6.1876,6.2071,6.1798,6.211,6.2462,6.1876,6.2149,6.2457,6.1866,6.1705,6.1699,6.1648,6.1836,6.2187,6.2765,6.3811,6.477,6.5394,6.6165,6.6732,6.6732,6.6732,6.6683,6.6683,6.6712,6.6712,6.6712,6.6712,6.6702,6.6657,6.6646,6.6553,6.6508,6.6508,6.6625,6.6873,6.6625,6.6508,6.6508,6.6508,6.7052,6.8179,6.8218,6.8762,6.9888,6.9817,6.9817,6.9817,6.9786,6.9905,3.2756,3.3643,3.4723,3.6497,3.8839,4.1867,4.6148,4.7115,4.8097,5.1586,5.0984,5.0118,5.1035,5.0503,0.0,5.33,5.4427,5.5592,5.734,5.835,5.888,5.888,6.0406,6.1178,6.036,6.1091,6.1607,6.1607,6.1607,6.1607,6.1607,6.2426,6.2893,6.2893,6.3739,6.4185,6.417,6.419,6.3773,6.3008,6.3008,6.3008,6.3008,6.3867,6.3789,6.3008,6.3008,6.3008,6.293,6.2071,6.172,6.1798,6.2657,6.2462,6.1837,6.2657,6.2462,6.172,6.172,6.2267,6.2852,6.1993,6.2267,6.2813,6.1954,6.172,6.172,6.172,6.172,6.172,6.172,6.172,6.1715,6.1705,6.2362,6.2987,6.2928,6.4287,6.5496,6.5496,6.6198,6.6783,6.6783,6.6728,6.6711,6.6711,6.6693,6.6712,6.6712,6.6712,6.6691,6.6594,6.6594,6.6553,6.6508,6.6508,6.6873,6.7733,6.7005,6.6508,6.6508,6.6508,6.7324,6.9072,6.9111,6.9927,7.1598,7.1598,7.1598,7.1598,7.1598,7.1131,3.2993,3.4527,0.0,3.8234,4.1492,0.0,0.0,4.8879,0.0,0.0,5.3286,5.3301,5.3028,0.0,0.0,5.4388,5.4815,5.5398,5.6524,5.7431,5.7988,5.7974,5.897,5.9849,6.0243,6.0526,6.0926,6.1568,6.1607,6.1607,6.1607,6.2426,6.262,6.1997,6.2834,6.3007,6.2391,6.2428,6.2284,6.2005,6.2061,6.211,6.211,6.2345,6.2345,6.211,6.211,6.211,6.2071,6.1798,6.172,6.172,6.1993,6.2306,6.2579,6.2228,6.2696,6.336,6.2149,6.2267,6.2852,6.1993,6.1876,6.2032,6.1798,6.172,6.172,6.172,6.2149,6.2618,6.2618,6.2618,6.2462,6.1832,6.2847,6.3901,6.3896,6.4743,6.5673,6.6297,6.6635,6.6783,6.6783,6.6775,6.6767,6.6711,6.6702,6.6693,6.6712,6.6691,6.668,6.6657,6.6646,6.6606,6.6553,6.7097,6.7525,6.7772,6.7592,6.7475,6.7408,6.6834,6.7324,6.9072,6.9111,6.9927,7.1598,7.1598,7.1598,7.1598,7.1603,7.1469,3.4195,3.5881,0.0,4.032,4.3641,4.721,5.0819,0.0,0.0,0.0,5.4502,5.4388,5.4232,5.3922,0.0,5.4854,5.5281,5.5709,5.6214,5.7029,5.747,5.7106,5.8168,5.9126,5.9705,6.0066,6.0633,6.1471,6.1237,6.1247,6.1568,6.1763,6.1802,6.1607,6.2123,6.2141,6.1603,6.1627,6.1641,6.1595,6.1654,6.1666,6.171,6.1715,6.172,6.172,6.172,6.172,6.172,6.172,6.172,6.172,6.172,6.2032,6.2423,6.1876,6.2345,6.3125,6.2071,6.2267,6.2891,6.2384,6.2228,6.2228,6.2228,6.2228,6.2149,6.1798,6.2345,6.3008,6.3008,6.3243,6.3399,6.2852,6.3555,6.4375,6.4726,6.5463,6.616,6.6706,6.6811,6.6922,6.7273,6.7032,6.6908,6.7204,6.6954,6.6702,6.6712,6.6702,6.6797,6.7136,6.6828,6.6763,6.71,6.7567,6.7995,6.8319,6.8371,6.8566,6.8877,6.7695,6.786,6.9554,6.9578,7.0238,7.1598,7.1598,7.1598,7.1598,7.1603,7.1586,3.583,3.7434,0.0,4.2637,4.5495,0.0,5.3558,5.473,5.5033,5.6009,0.0,5.4181,5.4958,5.4465,5.4194,5.5087,5.5825,5.633,5.6408,5.7029,5.7185,5.6369,5.7767,5.879,5.888,5.9604,6.0444,6.1334,6.0633,6.0526,6.1325,6.0672,6.0633,6.1325,6.1451,6.1461,6.1478,6.1487,6.1534,6.1588,6.1595,6.1641,6.1699,6.171,6.1715,6.172,6.172,6.1642,6.1564,6.1564,6.1525,6.1486,6.1564,6.1564,6.1603,6.1681,6.172,6.172,6.172,6.2228,6.2891,6.2891,6.2891,6.2891,6.2969,6.3008,6.2813,6.2032,6.2462,6.3125,6.3125,6.3711,6.4336,6.4492,6.4531,6.4726,6.5429,6.6249,6.6795,6.6795,6.6795,6.7068,6.7849,6.7409,6.7201,6.8099,6.7477,6.6936,6.6956,6.6946,6.7208,6.7965,6.7292,6.7124,6.7956,6.7956,6.828,6.9122,6.9137,6.9526,7.0458,6.8825,6.8706,7.0377,7.0332,7.0743,7.1598,7.1598,7.1598,7.1598,7.1598,7.1598,3.5662,3.7847,0.0,0.0,4.8176,5.1498,5.3365,5.4326,5.5039,5.5924,5.5893,5.5729,5.5899,5.5797,5.5941,5.6834,5.6562,5.6498,5.7224,5.6874,5.6524,5.633,5.7237,5.8143,5.8829,5.9075,5.9527,6.0406,5.9705,5.9277,5.9482,6.001,6.0049,5.9482,6.0185,6.0585,6.0575,6.0573,6.0932,6.1586,6.158,6.1595,6.1602,6.1699,6.171,6.172,6.172,6.133,6.0666,6.0666,6.0276,5.9729,6.0393,6.0666,6.0744,6.1447,6.172,6.172,6.172,6.1837,6.1993,6.1993,6.1993,6.211,6.2774,6.3008,6.2969,6.2774,6.336,6.4023,6.4023,6.414,6.4609,6.5936,6.6249,6.6131,6.5702,6.6249,6.6795,6.6795,6.6795,6.6873,6.7068,6.7498,6.8111,6.8997,6.889,6.8739,6.8729,6.8749,6.8816,6.8972,6.8171,6.7993,6.8849,6.8292,6.8265,6.9122,6.8588,6.895,7.052,6.9461,6.9328,7.0377,7.0332,7.0743,7.1598,7.1598,7.1598,7.1598,7.1598,7.1598,3.6717,0.0,0.0,4.7063,0.0,5.3,5.3923,5.4774,5.5509,5.5968,5.6117,5.6149,5.618,5.6194,5.6364,5.6791,5.6481,5.6379,5.6859,5.6523,5.6265,5.6265,5.6667,5.7314,5.8182,5.8273,5.8635,5.9515,5.8776,5.8476,5.8877,5.8976,5.8976,5.8877,5.9425,5.9874,6.0282,5.9893,6.0097,6.0984,6.0543,6.0371,6.0425,6.0879,6.1325,6.1642,6.0822,6.0432,6.0354,5.9963,5.9768,5.9768,6.0237,6.0666,6.1095,6.1525,6.172,6.172,6.172,6.1954,6.2306,6.2306,6.2306,6.2423,6.2852,6.3008,6.3008,6.3008,6.3633,6.4414,6.4804,6.4921,6.5234,6.6483,6.6522,6.6327,6.6717,6.6795,6.6912,6.7342,6.742,6.7537,6.7966,6.8786,6.9366,6.9393,6.9327,6.9302,6.9284,6.9304,6.944,6.9868,6.9117,6.8756,6.9223,6.8833,6.86,6.8639,6.8611,6.9206,7.0531,7.0083,7.02,7.1057,7.1014,7.1194,7.1661,7.1661,7.1661,7.1661,7.1661,7.1645,3.7294,4.0236,4.352,4.9241,5.1763,0.0,5.4116,5.4967,5.5625,5.578,5.5968,5.6117,5.6149,5.6164,5.6242,5.6358,5.6281,5.6242,5.6373,5.6287,5.6199,5.6199,5.6382,5.6796,5.7535,5.7612,5.7897,5.8635,5.7884,5.7702,5.8398,5.7892,5.7854,5.8437,5.8665,5.9114,5.9815,5.9143,5.9191,6.0088,5.9356,5.9022,5.9137,5.9675,6.0432,6.1174,5.9729,5.9417,5.9885,5.9183,5.9222,5.9768,6.0041,6.051,6.1095,6.1525,6.1603,6.1486,6.1642,6.2189,6.2774,6.2774,6.2774,6.2813,6.2969,6.3008,6.3008,6.3013,6.3638,6.4462,6.5204,6.5473,6.5785,6.66,6.6288,6.6249,6.7771,6.7537,6.7224,6.7966,6.8083,6.8435,6.945,7.023,7.0498,6.994,6.9802,6.974,6.9761,6.9733,7.0024,7.0726,7.0024,6.9596,6.9712,6.9323,6.8816,6.8271,6.8621,6.9245,7.0102,7.0236,7.068,7.1575,7.1654,7.1718,7.1718,7.1718,7.1718,7.1718,7.1718,7.169,3.4764,0.0,4.4197,0.0,4.9985,5.0635,0.0,0.0,5.4039,0.0,5.5581,5.6062,5.6029,5.6062,5.6366,5.714,5.6598,5.6366,5.7149,5.6645,5.6194,5.6199,5.6873,5.743,5.7573,5.7612,5.7664,5.7742,5.6965,5.6537,5.6654,5.7274,5.7313,5.6654,5.7448,5.7897,5.7954,5.7887,5.8295,5.9152,5.9053,5.9038,5.9098,5.8454,5.8627,5.9417,5.9183,5.8753,5.8128,5.8011,5.7621,5.727,5.8714,5.887,5.8597,6.0861,6.1213,6.0661,6.1447,6.1798,6.1876,6.1876,6.1876,6.1993,6.2774,6.3008,6.3013,6.299,6.3618,6.4323,6.4441,6.5023,6.5798,6.6605,6.6717,6.6912,6.7888,6.8005,6.7966,6.8083,6.8083,6.863,7.027,7.0621,7.0933,7.1558,7.1604,7.1542,7.1534,7.1497,7.1505,7.1622,7.092,7.0726,7.1427,6.944,6.8465,6.9089,6.7803,6.7452,6.831,6.905,6.9868,7.0726,7.1355,7.1718,7.1718,7.1718,7.1718,7.1718,7.1718,7.169,3.6922,4.0833,4.4892,0.0,4.9985,5.0828,5.2531,5.3614,5.4349,5.4735,5.5449,5.6029,5.6012,5.6029,5.6162,5.6549,5.6278,5.6162,5.6566,5.6327,5.6149,5.6126,5.6519,5.6795,5.6809,5.6861,5.6874,5.6874,5.6511,5.6278,5.6278,5.6703,5.6753,5.6391,5.6757,5.7206,5.7663,5.7225,5.7213,5.7611,5.8102,5.8084,5.7668,5.7763,5.828,5.9065,5.8128,5.7738,5.7777,5.7309,5.7192,5.7348,5.8089,5.8441,5.8714,6.0354,6.0744,6.051,6.1408,6.172,6.172,6.172,6.172,6.1759,6.2149,6.2275,6.2482,6.3434,6.3982,6.4529,6.5506,6.6049,6.6429,6.6761,6.7185,6.7771,6.863,6.8044,6.7654,6.863,6.8825,6.9372,7.1128,7.1441,7.1558,7.1948,7.1955,7.1893,7.1893,7.1848,7.1817,7.1817,7.1076,7.0531,7.0414,6.8933,6.7959,6.7842,6.7569,6.7803,6.8699,6.9557,7.0414,7.1271,7.1599,7.177,7.177,7.177,7.177,7.177,7.177,7.1758,3.7822,4.091,4.3448,4.738,4.9135,5.0442,5.2414,5.3498,5.4271,5.4697,5.5277,5.578,5.5973,5.6012,5.6012,5.6012,5.6012,5.6012,5.6012,5.6046,5.6062,5.6117,5.6126,5.6185,5.6199,5.6265,5.6291,5.6304,5.629,5.6302,5.6314,5.6375,5.6386,5.6386,5.6417,5.67,5.7362,5.6775,5.648,5.6496,5.718,5.7115,5.6509,5.6948,5.7616,5.8402,5.7153,5.6957,5.7465,5.684,5.6957,5.7504,5.7738,5.8089,5.8597,5.9651,5.9924,5.9885,6.0978,6.1369,6.1408,6.1642,6.172,6.172,6.172,6.1694,6.1985,6.328,6.3789,6.4336,6.5859,6.6402,6.6625,6.6839,6.7342,6.8083,6.9176,6.8552,6.8161,6.9489,6.9723,7.0191,7.1753,7.1987,7.1987,7.1982,7.1924,7.1815,7.1612,7.1546,7.1516,7.1505,7.0959,7.0336,6.9673,6.8816,6.7959,6.7102,6.7647,6.831,6.8933,7.0024,7.0881,7.1466,7.17,7.1817,7.1817,7.1817,7.17,7.1505,7.17,7.1677,3.4643,3.6497,3.8428,4.3581,4.6109,4.7966,5.048,5.1718,5.2801,5.4465,5.4813,5.5084,5.5857,5.6012,5.6012,5.6012,5.6012,5.6012,5.6012,5.6012,5.6029,5.6078,5.6078,5.611,5.6199,5.6199,5.6226,5.6302,5.6302,5.6314,5.6386,5.6386,5.6386,5.6386,5.6417,5.6427,5.6466,5.6472,5.6496,5.6496,5.6549,5.653,5.647,5.5689,5.5855,5.6723,5.6645,5.6606,5.6645,5.6606,5.6606,5.6723,5.7504,5.7348,5.6918,5.8558,5.8636,5.8168,5.9885,6.0466,6.0583,6.1447,6.172,6.172,6.172,6.1694,6.1711,6.1796,6.2422,6.3281,6.4211,6.5068,6.5883,6.6683,6.6873,6.7342,6.902,6.9996,7.0504,7.0621,7.0621,7.0933,7.1831,7.1987,7.1982,7.193,7.1884,7.1597,7.0775,7.0649,7.0678,7.0648,7.0609,7.057,7.0531,6.9712,6.8855,6.7998,6.7959,6.8037,6.8076,6.9712,7.0609,7.0648,7.1427,7.1817,7.1817,7.1817,7.1427,7.0687,7.1427,7.1354,0.0,3.6163,3.8402,4.1351,4.4225,4.666,4.8121,5.0403,5.2376,5.2995,5.3575,5.4039,5.4349,5.5277,5.6012,5.6012,5.5586,5.5238,5.5238,5.4752,5.463,5.5188,5.5312,5.555,5.616,5.6226,5.6253,5.6302,5.6325,5.6386,5.6417,5.6437,5.6437,5.6437,5.6446,5.6455,5.6455,5.648,5.6503,5.651,5.6491,5.6509,5.6558,5.6246,5.6289,5.6606,5.6606,5.6606,5.6606,5.6606,5.6606,5.6645,5.6918,5.7153,5.7504,5.8675,5.9269,5.9631,6.0838,6.1221,6.1291,6.1603,6.172,6.172,6.172,6.1686,6.1935,6.3046,6.3594,6.4179,6.5617,6.6201,6.6507,6.6761,6.7224,6.781,6.8435,6.9684,7.0543,6.9957,7.0309,7.0816,7.1128,7.1636,7.1792,7.124,7.1579,7.1611,7.077,7.0645,7.0394,6.9839,6.9761,6.9761,6.9782,6.8963,6.8564,6.8816,6.8816,6.9089,6.9634,7.0765,7.1349,7.1349,7.1661,7.1817,7.1817,7.1817,7.1661,7.1388,7.1661,7.1638,3.2709,0.0,0.0,4.0063,4.2188,4.4404,4.7279,4.9034,5.0465,5.1896,5.2437,5.2824,5.3382,5.4426,5.5161,5.5161,5.4697,5.4465,5.4752,5.432,5.4258,5.5165,5.5288,5.5447,5.5733,5.6071,5.6188,5.5874,5.6191,5.6407,5.6388,5.6455,5.6503,5.6503,5.6503,5.6511,5.6511,5.6496,5.651,5.6491,5.6509,5.6558,5.6606,5.6294,5.6333,5.6567,5.6294,5.6333,5.6606,5.6606,5.6606,5.6606,5.6606,5.7113,5.7894,5.848,5.9234,6.0103,6.0967,6.1271,6.133,6.1603,6.172,6.172,6.172,6.1915,6.2388,6.3547,6.4061,6.4648,6.6086,6.6664,6.6891,6.6839,6.7459,6.8005,6.7732,6.9255,7.0543,6.9957,7.0543,7.105,7.0738,7.1167,7.1285,7.0381,7.0727,7.0759,6.9926,6.9802,6.9522,6.8968,6.9124,6.9311,6.9294,6.8787,6.87,6.9265,6.9294,6.9673,7.057,7.1349,7.1817,7.1817,7.1817,7.1817,7.1817,7.1544,7.1388,7.1388,7.1377,7.151,0.0,0.0,0.0,3.9445,3.9883,4.1081,4.7712,4.7403,4.6916,5.1167,5.1399,5.1322,5.3149,5.342,5.342,5.342,5.342,5.3785,5.4646,5.4723,5.5087,5.6063,5.6141,5.5845,5.5034,5.5773,5.5954,5.5097,5.5891,5.6388,5.6388,5.6455,5.6503,5.6503,5.6503,5.6511,5.6496,5.651,5.6491,5.6509,5.6558,5.6606,5.6567,5.5708,5.5786,5.6567,5.5708,5.5825,5.6606,5.6606,5.6606,5.6606,5.6606,5.7113,5.7894,5.7933,5.8484,5.9347,6.0155,6.0422,6.0588,6.1447,6.172,6.1681,6.172,6.2306,6.3008,6.3047,6.3662,6.453,6.5422,6.6266,6.6873,6.6834,6.7459,6.7849,6.699,6.8825,7.0621,7.066,7.1324,7.1636,7.0816,7.066,7.0381,6.9504,6.936,6.9087,6.8195,6.8085,6.8092,6.807,6.8773,6.928,6.928,6.9302,6.9323,6.9362,6.9343,6.9712,7.0609,7.1388,7.1817,7.1817,7.1817,7.1817,7.1817,7.0998,7.0648,7.0648,7.0575,7.0953,3.1438,0.0,0.0,0.0,0.0,0.0,3.9986,4.1763,4.4095,4.7766,4.8323,4.9034,5.1989,5.2028,5.1641,5.1641,5.2144,5.2856,5.3746,5.3383,5.3567,5.5094,5.5292,5.5488,5.589,5.6149,5.6212,5.5952,5.6241,5.6388,5.6388,5.6455,5.6503,5.6503,5.6503,5.6511,5.6511,5.651,5.6485,5.6491,5.6558,5.6606,5.6606,5.6333,5.6372,5.6606,5.6348,5.6393,5.6588,5.6588,5.6588,5.6588,5.6588,5.7125,5.7972,5.8597,5.9358,6.0193,6.1054,6.1327,6.1362,6.1612,6.169,6.1701,6.1686,6.2306,6.3134,6.3742,6.456,6.545,6.6315,6.6696,6.6834,6.6795,6.699,6.7107,6.6834,6.7849,6.902,6.9645,6.9957,7.0035,6.9801,6.9762,6.945,6.8585,6.902,6.9098,6.8228,6.8111,6.7844,6.7214,6.7916,6.8691,6.9302,6.9373,6.9904,7.1078,7.06,7.0591,7.1427,7.1661,7.1817,7.1817,7.1817,7.1817,7.1817,7.1583,7.1466,7.1466,7.1407,7.1471,0.0,0.0,0.0,0.0,0.0,0.0,3.9353,4.077,4.2483,4.6252,4.7055,4.7913,5.0619,5.0735,5.0519,5.0867,5.1331,5.2105,5.3375,5.3475,5.3906,5.5278,5.5475,5.5592,5.5747,5.6096,5.6146,5.5796,5.6153,5.6417,5.6388,5.6455,5.6503,5.6503,5.6503,5.6316,5.5974,5.6315,5.6329,5.5951,5.6402,5.6606,5.6606,5.6606,5.6606,5.6606,5.6588,5.6595,5.6598,5.6598,5.6598,5.6598,5.6598,5.7142,5.7996,5.8895,5.9723,6.0508,6.1406,6.1719,6.1718,6.1711,6.1704,6.1779,6.2134,6.2839,6.3701,6.4609,6.5459,6.6175,6.6305,6.6575,6.6717,6.6366,6.6561,6.6795,6.6795,6.7185,6.781,6.8708,6.9137,6.9294,6.8903,6.8864,6.8552,6.7693,6.8005,6.8122,6.7615,6.7576,6.7342,6.6834,6.7927,6.8859,6.936,6.9745,7.0512,7.1815,7.1087,7.0951,7.1799,7.1827,7.1817,7.1817,7.1817,7.1817,7.1817,7.1466,7.1271,7.1249,7.155,7.169,0.0,0.0,0.0,0.0,3.6794,0.0,4.1956,4.1716,4.1422,4.5401,4.6314,4.694,4.8848,4.9212,4.9513,5.021,5.0674,5.1502,5.3213,5.411,5.4915,5.5797,5.6071,5.5864,5.5087,5.5773,5.5991,5.5213,5.5936,5.6358,5.6271,5.6299,5.6308,5.6191,5.6191,5.5848,5.5053,5.5925,5.5906,5.5065,5.6094,5.6567,5.645,5.6567,5.6606,5.6606,5.6588,5.6598,5.6601,5.6601,5.6601,5.6601,5.6601,5.707,5.7851,5.8711,5.957,6.039,6.125,6.1601,6.1719,6.1719,6.175,6.1967,6.2655,6.3594,6.4648,6.5508,6.6164,6.6453,6.5785,6.6131,6.6483,6.578,6.6209,6.6795,6.6795,6.6795,6.7029,6.781,6.8591,6.8903,6.8239,6.8005,6.7693,6.6912,6.6795,6.6795,6.6795,6.6795,6.6795,6.6795,6.82,6.9176,6.9372,7.0102,7.0948,7.1845,7.1183,7.1078,7.1858,7.1838,7.1817,7.1817,7.17,7.17,7.1817,7.1076,7.0715,7.068,7.1381,7.1704,0.0,0.0,0.0,0.0,0.0,0.0,3.6369,3.7409,3.9157,4.1437,4.1928,4.2897,4.5979,4.6535,4.6612,4.6767,4.9088,5.1254,5.2314,5.2685,5.3117,5.4023,5.4776,5.5204,5.5009,5.5773,5.6212,5.6071,5.6212,5.6025,5.5376,5.5385,5.5082,5.4437,5.4398,5.4329,5.4156,5.5035,5.5048,5.4245,5.586,5.6216,5.5591,5.6294,5.6606,5.6606,5.6588,5.6598,5.6601,5.6601,5.6601,5.6601,5.6601,5.6719,5.6953,5.7812,5.8711,5.9531,6.0351,6.1094,6.1719,6.1719,6.2187,6.2655,6.2109,6.3555,6.5547,6.6406,6.5741,6.4918,6.5477,6.5702,6.578,6.5624,6.6249,6.6873,6.6795,6.6795,6.6834,6.7029,6.7185,6.7498,6.8005,6.7537,6.699,6.6834,6.6795,6.6795,6.6795,6.6795,6.6795,6.6795,6.7107,6.7888,6.9294,6.9567,7.0297,7.1806,7.1745,7.172,7.1897,7.1838,7.1817,7.1817,7.1154,7.1154,7.1817,7.1622,7.1572,7.1536,7.1719,7.1745,0.0,0.0,0.0,3.8105,0.0,0.0,0.0,3.7718,3.8772,4.1369,4.1272,4.1622,4.4612,4.4819,4.4833,4.5722,4.7618,4.9165,4.9591,5.1547,5.3102,5.3543,5.4064,5.4336,5.4349,5.5138,5.5644,5.5631,5.5264,5.4879,5.4461,5.4489,5.4312,5.3931,5.39,5.3681,5.326,5.4534,5.4786,5.4011,5.5313,5.5942,5.5942,5.5942,5.6177,5.6606,5.6588,5.6598,5.6601,5.6601,5.6601,5.6601,5.6601,5.6875,5.7305,5.7734,5.8711,5.9844,6.0273,6.0976,6.1719,6.1719,6.1992,6.2344,6.2344,6.3555,6.5117,6.6015,6.5625,6.4961,6.4953,6.5258,6.5368,6.4509,6.4978,6.572,6.611,6.6219,6.6327,6.6756,6.6834,6.699,6.7381,6.7107,6.6795,6.6795,6.6795,6.6795,6.6795,6.6795,6.6795,6.6795,6.7185,6.7966,6.9294,6.9801,7.0576,7.1806,7.1901,7.1885,7.1897,7.1838,7.1622,7.1193,7.0804,7.0804,7.1193,7.1583,7.1806,7.1794,7.1342,7.1368,0.0,0.0,0.0,0.0,0.0,3.8733,0.0,0.0,0.0,4.1393,4.0872,4.0655,4.2883,4.2756,4.2783,4.4175,4.5645,4.6496,4.6187,4.9596,5.2182,5.2341,5.2873,5.3185,5.3222,5.3689,5.4232,5.475,5.3691,5.3215,5.3555,5.3632,5.3572,5.3385,5.3401,5.3143,5.2604,5.415,5.4635,5.4016,5.504,5.5825,5.6333,5.5786,5.5942,5.6606,5.6582,5.6597,5.6601,5.6601,5.6601,5.6601,5.6601,5.7031,5.7656,5.7656,5.8711,6.0156,6.0156,6.0859,6.1719,6.1719,6.1719,6.1875,6.293,6.3515,6.4023,6.5078,6.5234,6.4961,6.4453,6.4959,6.5188,6.3627,6.3938,6.4719,6.5227,6.5492,6.5794,6.6492,6.6761,6.6878,6.6795,6.6795,6.6795,6.6795,6.6795,6.6795,6.6795,6.6795,6.6795,6.6795,6.742,6.82,6.9098,6.9957,7.081,7.1611,7.1667,7.1729,7.1897,7.1838,7.1505,7.0842,7.0687,7.0687,7.0842,7.1154,7.1466,7.1778,7.1093,7.112,0.0,0.0,0.0,0.0,4.325,0.0,0.0,0.0,3.8849,3.772,0.0,3.768,3.8709,0.0,0.0,3.903,4.2357,4.433,4.2783,4.5015,4.7068,4.7844,4.9976,5.1399,5.1474,5.0853,5.1447,5.3763,5.1714,5.1045,5.264,5.2727,5.2386,5.1632,5.1593,5.1966,5.2662,5.3598,5.4045,5.4025,5.5669,5.6098,5.5474,5.6138,5.6528,5.6606,5.6606,5.6591,5.6601,5.6601,5.6601,5.6601,5.6601,5.664,5.6758,5.6758,5.7851,5.9336,5.9336,6.0351,6.1719,6.1719,6.1719,6.1992,6.3633,6.3125,6.2344,6.3984,6.3906,6.3437,6.414,6.4961,6.5351,6.4375,6.4804,6.5273,6.4609,6.5039,6.5623,6.5732,6.6312,6.6813,6.68,6.6795,6.6795,6.6795,6.6795,6.6795,6.6795,6.6795,6.6795,6.6795,6.6873,6.7303,6.8161,6.9059,6.9913,7.0792,7.077,7.1105,7.1858,7.1838,7.1778,7.1661,7.0959,7.0959,7.1661,7.0258,7.0336,7.1817,7.17,7.17,0.0,0.0,0.0,0.0,0.0,0.0,3.9083,0.0,3.7924,0.0,0.0,0.0,0.0,0.0,0.0,0.0,4.0462,4.1197,3.9959,4.117,4.3053,4.5466,4.6278,4.7245,4.8794,4.8133,4.8727,5.1325,4.9635,4.9226,5.1014,5.1568,5.1702,5.132,5.1803,5.2246,5.2707,5.3532,5.3972,5.399,5.4225,5.442,5.4537,5.4381,5.4896,5.584,5.584,5.6126,5.6601,5.6601,5.6601,5.6601,5.6601,5.6914,5.7305,5.6797,5.7695,5.9219,5.9219,5.9961,6.1015,6.1523,6.1719,6.1836,6.2578,6.2617,6.2617,6.3359,6.3633,6.3711,6.3594,6.3828,6.3867,6.3008,6.3086,6.3398,6.3515,6.4219,6.4998,6.5489,6.6262,6.6844,6.6795,6.6795,6.6795,6.6795,6.6795,6.6795,6.6795,6.6795,6.699,6.7498,6.7537,6.7927,6.8786,6.9645,7.0108,6.9933,6.9865,7.0229,7.1117,7.0619,7.057,7.1076,7.0765,7.0765,7.1115,7.0881,7.1115,7.1778,7.131,7.1622,4.7857,0.0,0.0,0.0,0.0,0.0,0.0,0.0,0.0,0.0,0.0,0.0,0.0,0.0,0.0,0.0,0.0,3.9379,3.8025,3.8384,3.984,4.2598,4.3225,4.4344,4.6696,4.553,4.5901,4.8963,4.7232,4.7181,4.9854,5.0611,5.1047,5.1281,5.1927,5.2376,5.2707,5.3342,5.3743,5.399,5.3366,5.3405,5.399,5.36,5.4115,5.5299,5.554,5.6013,5.6601,5.6601,5.6601,5.6601,5.6601,5.6992,5.7461,5.6836,5.7695,5.9219,5.9219,5.9883,6.0859,6.1484,6.1719,6.1719,6.1719,6.2148,6.2656,6.2656,6.3281,6.3867,6.3476,6.3359,6.3203,6.2578,6.2226,6.2148,6.2578,6.3515,6.4485,6.5121,6.6131,6.6873,6.6795,6.6795,6.6795,6.6795,6.6795,6.6873,6.7146,6.7146,6.7381,6.8044,6.8083,6.8357,6.8981,6.9606,6.9717,6.9075,6.9194,6.9488,6.9917,6.9743,6.9967,7.058,7.0814,7.097,7.092,7.1505,7.1817,7.1778,7.1193,7.1583,0.0,0.0,0.0,4.6999,0.0,0.0,0.0,0.0,4.0345,0.0,0.0,0.0,0.0,0.0,0.0,0.0,0.0,0.0,0.0,3.7003,3.7422,3.8384,4.1461,4.4171,4.588,4.3005,4.2839,4.7163,4.437,4.4659,4.9722,5.0034,5.0424,5.1281,5.1342,5.1791,5.2707,5.2718,5.3157,5.399,5.3951,5.3951,5.4029,5.4849,5.524,5.5361,5.6207,5.6562,5.6601,5.6601,5.6601,5.6601,5.6601,5.6601,5.664,5.6601,5.7695,5.9219,5.9219,6.0273,6.164,6.168,6.1719,6.1719,6.1719,6.1719,6.1758,6.1758,6.2383,6.3242,6.4062,6.4258,6.4258,6.4219,6.3555,6.2734,6.1914,6.3074,6.4297,6.4336,6.5663,6.6795,6.6795,6.6795,6.6795,6.6795,6.6795,6.7107,6.7966,6.8044,6.8083,6.8083,6.8083,6.8122,6.8122,6.8161,6.8156,6.8138,6.8858,6.896,6.8227,6.9709,7.055,7.06,7.1429,7.1848,7.1778,7.1778,7.1817,7.1817,7.1778,7.1778,0.0,0.0,5.4841,5.031,0.0,0.0,0.0,0.0,0.0,0.0,0.0,0.0,0.0,0.0,0.0,0.0,0.0,0.0,0.0,3.4293,3.4168,3.5592,3.8355,4.013,4.0092,4.0615,4.1807,4.3864,4.3483,4.4674,4.8164,4.941,5.0151,5.0424,5.1576,5.2337,5.2707,5.2718,5.2845,5.3132,5.2546,5.2273,5.2312,5.3171,5.3873,5.4502,5.5375,5.6089,5.6601,5.6601,5.6601,5.6601,5.6601,5.6601,5.6601,5.6601,5.6953,5.7656,5.8789,6.0312,6.1719,6.1719,6.1719,6.1719,6.1719,6.2109,6.2578,6.2578,6.2773,6.3086,6.3359,6.3008,6.2578,6.2578,6.2773,6.2929,6.2602,6.3915,6.5155,6.5155,6.6053,6.6795,6.6795,6.6795,6.6795,6.6795,6.6795,6.7107,6.8005,6.7615,6.7693,6.8825,6.8942,6.8747,6.8161,6.7576,6.7498,6.8078,6.8372,6.8359,6.8124,6.9701,7.0619,7.06,7.1409,7.1827,7.1817,7.1817,7.1817,7.1817,7.1817,7.2089,5.5861,5.6423,0.0,5.2746,5.051,0.0,4.4626,0.0,4.4689,0.0,0.0,0.0,0.0,0.0,0.0,0.0,0.0,0.0,0.0,3.349,3.3248,3.4342,3.625,3.7713,3.8382,3.8594,3.9824,4.2572,4.212,4.3311,4.6839,4.8631,4.9722,5.0041,5.1427,5.2188,5.2239,5.2255,5.2225,5.2234,5.1687,5.157,5.1882,5.2741,5.365,5.4521,5.5387,5.6093,5.66,5.66,5.66,5.66,5.66,5.66,5.66,5.6601,5.6992,5.7773,5.9492,6.0781,6.1719,6.1719,6.1719,6.1758,6.207,6.2539,6.3047,6.3398,6.3476,6.3476,6.3476,6.3047,6.2539,6.2226,6.2812,6.3397,6.3056,6.4375,6.5585,6.5585,6.6249,6.6795,6.6795,6.6795,6.6795,6.6795,6.6795,6.7224,6.8396,6.8083,6.8279,6.9723,6.9567,6.8903,6.7732,6.7693,6.781,6.8083,6.8111,6.8105,6.8105,6.9444,7.016,7.0151,7.1263,7.1827,7.1817,7.1817,7.1817,7.1817,7.1817,7.2284]},{"header":{"parameterUnit":"m.s-1","parameterCategory":1,"la1":30.6,"la2":29.2853,"lo1":-89.7004,"lo2":-87.6739,"dy":0.0162,"dx":0.0183,"nx":112,"ny":82,"refTime":"2024-03-22T12:00:00:Z","depth":0,"parameterNumber":3,"parameterNumberName":"V-component_of_WINDS"},"data":[0.0,0.0,0.0,0.0,0.0,0.0,0.0,0.0,0.0,0.0,0.0,0.0,0.0,0.0,0.0,0.0,0.0,0.0,0.0,0.0,0.0,0.0,0.0,0.0,0.0,0.0,0.0,0.0,0.0,0.0,0.0,0.0,0.0,0.0,0.0,0.0,0.0,0.0,0.0,0.0,0.0,0.0,0.0,0.0,0.0,0.0,0.0,0.0,0.0,0.0,0.0,0.0,0.0,0.0,0.0,0.0,0.0,0.0,0.0,0.0,0.0,0.0,0.0,0.0,0.0,0.0,0.0,0.0,0.0,0.0,0.0,0.0,0.0,0.0,0.0,0.0,0.0,0.0,0.0,0.0,0.0,0.0,0.0,0.0,0.0,0.0,0.0,0.0,0.0,0.0,0.0,-0.9703,-1.1141,-1.1838,-1.1728,-1.1503,-1.0772,-0.9377,0.0,0.0,0.0,0.0,0.0,0.0,0.0,0.0,0.0,0.0,0.0,0.0,0.0,0.0,0.0,0.0,0.0,0.0,0.0,0.0,0.0,0.0,0.0,0.0,0.0,0.0,0.0,0.0,0.0,0.0,0.0,0.0,0.0,0.0,0.0,0.0,0.0,0.0,0.0,0.0,0.0,0.0,0.0,0.0,0.0,0.0,0.0,0.0,0.0,0.0,0.0,0.0,0.0,0.0,0.0,0.0,0.0,0.0,0.0,0.0,0.0,0.0,0.0,0.0,0.0,0.0,0.0,0.0,0.0,0.0,0.0,0.0,0.0,0.0,0.0,0.0,0.0,0.0,0.0,0.0,0.0,0.0,0.0,0.0,0.0,0.0,0.0,0.0,0.0,0.0,0.0,0.0,0.0,0.0,0.0,0.0,0.0,0.0,0.0,0.0,0.0,0.0,0.0,0.0,-0.8234,-1.0052,-1.0972,-1.1309,-1.1105,-1.0759,-1.0207,-0.9244,0.0,0.0,0.0,0.0,0.0,0.0,0.0,0.0,0.0,0.0,0.0,0.0,0.0,0.0,0.0,0.0,0.0,0.0,0.0,0.0,0.0,0.0,0.0,0.0,0.0,0.0,0.0,0.0,0.0,0.0,0.0,0.0,0.0,0.0,0.0,0.0,0.0,0.0,0.0,0.0,0.0,0.0,0.0,0.0,0.0,0.0,0.0,0.0,0.0,0.0,0.0,0.0,0.0,0.0,0.0,0.0,0.0,0.0,0.0,0.0,0.0,0.0,0.0,0.0,0.0,0.0,0.0,0.0,0.0,0.0,0.0,0.0,0.0,0.0,0.0,0.0,0.0,0.0,0.0,0.0,0.0,0.0,0.0,0.0,0.0,0.0,0.0,0.0,0.0,0.0,0.0,0.0,0.0,0.0,0.0,0.0,0.0,0.0,0.0,0.0,0.0,0.0,0.0,-0.7939,-0.8914,-1.0712,-1.1221,-1.1362,-1.1168,-1.0694,-1.0,-0.911,-0.8367,0.0,0.0,0.0,0.0,0.0,0.0,0.0,0.0,0.0,0.0,0.0,0.0,0.0,0.0,0.0,0.0,0.0,0.0,0.0,0.0,0.0,0.0,0.0,0.0,0.0,0.0,0.0,0.0,0.0,0.0,0.0,0.0,0.0,0.0,0.0,0.0,0.0,0.0,0.0,0.0,0.0,0.0,0.0,0.0,0.0,0.0,0.0,0.0,0.0,0.0,0.0,0.0,0.0,0.0,0.0,0.0,0.0,0.0,0.0,0.0,0.0,0.0,0.0,0.0,0.0,0.0,0.0,0.0,0.0,0.0,0.0,0.0,0.0,0.0,0.0,0.0,0.0,0.0,0.0,0.0,0.0,0.0,0.0,0.0,0.0,0.0,0.0,0.0,0.0,0.0,0.0,0.0,0.0,0.0,0.0,0.0,0.0,0.0,0.0,0.0,0.0,0.0,-0.9046,-0.9655,-1.0957,-1.1242,-1.1276,-1.1095,-1.0466,-0.9716,-0.893,-0.7895,0.0,0.0,0.0,0.0,0.0,0.0,0.0,0.0,0.0,0.0,0.0,0.0,0.0,0.0,0.0,0.0,0.0,0.0,0.0,0.0,0.0,0.0,0.0,0.0,0.0,0.0,0.0,0.0,0.0,0.0,0.0,0.0,0.0,0.0,0.0,0.0,0.0,0.0,0.0,0.0,0.0,0.0,0.0,0.0,0.0,0.0,0.0,0.0,0.0,0.0,0.0,0.0,0.0,0.0,0.0,0.0,0.0,0.0,0.0,0.0,0.0,0.0,0.0,0.0,0.0,0.0,0.0,0.0,0.0,0.0,0.0,0.0,0.0,0.0,0.0,0.0,0.0,0.0,0.0,0.0,0.0,0.0,0.0,0.0,0.0,0.0,0.0,0.0,0.0,0.0,0.0,0.0,0.0,0.0,0.0,0.0,0.0,0.0,0.0,0.0,0.0,0.0,-0.9072,-0.9957,-1.0387,-1.059,-1.0732,-1.0452,-0.9632,-0.9076,-0.8658,-0.7415,0.0,0.0,0.0,0.0,0.0,0.0,0.0,0.0,0.0,0.0,0.0,0.0,0.0,0.0,0.0,0.0,0.0,0.0,0.0,0.0,0.0,0.0,0.0,0.0,0.0,0.0,0.0,0.0,0.0,0.0,0.0,0.0,0.0,0.0,0.0,0.0,0.0,0.0,0.0,0.0,0.0,0.0,0.0,0.0,0.0,0.0,0.0,0.0,0.0,0.0,0.0,0.0,0.0,0.0,0.0,0.0,0.0,0.0,0.0,0.0,0.0,0.0,0.0,0.0,0.0,0.0,0.0,0.0,0.0,0.0,0.0,0.0,0.0,0.0,0.0,0.0,0.0,0.0,0.0,0.0,0.0,0.0,0.0,0.0,0.0,0.0,0.0,0.0,0.0,0.0,0.0,0.0,0.0,0.0,0.0,0.0,0.0,0.0,0.0,0.0,0.0,0.0,-0.882,-0.9657,0.0,-1.059,-1.0574,-1.029,-0.9746,-0.9007,-0.818,0.0,0.0,0.0,0.0,0.0,0.0,0.0,0.0,0.0,0.0,0.0,0.0,0.0,0.0,0.0,0.0,0.0,0.0,0.0,0.0,0.0,0.0,0.0,0.0,0.0,0.0,0.0,0.0,0.0,0.0,0.0,0.0,0.0,0.0,0.0,0.0,0.0,0.0,0.0,0.0,0.0,0.0,0.0,0.0,0.0,0.0,0.0,0.0,0.0,0.0,0.0,0.0,0.0,0.0,0.0,0.0,0.0,0.0,0.0,0.0,0.0,0.0,0.0,0.0,0.0,0.0,0.0,0.0,0.0,0.0,0.0,0.0,0.0,0.0,0.0,0.0,0.0,0.0,0.0,0.0,0.0,0.0,0.0,0.0,0.0,0.0,0.0,0.0,0.0,0.0,0.0,0.0,0.0,0.0,0.0,0.0,0.0,0.0,0.0,0.0,0.0,0.0,-0.7769,-0.8734,-0.9614,0.0,-1.0466,-1.0353,-1.0103,-0.9592,-0.8828,-0.774,0.0,0.0,0.0,0.0,0.0,0.0,0.0,0.0,0.0,0.0,0.0,0.0,0.0,0.0,0.0,0.0,0.0,0.0,0.0,0.0,0.0,0.0,0.0,0.0,0.0,0.0,0.0,0.0,0.0,0.0,0.0,0.0,0.0,0.0,0.0,0.0,0.0,0.0,0.0,0.0,0.0,0.0,0.0,0.0,0.0,0.0,0.0,0.0,0.0,0.0,0.0,0.0,0.0,0.0,0.0,0.0,0.0,0.0,0.0,0.0,0.0,0.0,0.0,0.0,0.0,0.0,0.0,0.0,0.0,0.0,0.0,0.0,0.0,0.0,0.0,0.0,0.0,0.0,0.0,0.0,0.0,0.0,0.0,0.0,0.0,0.0,0.0,0.0,0.0,0.0,0.0,0.0,0.0,0.0,0.0,0.0,0.0,0.0,0.0,0.0,0.0,0.0,-0.7808,-0.8909,-0.9875,-1.021,-1.0093,-0.9957,-0.9916,-0.908,-0.826,0.0,0.0,0.0,0.0,0.0,0.0,0.0,0.0,0.0,0.0,0.0,0.0,0.0,0.0,0.0,0.0,0.0,0.0,0.0,0.0,0.0,0.0,0.0,0.0,0.0,0.0,0.0,0.0,0.0,0.0,0.0,0.0,0.0,0.0,0.0,0.0,0.0,0.0,0.0,0.0,0.0,0.0,0.0,0.0,0.0,0.0,0.0,0.0,0.0,0.0,0.0,0.0,0.0,0.0,0.0,0.0,0.0,0.0,0.0,0.0,0.0,0.0,0.0,0.0,0.0,0.0,0.0,0.0,0.0,0.0,0.0,0.0,0.0,0.0,0.0,0.0,0.0,0.0,0.0,0.0,0.0,0.0,0.0,0.0,0.0,0.0,0.0,0.0,0.0,0.0,0.0,0.0,0.0,0.0,0.0,0.0,0.0,0.0,0.0,0.0,0.0,0.0,0.0,-0.7416,-0.8668,-0.9421,-0.9399,-0.9565,-0.9594,-0.9446,-0.8855,-0.8123,-0.7366,0.0,0.0,0.0,0.0,0.0,0.0,0.0,0.0,0.0,0.0,0.0,0.0,0.0,0.0,0.0,0.0,0.0,0.0,0.0,0.0,0.0,0.0,0.0,0.0,0.0,0.0,0.0,0.0,0.0,0.0,0.0,0.0,0.0,0.0,0.0,0.0,0.0,0.0,0.0,0.0,0.0,0.0,0.0,0.0,0.0,0.0,0.0,0.0,0.0,0.0,0.0,0.0,0.0,0.0,0.0,0.0,0.0,0.0,0.0,0.0,0.0,0.0,0.0,0.0,0.0,0.0,0.0,0.0,0.0,0.0,0.0,0.0,0.0,0.0,0.0,0.0,0.0,0.0,0.0,0.0,0.0,0.0,0.0,0.0,0.0,0.0,0.0,0.0,0.0,0.0,0.0,0.0,0.0,0.0,0.0,0.0,0.0,0.0,0.0,0.0,0.0,0.0,-0.721,-0.8401,-0.9129,-0.9264,-0.933,-0.9324,-0.9369,-0.8798,-0.8074,-0.7247,0.0,0.0,0.0,0.0,0.0,0.0,0.0,0.0,0.0,0.0,0.0,0.0,0.0,0.0,0.0,0.0,0.0,0.0,0.0,0.0,0.0,0.0,0.0,0.0,0.0,0.0,0.0,0.0,0.0,0.0,0.0,0.0,0.0,0.0,0.0,0.0,0.0,0.0,0.0,0.0,0.0,0.0,0.0,0.0,0.0,0.0,0.0,0.0,0.0,0.0,0.0,0.0,0.0,0.0,0.0,0.0,0.0,0.0,0.0,0.0,0.0,0.0,0.0,0.0,0.0,0.0,0.0,0.0,0.0,0.0,0.0,0.0,0.0,0.0,0.0,0.0,0.0,0.0,0.0,0.0,0.0,0.0,0.0,0.0,0.0,0.0,0.0,0.0,0.0,0.0,0.0,0.0,0.0,0.0,0.0,0.0,0.0,0.0,0.0,0.0,0.0,0.0,-0.6987,-0.8112,-0.9012,-0.9283,-0.909,-0.9064,-0.9376,-0.8767,-0.8036,-0.7258,0.0,0.0,0.0,0.0,0.0,0.0,0.0,0.0,0.0,0.0,0.0,0.0,0.0,0.0,0.0,0.0,0.0,0.0,0.0,0.0,0.0,0.0,0.0,0.0,0.0,0.0,0.0,0.0,0.0,0.0,0.0,0.0,0.0,0.0,0.0,0.0,0.0,0.0,0.0,0.0,0.0,0.0,0.0,0.0,0.0,0.0,0.0,0.0,0.0,0.0,0.0,0.0,0.0,0.0,0.0,0.0,0.0,0.0,0.0,0.0,-0.3687,0.0,0.0,0.0,0.0,0.0,0.0,0.0,0.0,0.0,0.0,0.0,0.0,0.0,0.0,0.0,0.0,0.0,0.0,0.0,0.0,0.0,0.0,0.0,0.0,0.0,0.0,0.0,0.0,0.0,0.0,0.0,0.0,0.0,0.0,0.0,0.0,0.0,0.0,0.0,0.0,0.0,-0.6453,-0.778,-0.857,-0.8522,-0.8666,-0.8716,-0.8614,-0.8137,-0.7588,-0.7111,-0.623,0.0,0.0,0.0,0.0,0.0,0.0,0.0,0.0,0.0,0.0,0.0,0.0,0.0,0.0,0.0,0.0,0.0,0.0,0.0,0.0,0.0,0.0,0.0,0.0,0.0,0.0,0.0,0.0,0.0,0.0,0.0,0.0,0.0,0.0,0.0,0.0,0.0,0.0,0.0,0.0,0.0,0.0,0.0,0.0,0.0,0.0,0.0,0.0,0.0,0.0,0.0,0.0,0.0,0.0,0.0,0.0,0.0,0.0,0.0,0.0,-0.3908,0.0,0.0,0.0,0.0,0.0,0.0,0.0,0.0,0.0,0.0,0.0,0.0,0.0,0.0,0.0,0.0,0.0,0.0,0.0,0.0,0.0,0.0,0.0,0.0,0.0,0.0,0.0,0.0,0.0,0.0,0.0,0.0,0.0,0.0,0.0,0.0,0.0,0.0,0.0,0.0,-0.6754,-0.768,-0.8407,-0.8581,-0.8601,-0.8611,-0.8685,-0.821,-0.7724,-0.726,-0.6613,0.0,0.0,0.0,0.0,0.0,0.0,0.0,0.0,0.0,0.0,0.0,0.0,0.0,0.0,0.0,0.0,0.0,0.0,0.0,0.0,0.0,0.0,0.0,0.0,0.0,0.0,0.0,0.0,0.0,0.0,0.0,0.0,0.0,0.0,0.0,0.0,0.0,0.0,0.0,0.0,0.0,0.0,0.0,0.0,0.0,0.0,0.0,0.0,0.0,0.0,0.0,0.0,0.0,-0.4524,-0.4759,-0.4991,-0.5198,-0.5286,-0.5238,-0.4695,-0.4471,-0.4338,-0.4008,0.0,0.0,0.0,0.0,0.0,0.0,0.0,0.0,0.0,0.0,0.0,0.0,0.0,0.0,0.0,0.0,0.0,0.0,0.0,0.0,0.0,0.0,0.0,0.0,-0.6331,-0.6392,-0.5885,0.0,0.0,0.0,0.0,0.0,0.0,0.0,0.0,0.0,0.0,0.0,-0.7078,-0.7726,-0.8169,-0.8646,-0.8481,-0.854,-0.8703,-0.8327,-0.7896,-0.7437,-0.714,-0.6465,0.0,0.0,0.0,0.0,0.0,0.0,0.0,0.0,0.0,0.0,0.0,0.0,0.0,0.0,0.0,0.0,0.0,0.0,0.0,0.0,0.0,0.0,0.0,0.0,0.0,0.0,0.0,0.0,0.0,0.0,0.0,0.0,-0.3018,-0.3148,0.0,0.0,0.0,0.0,0.0,0.0,0.0,0.0,0.0,0.0,0.0,0.0,0.0,-0.3583,-0.374,-0.4234,-0.4593,-0.4606,-0.4928,-0.5055,-0.511,-0.5189,-0.5181,-0.5097,-0.5148,0.0,-0.4648,-0.4339,0.0,0.0,0.0,0.0,0.0,0.0,0.0,0.0,0.0,0.0,0.0,0.0,0.0,0.0,0.0,0.0,0.0,0.0,0.0,0.0,0.0,0.0,-0.6937,-0.6973,-0.7192,-0.7311,0.0,-0.6312,-0.5787,-0.5052,-0.4855,0.0,0.0,0.0,0.0,0.0,0.0,0.0,-0.6376,-0.7129,-0.7706,-0.796,-0.8053,-0.8112,-0.8085,-0.8001,-0.7713,-0.7276,-0.7027,-0.6565,-0.5848,-0.5312,0.0,0.0,0.0,0.0,0.0,0.0,0.0,0.0,0.0,0.0,0.0,0.0,0.0,0.0,0.0,0.0,0.0,0.0,0.0,0.0,0.0,0.0,0.0,0.0,0.0,0.0,0.0,0.0,0.0,-0.2956,-0.3213,-0.3295,-0.3199,-0.3092,0.0,0.0,0.0,0.0,0.0,0.0,0.0,0.0,0.0,-0.304,-0.3832,-0.4137,-0.411,-0.4661,-0.489,-0.4771,-0.5234,-0.5338,-0.5077,-0.5618,-0.561,-0.5402,-0.5482,-0.5383,-0.5114,-0.4876,-0.4648,-0.4408,0.0,0.0,0.0,0.0,-0.5009,-0.5181,-0.5328,-0.5301,0.0,-0.5023,0.0,0.0,0.0,0.0,0.0,0.0,0.0,0.0,0.0,0.0,-0.677,-0.6918,-0.7159,-0.7316,-0.7024,-0.681,-0.6511,0.0,-0.5538,-0.5309,-0.4347,0.0,0.0,0.0,0.0,-0.5959,-0.6709,-0.7232,-0.7594,-0.7828,-0.7938,-0.7883,-0.7874,-0.7737,-0.7623,-0.7479,-0.7114,-0.6745,-0.616,-0.5681,-0.517,0.0,0.0,0.0,0.0,0.0,0.0,0.0,0.0,0.0,0.0,0.0,0.0,0.0,0.0,0.0,0.0,0.0,0.0,0.0,0.0,0.0,0.0,0.0,0.0,0.0,0.0,0.0,0.0,-0.3167,-0.345,-0.335,-0.3393,-0.332,0.0,0.0,0.0,0.0,0.0,0.0,-0.3063,-0.3361,-0.3417,-0.3204,-0.4079,-0.4504,-0.4344,-0.4841,-0.5035,-0.5142,-0.5405,-0.5487,-0.5399,-0.596,-0.6073,-0.5741,-0.5813,-0.5733,-0.5435,-0.5222,-0.493,-0.4746,-0.4757,-0.4837,-0.486,-0.522,-0.5466,-0.5636,-0.5989,-0.6005,-0.5964,-0.5757,-0.5627,-0.5464,-0.4985,0.0,0.0,0.0,0.0,-0.6304,-0.6617,-0.6608,-0.6665,-0.685,-0.7107,-0.7292,-0.7095,-0.7258,-0.7184,0.0,-0.6129,-0.5982,-0.4798,0.0,0.0,0.0,0.0,-0.6078,-0.6924,-0.7194,-0.746,-0.7808,-0.7731,-0.766,-0.7732,-0.7648,-0.7479,-0.7415,-0.7168,-0.6792,-0.6328,-0.5936,-0.5466,-0.4836,0.0,0.0,0.0,0.0,0.0,0.0,0.0,0.0,0.0,0.0,0.0,0.0,0.0,0.0,0.0,0.0,0.0,0.0,0.0,0.0,0.0,0.0,0.0,0.0,0.0,0.0,0.0,0.0,0.0,-0.3214,-0.3353,0.0,0.0,0.0,0.0,-0.3016,-0.3081,-0.3112,-0.3106,-0.3177,-0.327,-0.3395,-0.3778,-0.4205,-0.4576,-0.4579,-0.489,-0.5761,-0.549,-0.5575,-0.591,-0.6121,-0.6112,-0.6027,-0.5933,-0.5839,-0.5716,-0.5169,-0.4843,-0.4679,-0.4865,-0.4997,-0.4922,-0.5225,-0.562,-0.6001,-0.6016,-0.6153,-0.6285,-0.6491,-0.6328,-0.6024,-0.5877,-0.5852,0.0,0.0,-0.6594,-0.6918,-0.7154,-0.7158,-0.7122,-0.7133,-0.736,-0.7476,-0.7243,-0.7477,-0.7509,0.0,-0.6328,-0.6161,-0.5534,0.0,-0.5415,-0.5643,-0.5904,-0.6198,-0.6562,-0.6828,-0.7029,-0.7254,-0.726,-0.732,-0.7425,-0.7408,-0.7298,-0.7044,-0.7107,-0.6911,-0.6449,-0.6074,-0.5687,-0.53,-0.4798,0.0,0.0,0.0,0.0,0.0,0.0,0.0,0.0,0.0,0.0,0.0,0.0,0.0,0.0,0.0,0.0,0.0,0.0,0.0,0.0,0.0,0.0,0.0,0.0,0.0,0.0,0.0,0.0,-0.3699,-0.3807,0.0,-0.331,-0.3351,-0.3335,-0.3158,-0.3358,-0.3465,-0.3362,-0.3574,-0.3781,-0.364,-0.4205,-0.4542,-0.4517,-0.4807,-0.4981,-0.5039,-0.5238,-0.5134,-0.4862,-0.5529,-0.5496,-0.5039,-0.5647,-0.569,-0.5518,-0.5394,-0.5333,-0.521,-0.5303,-0.5339,-0.5417,-0.5561,-0.5807,-0.6052,-0.6052,-0.6132,-0.6192,-0.6334,-0.6183,-0.6028,-0.6257,-0.624,-0.6273,-0.6785,-0.6866,-0.6904,-0.7321,-0.7437,-0.7388,-0.7388,-0.7503,-0.7503,-0.7388,-0.747,-0.7466,-0.6732,-0.6713,-0.6491,-0.5863,-0.5847,-0.6062,-0.6078,-0.6344,-0.6622,-0.6828,-0.6997,-0.7111,-0.7149,-0.7154,-0.7249,-0.7315,-0.7242,-0.7124,-0.7165,-0.693,-0.6714,-0.6478,-0.6143,-0.5736,-0.5212,-0.5109,-0.474,0.0,0.0,0.0,0.0,0.0,0.0,0.0,0.0,0.0,0.0,0.0,0.0,0.0,0.0,0.0,0.0,0.0,0.0,0.0,0.0,0.0,0.0,0.0,0.0,0.0,0.0,-0.4147,-0.3856,-0.4002,-0.3881,-0.3442,-0.3595,-0.3582,-0.3373,-0.3563,-0.3746,-0.3586,-0.3917,-0.3992,-0.3798,-0.4282,-0.4608,-0.4505,-0.4721,-0.4756,-0.4737,-0.4959,-0.4847,-0.4544,-0.5219,-0.5192,-0.4731,-0.539,-0.5432,-0.5251,-0.532,-0.5368,-0.5276,-0.556,-0.5579,-0.5554,-0.5588,-0.5824,-0.6163,-0.6163,-0.627,-0.6236,-0.6241,-0.6228,-0.6276,-0.6417,-0.6353,-0.6435,-0.6805,-0.6822,-0.6794,-0.7253,-0.7317,-0.745,-0.7529,-0.7519,-0.7529,-0.745,-0.7311,-0.7158,-0.6768,-0.6885,-0.6846,-0.6032,-0.623,-0.6535,-0.6364,-0.6687,-0.6893,-0.6975,-0.7084,-0.7154,-0.7154,-0.7154,-0.7138,-0.71,-0.6991,-0.6962,-0.6894,-0.6669,-0.6476,-0.6378,-0.6101,-0.5757,-0.5317,-0.523,-0.4916,-0.4305,0.0,0.0,0.0,0.0,0.0,0.0,0.0,0.0,0.0,0.0,0.0,0.0,0.0,0.0,0.0,0.0,0.0,0.0,0.0,0.0,0.0,0.0,0.0,-0.3664,-0.3959,-0.3953,-0.3641,-0.3785,-0.3784,-0.3346,-0.3491,-0.3619,-0.3679,-0.3684,-0.3711,-0.3771,-0.3831,-0.3864,-0.3867,-0.3978,-0.4136,-0.4324,-0.4198,-0.4357,-0.4926,-0.4813,-0.4879,-0.5142,-0.5345,-0.5335,-0.5135,-0.5132,-0.5178,-0.5042,-0.5042,-0.5001,-0.4926,-0.5364,-0.5594,-0.5524,-0.561,-0.5764,-0.6116,-0.635,-0.6462,-0.6429,-0.6233,-0.6391,-0.6594,-0.627,-0.6418,-0.6634,-0.6517,-0.6579,-0.6717,-0.6975,-0.7143,-0.7194,-0.7439,-0.7529,-0.7445,-0.7199,-0.7138,-0.6862,-0.6363,-0.6834,-0.6911,-0.6146,-0.6475,-0.6717,-0.6399,-0.6711,0.0,-0.6997,-0.7095,-0.7165,-0.7165,-0.7165,-0.7111,-0.7002,-0.6877,-0.6698,-0.6453,-0.6328,-0.6214,-0.6089,-0.5866,-0.5687,-0.5561,-0.5252,-0.5087,-0.5093,0.0,0.0,0.0,0.0,0.0,0.0,0.0,0.0,0.0,0.0,0.0,0.0,0.0,0.0,0.0,0.0,0.0,0.0,0.0,0.0,0.0,-0.3322,-0.3738,-0.436,-0.4545,-0.4581,-0.4395,-0.4189,-0.4023,-0.3649,-0.3459,-0.3393,-0.3448,-0.3453,-0.3355,-0.3286,-0.3427,-0.3451,-0.324,-0.3553,-0.3727,-0.3881,-0.4086,-0.4381,-0.4496,-0.44,-0.4417,-0.4548,-0.4787,-0.4763,-0.4475,-0.4949,-0.5033,-0.474,-0.4996,-0.511,-0.5073,-0.535,-0.5368,-0.5341,-0.5542,-0.5643,-0.5764,-0.5877,-0.5877,-0.5869,-0.6054,-0.6152,-0.6263,-0.6345,-0.6359,-0.629,-0.6504,-0.6574,-0.651,-0.6798,-0.6958,-0.7089,-0.7301,-0.7296,-0.7064,-0.7332,-0.7074,-0.6822,-0.6481,-0.6602,-0.6691,-0.6129,-0.6317,-0.6611,-0.6649,-0.6842,0.0,-0.7252,-0.7345,-0.7421,-0.7421,-0.7339,-0.7236,-0.7116,-0.6921,-0.6698,-0.6453,-0.6328,-0.6214,-0.6089,-0.6024,-0.5985,-0.5857,-0.5372,-0.5268,0.0,0.0,0.0,0.0,0.0,0.0,0.0,0.0,0.0,0.0,0.0,0.0,0.0,0.0,0.0,0.0,0.0,0.0,0.0,0.0,0.0,0.0,-0.3466,-0.3891,-0.4654,-0.4564,-0.4474,-0.4389,-0.4263,-0.3953,-0.369,-0.3492,-0.3288,-0.3193,-0.3196,-0.3218,-0.3015,-0.3271,-0.3284,-0.3056,-0.323,-0.3516,-0.3653,-0.3996,-0.416,-0.427,-0.4322,-0.4333,-0.4308,-0.4431,-0.4414,-0.4253,-0.461,-0.458,-0.4423,-0.4683,-0.4665,0.0,0.0,0.0,0.0,0.0,-0.5279,-0.5279,-0.5279,-0.5399,-0.551,-0.5712,-0.5915,-0.6116,-0.6111,-0.6116,-0.6138,-0.6235,-0.6288,-0.6211,-0.6639,-0.6653,-0.6775,-0.7143,-0.7021,-0.6898,-0.7016,-0.6775,-0.6653,-0.6285,-0.6237,0.0,-0.6009,-0.6287,-0.6443,-0.6503,-0.6778,-0.7031,-0.696,-0.7243,-0.7402,-0.7285,-0.7338,-0.7339,-0.7171,-0.6937,0.0,0.0,0.0,-0.6138,-0.6013,-0.6007,0.0,0.0,0.0,-0.5644,-0.5881,0.0,0.0,0.0,-0.552,-0.5532,0.0,0.0,0.0,0.0,0.0,0.0,0.0,0.0,0.0,0.0,0.0,0.0,0.0,0.0,0.0,0.0,-0.3683,-0.4027,-0.4571,-0.4262,-0.4005,-0.4254,-0.4015,-0.3692,-0.3398,-0.3351,-0.3275,-0.3028,-0.2904,-0.2921,-0.2966,0.0,0.0,0.0,0.0,-0.3284,-0.3498,-0.372,-0.4011,-0.4229,-0.4343,-0.4365,-0.4308,-0.4371,-0.4365,-0.4308,-0.4308,-0.4275,-0.4094,-0.4226,-0.4191,-0.4128,-0.4703,-0.492,-0.5032,-0.4971,-0.494,-0.4933,-0.4933,0.0,0.0,-0.5335,-0.5622,-0.6033,-0.5676,-0.5793,-0.6051,-0.5893,-0.5855,-0.5921,-0.6293,-0.6298,-0.6425,-0.6808,-0.6803,-0.6671,-0.6421,-0.6412,-0.6285,-0.5929,-0.5925,-0.5925,-0.5945,-0.6155,-0.6377,-0.6133,-0.6612,-0.6852,-0.6598,-0.7077,-0.7439,-0.7092,0.0,0.0,-0.7192,-0.6959,-0.6719,-0.6475,-0.6263,-0.6094,-0.5991,-0.5996,-0.5996,-0.5986,-0.5986,-0.6123,-0.6501,-0.6484,-0.662,-0.6974,-0.6191,-0.6163,0.0,0.0,0.0,0.0,0.0,0.0,0.0,0.0,0.0,0.0,0.0,0.0,0.0,0.0,0.0,-0.3327,-0.3628,-0.3805,-0.4061,-0.3942,-0.4093,-0.4342,-0.3881,-0.3515,-0.3506,-0.2985,-0.2616,-0.2648,-0.265,-0.254,-0.232,-0.261,-0.2626,-0.2363,-0.2927,-0.3212,-0.3335,-0.3892,-0.4168,-0.4292,0.0,0.0,-0.3905,-0.4234,-0.4229,-0.3902,-0.4174,-0.4166,-0.3887,-0.4155,-0.4253,-0.4194,-0.452,-0.4842,-0.5039,-0.5025,-0.4984,-0.4933,-0.4933,-0.5179,-0.5418,-0.5403,-0.5632,-0.5989,-0.5863,-0.5863,0.0,-0.5888,-0.5904,-0.5933,-0.6006,-0.6027,-0.6168,-0.6624,-0.6458,-0.6277,-0.6398,-0.6213,-0.5937,-0.6014,-0.5965,-0.5961,-0.6104,-0.6106,-0.6081,-0.612,-0.6417,-0.6682,-0.7075,-0.7266,-0.7443,-0.768,-0.7633,-0.7459,-0.7312,-0.7084,-0.6844,-0.66,-0.654,-0.6507,-0.648,-0.6578,-0.6584,-0.648,-0.648,-0.6442,-0.6465,-0.6377,-0.6463,-0.6825,-0.6746,-0.684,0.0,0.0,0.0,0.0,0.0,0.0,0.0,0.0,0.0,0.0,0.0,-0.2785,-0.3063,0.0,-0.3379,-0.3561,-0.3692,-0.3801,-0.3894,-0.3956,-0.4003,-0.4036,-0.366,-0.3408,-0.303,-0.2757,-0.2512,-0.2294,-0.2313,-0.2215,-0.2129,-0.2296,-0.2306,-0.2155,-0.244,-0.2846,-0.2961,-0.3367,-0.3633,-0.3768,-0.3849,-0.3721,-0.3537,-0.4028,-0.4038,-0.3847,-0.4258,-0.4258,-0.4118,-0.4395,-0.436,-0.4305,-0.4409,-0.458,-0.4588,-0.4588,-0.4545,-0.449,-0.449,-0.4716,-0.5179,-0.5179,-0.5395,-0.5612,-0.5782,-0.5762,-0.5624,-0.5838,-0.5986,-0.6006,-0.6092,-0.6117,-0.6129,-0.643,-0.6277,-0.6117,-0.637,-0.6206,-0.6063,-0.6108,-0.608,-0.6076,-0.6166,-0.6108,-0.6031,-0.6234,-0.6311,-0.6526,-0.6771,-0.7138,-0.7388,-0.7388,-0.7407,-0.7267,-0.698,-0.671,-0.6475,-0.6302,-0.6401,-0.6505,-0.6505,-0.6669,-0.6774,-0.6714,-0.6709,-0.6785,-0.6821,-0.6765,-0.6873,-0.7238,-0.7409,-0.7432,0.0,0.0,0.0,0.0,0.0,0.0,0.0,0.0,-0.2728,-0.3073,-0.3166,-0.321,-0.3477,-0.3501,-0.3605,-0.3777,-0.3845,-0.3902,-0.3976,-0.4055,-0.3973,-0.344,-0.3438,-0.3184,-0.2546,-0.2539,-0.2425,-0.2079,-0.2105,-0.2144,-0.2206,-0.2237,-0.2237,-0.2202,-0.2344,-0.2464,-0.2694,-0.2836,-0.2974,-0.3242,-0.3334,-0.3355,-0.3174,-0.3678,-0.3833,-0.3785,-0.4205,-0.4343,-0.4343,-0.4343,-0.4319,-0.4277,-0.4403,-0.4308,-0.4177,-0.4153,-0.4104,-0.4052,-0.4052,-0.4398,-0.4853,-0.4977,-0.5179,-0.538,-0.5802,-0.5647,-0.5494,-0.5886,-0.6055,-0.6076,-0.6182,-0.6206,-0.621,-0.6227,-0.6219,-0.6206,-0.6206,-0.6194,-0.6186,-0.6202,-0.6194,-0.619,-0.6227,-0.6202,-0.6174,-0.6157,-0.6281,-0.6332,-0.6514,-0.6946,-0.7143,-0.6898,-0.7123,-0.703,-0.6598,-0.6331,-0.6146,-0.6079,-0.6363,-0.646,-0.6588,-0.6776,-0.6872,-0.6872,-0.6872,-0.6978,-0.7186,-0.7163,-0.7258,-0.7475,-0.7762,-0.7736,-0.304,-0.3025,-0.3004,-0.2921,-0.2811,-0.2764,0.0,0.0,-0.2936,-0.3033,-0.3221,-0.3373,-0.3444,-0.361,-0.3779,-0.3905,-0.3932,-0.3978,-0.409,-0.4071,-0.3827,-0.3271,-0.315,-0.3019,-0.2624,-0.2334,-0.2213,-0.214,-0.2147,-0.2176,-0.2237,-0.2268,-0.2259,-0.2202,-0.2503,-0.2764,-0.2696,-0.2999,-0.3289,-0.3289,-0.3381,-0.3258,-0.2938,-0.3268,-0.3408,-0.3505,-0.3785,-0.3925,-0.3925,-0.3925,-0.3923,-0.4053,-0.4282,-0.4387,-0.4354,-0.4245,-0.4166,-0.4115,-0.4503,-0.4628,-0.475,-0.539,-0.5638,-0.5616,-0.5934,-0.5906,-0.5902,-0.5922,-0.6055,-0.6092,-0.6259,-0.63,-0.6321,-0.6402,-0.6362,-0.63,-0.63,-0.6239,-0.6206,-0.6284,-0.6235,-0.6231,-0.6394,-0.6288,-0.6153,-0.608,-0.6051,-0.6135,-0.643,-0.6407,-0.6648,-0.6898,-0.6817,-0.6708,-0.6471,-0.646,-0.6536,-0.6859,-0.6791,-0.6831,-0.7161,-0.7171,-0.7116,-0.7116,-0.7116,-0.7116,-0.7227,-0.7122,-0.7072,-0.7072,-0.7169,-0.7521,-0.3301,-0.3217,-0.3001,0.0,-0.2933,-0.2904,-0.3007,-0.2995,-0.3068,-0.3413,-0.3524,-0.3698,-0.3868,-0.3892,-0.3913,0.0,-0.3995,-0.3978,-0.406,-0.4052,-0.3802,-0.3081,-0.3132,-0.2901,-0.2372,-0.2212,-0.2089,-0.215,-0.2172,-0.2207,-0.2268,-0.23,-0.2288,-0.2229,-0.2378,-0.2501,-0.2454,-0.2605,-0.2622,-0.2643,-0.2695,-0.2711,-0.2556,-0.29,-0.3209,-0.3482,-0.3599,-0.3732,-0.3732,-0.3732,-0.3714,-0.3968,-0.4055,-0.429,-0.4387,-0.43,-0.4232,-0.418,-0.431,-0.4544,-0.4643,-0.5283,-0.5411,-0.5404,-0.601,-0.6002,-0.5886,-0.6062,-0.6206,-0.6235,-0.6362,-0.6398,-0.6406,-0.6443,-0.6423,-0.6398,-0.6398,-0.6366,-0.6349,-0.639,-0.6366,-0.6362,-0.6439,-0.639,-0.6308,-0.6219,-0.6121,-0.6185,-0.6575,-0.6474,-0.6403,-0.6653,-0.6319,-0.6124,-0.6085,-0.599,-0.6045,-0.6147,-0.6408,-0.6606,-0.6764,-0.6995,-0.7187,-0.7258,-0.7192,-0.7187,-0.7258,-0.7143,-0.7154,-0.729,-0.743,-0.7592,-0.3498,-0.3296,0.0,-0.3202,-0.3117,-0.3102,-0.3049,-0.3164,-0.3283,-0.3561,-0.367,-0.3852,-0.3995,-0.4001,-0.4008,-0.4109,-0.4055,-0.4019,-0.4076,-0.3944,-0.368,-0.3048,-0.2976,-0.2757,-0.2109,-0.2097,-0.2114,-0.2176,-0.22,-0.2238,-0.23,-0.2315,-0.2301,-0.2259,-0.2241,-0.2226,-0.2213,-0.2213,-0.2228,-0.2259,-0.2288,-0.2303,-0.2304,-0.2787,-0.3106,-0.3399,-0.3514,-0.35,-0.3354,-0.35,-0.3618,-0.3716,-0.3822,-0.4055,-0.4277,-0.4218,-0.416,-0.4243,-0.4372,-0.4475,-0.4568,-0.5086,-0.5216,-0.5342,-0.5968,-0.5964,-0.5976,-0.6169,-0.6317,-0.6337,-0.6431,-0.6455,-0.6455,-0.6455,-0.6455,-0.6455,-0.6455,-0.6455,-0.6455,-0.6455,-0.6455,-0.6455,-0.6455,-0.6455,-0.6423,-0.6329,-0.6186,-0.6239,-0.6562,-0.6445,-0.6337,-0.6407,-0.6119,-0.5964,-0.6064,-0.5971,-0.5898,-0.5972,-0.6267,-0.6479,-0.6623,-0.6945,-0.7038,-0.7039,-0.715,-0.7263,-0.7273,-0.7296,-0.7345,-0.7513,-0.7567,-0.7647,-0.3513,-0.3493,-0.3416,-0.3209,-0.3421,-0.3615,-0.3308,-0.3447,-0.3559,-0.3501,-0.3684,-0.3837,-0.3779,-0.3913,-0.4052,-0.4115,-0.4123,-0.4142,-0.4202,-0.3899,-0.3479,-0.3095,-0.2839,-0.2467,0.0,-0.2135,-0.2177,-0.2238,-0.2244,-0.227,-0.2331,-0.2308,-0.2292,-0.2289,-0.2232,-0.2215,-0.2244,-0.2244,-0.2259,-0.229,-0.2318,-0.2331,-0.2331,-0.2771,-0.2919,-0.2919,-0.3354,-0.3209,-0.2917,-0.3354,-0.3329,-0.3004,-0.3718,-0.3971,-0.3918,-0.3866,-0.4085,-0.4305,-0.4705,-0.4568,-0.4437,-0.5104,-0.5372,-0.5492,-0.5683,-0.6054,-0.6313,-0.6317,-0.6317,-0.6337,-0.6431,-0.6455,-0.6455,-0.6455,-0.6455,-0.6455,-0.6455,-0.6455,-0.6455,-0.6455,-0.6455,-0.6455,-0.6455,-0.6455,-0.6423,-0.6329,-0.6235,-0.6178,-0.6182,-0.6174,-0.6231,-0.6425,-0.6487,-0.6629,-0.6903,-0.6798,-0.6899,-0.7362,-0.6926,-0.674,-0.7199,-0.6995,-0.6699,-0.6574,-0.7049,-0.7164,-0.7051,-0.728,-0.7513,-0.7519,-0.7513,-0.7508,-0.3773,-0.3639,-0.339,-0.3406,-0.3465,-0.3495,-0.3428,-0.3515,-0.358,-0.3561,-0.3654,-0.3747,-0.3766,-0.385,-0.3965,-0.4104,-0.409,-0.4087,-0.4147,-0.3878,-0.3456,-0.3139,-0.2806,0.0,0.0,0.0,0.0,-0.2211,-0.2234,-0.2255,-0.2275,-0.1872,-0.172,-0.2233,-0.2249,-0.2256,-0.2245,-0.2266,-0.2147,-0.1883,-0.2183,-0.2343,-0.2363,-0.2488,-0.249,-0.251,-0.2635,-0.2624,-0.2478,-0.2624,-0.2763,-0.2895,-0.3158,-0.3567,-0.3973,-0.392,-0.4144,-0.4362,-0.4184,-0.4305,-0.4708,-0.4977,-0.5379,-0.564,-0.5619,-0.5741,-0.6004,-0.6004,-0.5874,-0.5748,-0.6042,-0.6049,-0.6049,-0.6049,-0.6317,-0.6472,-0.6533,-0.6496,-0.6472,-0.6533,-0.6496,-0.6455,-0.6455,-0.6455,-0.6423,-0.6329,-0.6239,-0.6161,-0.6104,-0.6145,-0.6157,-0.6223,-0.6193,-0.6164,-0.626,-0.6293,-0.6224,-0.631,-0.6363,-0.646,-0.6616,-0.6603,-0.6696,-0.6916,-0.6813,-0.7051,-0.752,-0.721,-0.7364,-0.7747,-0.7589,-0.7562,-0.3755,-0.36,-0.3416,-0.3566,-0.3574,-0.3545,-0.3559,-0.3608,-0.3632,-0.357,-0.3602,-0.3651,-0.3668,-0.3722,-0.3828,-0.403,-0.3923,-0.3812,-0.3886,-0.3509,-0.3091,-0.2892,-0.2551,-0.2326,0.0,0.0,0.0,-0.2195,-0.2218,-0.2095,-0.1823,-0.1712,-0.1568,-0.1814,-0.1835,-0.1849,-0.1851,-0.2143,-0.216,-0.1895,-0.2187,-0.2349,-0.2378,-0.2358,-0.2365,-0.2393,-0.2363,-0.2349,-0.2348,-0.2337,-0.2472,-0.2752,-0.2741,-0.3303,-0.3859,-0.3824,-0.406,-0.4422,-0.4108,-0.4341,-0.4577,-0.46,-0.4996,-0.551,-0.5379,-0.5513,-0.5778,-0.5912,-0.5647,-0.5513,-0.5647,-0.5781,-0.5778,-0.5912,-0.6049,-0.6333,-0.6389,-0.6496,-0.6472,-0.6393,-0.6492,-0.6455,-0.6455,-0.6427,-0.6386,-0.6325,-0.6268,-0.6198,-0.6112,-0.6202,-0.6369,-0.6273,-0.6239,-0.6328,-0.626,-0.6324,-0.6246,-0.6146,-0.6172,-0.6292,-0.6257,-0.6314,-0.6446,-0.6673,-0.657,-0.6807,-0.7402,-0.721,-0.7365,-0.7867,-0.7714,-0.7687,-0.3495,-0.3439,-0.3469,-0.364,-0.3728,-0.3752,-0.3692,-0.3722,-0.3709,-0.3529,-0.3537,-0.3553,0.0,0.0,-0.3665,-0.3899,-0.3623,-0.3575,-0.3675,-0.3033,-0.2626,0.0,0.0,0.0,0.0,0.0,0.0,-0.2195,0.0,-0.1937,-0.1261,-0.1826,-0.1838,-0.1143,-0.1132,-0.1138,-0.1313,-0.1875,-0.2308,-0.2333,-0.2333,-0.2348,-0.2376,-0.2378,-0.2394,-0.242,-0.2393,-0.238,-0.2378,-0.2348,-0.2319,-0.2298,-0.2758,-0.3184,-0.3437,-0.3435,-0.3971,-0.4482,-0.4482,-0.4406,-0.4316,-0.4373,-0.4623,-0.4973,-0.5245,-0.5379,-0.5513,-0.5778,-0.5647,-0.5379,-0.5383,-0.5379,-0.5513,-0.5778,-0.5912,-0.5912,-0.5919,-0.6187,-0.6321,-0.6053,-0.6187,-0.6455,-0.6455,-0.6382,-0.6325,-0.6325,-0.6321,-0.6284,-0.6198,-0.6345,-0.6485,-0.6471,-0.6646,-0.6751,-0.6803,-0.6903,-0.6855,-0.6755,-0.6476,-0.6359,-0.6266,-0.6262,-0.6068,-0.5916,-0.6436,-0.6798,-0.6898,-0.7266,-0.7505,-0.7872,-0.7872,-0.7872,-0.3909,-0.3847,-0.3632,-0.3722,-0.3758,-0.3752,-0.3692,-0.3654,-0.3597,-0.3461,-0.3412,-0.3357,0.0,0.0,0.0,-0.373,-0.3699,0.0,-0.368,-0.306,0.0,-0.2588,0.0,-0.2101,-0.2109,-0.2109,0.0,0.0,-0.2221,-0.2088,-0.1936,-0.2133,-0.2152,-0.1975,-0.2006,-0.203,-0.2191,-0.2349,-0.2348,-0.2333,-0.2333,-0.2337,-0.2345,-0.2368,-0.2382,-0.2391,-0.2405,-0.2412,-0.2409,-0.2379,-0.2363,-0.2354,-0.2485,-0.291,-0.348,-0.3445,-0.3829,-0.4482,-0.4482,-0.4541,-0.4708,-0.4726,-0.5124,-0.5644,-0.5379,-0.5513,-0.5778,-0.5912,-0.5647,-0.5513,-0.5647,-0.5647,-0.5383,-0.5513,-0.5781,-0.593,-0.5994,-0.6092,-0.6065,-0.6405,-0.65,-0.6455,-0.6455,-0.6435,-0.6419,-0.6419,-0.6362,-0.6308,-0.6284,-0.6382,-0.6402,-0.6394,-0.6335,-0.6264,-0.6277,-0.6205,-0.6154,-0.6128,-0.6027,-0.6027,-0.6006,-0.6002,-0.6014,-0.628,-0.6137,-0.6503,-0.7266,-0.7143,-0.7388,-0.7872,-0.7872,-0.7872,-0.4234,-0.4144,-0.3889,-0.3834,-0.3828,-0.3771,-0.363,-0.3572,-0.3477,-0.3226,-0.3169,-0.3125,-0.3006,-0.3185,-0.3406,0.0,0.0,0.0,-0.341,-0.307,-0.2678,0.0,-0.2251,0.0,-0.2147,-0.2138,-0.2154,0.0,-0.2223,-0.2223,-0.2221,-0.1853,-0.1581,-0.1275,-0.1889,-0.2363,-0.2523,-0.2378,-0.2371,-0.2353,-0.2339,-0.2346,-0.2373,-0.239,-0.2262,-0.1981,0.0,-0.2436,-0.2421,-0.2391,-0.2371,-0.2357,-0.2485,-0.2771,-0.3203,-0.3592,-0.3971,-0.42,-0.4455,-0.4521,-0.458,-0.4606,-0.4999,-0.5376,-0.5379,-0.5513,-0.5647,-0.5912,-0.5647,-0.5379,-0.5647,-0.5513,-0.5379,-0.5647,-0.5781,-0.5923,-0.5972,-0.608,-0.6199,-0.6521,-0.6353,-0.6317,-0.6455,-0.6455,-0.6455,-0.6455,-0.6411,-0.6378,-0.6378,-0.6386,-0.6345,-0.6215,-0.619,-0.6129,-0.6002,-0.5945,-0.59,-0.5859,-0.5896,-0.59,-0.5859,-0.6018,-0.6158,-0.6403,-0.6407,-0.6653,-0.7388,-0.7266,-0.7388,-0.7872,-0.7872,-0.7899,-0.4548,-0.4416,-0.424,-0.4049,-0.3894,-0.3785,-0.354,-0.3466,-0.3338,-0.2943,-0.2894,-0.2888,-0.2779,-0.2924,-0.3153,-0.3439,0.0,-0.3328,-0.314,-0.2933,-0.2554,-0.2289,-0.229,-0.2166,-0.2198,-0.2176,-0.2187,-0.2247,-0.2226,-0.2223,-0.2249,-0.1425,-0.0718,-0.0,-0.1328,-0.2102,-0.2271,-0.2249,-0.2237,-0.2085,-0.2206,-0.222,-0.2272,-0.2428,-0.1997,-0.1253,-0.2015,-0.2454,-0.2427,-0.2393,-0.2363,-0.2338,-0.2627,-0.2914,-0.305,-0.3727,-0.3961,-0.3909,-0.4269,-0.4352,-0.4316,-0.4368,-0.462,-0.4839,-0.5379,-0.5513,-0.5513,-0.5915,-0.5781,-0.5517,-0.5517,-0.5513,-0.5513,-0.5778,-0.5912,-0.5912,-0.5912,-0.6183,-0.6455,-0.6321,-0.6049,-0.6046,-0.6317,-0.6455,-0.6451,-0.6451,-0.6443,-0.6435,-0.6435,-0.6378,-0.6272,-0.6104,-0.6145,-0.6112,-0.5949,-0.5925,-0.5884,-0.5802,-0.5872,-0.588,-0.5802,-0.6115,-0.6403,-0.6403,-0.6653,-0.7021,-0.7388,-0.7388,-0.7627,-0.7872,-0.7872,-0.7937,-0.5126,-0.473,-0.441,-0.4243,-0.4067,-0.3722,-0.3482,-0.3311,0.0,-0.2856,-0.2766,-0.2717,-0.2646,-0.2902,-0.3191,-0.3395,-0.3324,-0.3325,-0.3528,-0.3039,-0.2658,0.0,-0.2425,-0.2166,-0.2198,-0.2195,0.0,0.0,-0.2278,-0.2278,-0.214,-0.0867,-0.0146,-0.0,-0.0303,-0.0764,-0.1363,-0.1511,-0.151,-0.1358,-0.1341,-0.1642,-0.2272,-0.2297,-0.185,-0.1238,-0.139,0.0,-0.2457,-0.2401,-0.2375,-0.2368,-0.2342,-0.2607,-0.3009,-0.3252,-0.3627,-0.3991,-0.4208,-0.4316,-0.4308,-0.4585,-0.4714,-0.4973,-0.5644,-0.5778,-0.5912,-0.6317,-0.6317,-0.6321,-0.6321,-0.6049,-0.5778,-0.5912,-0.5647,-0.5513,-0.5778,-0.6183,-0.6321,-0.5647,-0.5781,-0.5778,-0.5647,-0.5781,-0.6046,-0.6046,-0.6253,-0.6341,-0.6341,-0.6394,-0.639,-0.628,-0.6219,-0.6141,-0.6039,-0.5961,-0.5912,-0.5896,-0.5908,-0.5908,-0.5896,-0.5908,-0.6162,-0.6403,-0.6403,-0.6771,-0.7388,-0.7388,-0.7627,-0.7872,-0.7872,-0.7937,-0.5328,-0.5147,-0.4913,-0.4596,-0.4236,-0.3821,-0.35,0.0,0.0,-0.2572,-0.2553,-0.257,-0.248,-0.2758,-0.3049,-0.3199,-0.3366,-0.3413,-0.3534,-0.3079,-0.2737,-0.2685,-0.2425,-0.2173,-0.2219,-0.221,-0.2232,-0.2307,-0.23,-0.2297,-0.2313,-0.16,-0.0886,-0.0,0.0,-0.0153,-0.0617,-0.0614,-0.061,-0.0606,-0.0602,-0.075,-0.1201,-0.1975,-0.1681,-0.0611,-0.107,-0.1675,-0.242,-0.239,-0.2369,-0.2353,-0.2484,-0.2749,-0.2856,-0.3381,-0.3753,-0.3839,-0.4192,-0.4308,-0.4308,-0.444,-0.4708,-0.4839,-0.5242,-0.551,-0.5781,-0.6049,-0.6183,-0.6183,-0.6451,-0.6317,-0.6183,-0.5912,-0.5778,-0.5781,-0.6183,-0.6049,-0.5915,-0.5647,-0.551,-0.5376,-0.5379,-0.5513,-0.5647,-0.5647,-0.5882,-0.6121,-0.6121,-0.6293,-0.6398,-0.6259,-0.6251,-0.6215,-0.6129,-0.608,-0.6055,-0.6055,-0.6055,-0.6181,-0.6307,-0.6432,-0.6683,-0.7055,-0.7251,-0.75,-0.7812,-0.7749,-0.7878,-0.8062,-0.8062,-0.8127,-0.5506,-0.5421,-0.5276,-0.4941,-0.4511,-0.4019,-0.36,-0.3194,-0.2706,-0.2324,-0.2365,-0.2447,-0.2368,-0.2619,-0.2886,-0.3044,-0.3275,-0.3331,-0.3398,-0.3111,-0.2809,-0.2668,-0.242,0.0,-0.224,-0.2223,0.0,-0.2326,-0.2312,-0.2311,-0.2188,-0.2342,-0.1785,-0.046,-0.0153,0.0,0.0,0.0,0.0,0.0,0.0,0.0,-0.0,-0.1208,-0.1363,-0.0454,-0.1057,-0.165,-0.2378,-0.2371,-0.2354,-0.2333,-0.2624,-0.2744,-0.2844,-0.3518,-0.3746,-0.3825,-0.4189,-0.4308,-0.4308,-0.4308,-0.444,-0.4708,-0.4839,-0.4977,-0.5379,-0.5647,-0.5778,-0.5915,-0.6317,-0.6317,-0.6317,-0.5912,-0.5778,-0.5915,-0.6183,-0.5915,-0.5513,-0.5644,-0.5228,-0.4958,-0.5111,-0.5235,-0.5228,-0.5242,-0.5513,-0.5778,-0.5778,-0.6183,-0.6265,-0.6122,-0.6284,-0.6288,-0.6215,-0.619,-0.6182,-0.6182,-0.6182,-0.631,-0.6571,-0.6951,-0.7207,-0.7586,-0.7886,-0.8138,-0.8236,-0.8138,-0.8144,-0.8236,-0.8236,-0.8301,-0.5888,-0.5667,-0.5384,-0.523,-0.4548,-0.3947,-0.3718,0.0,-0.2633,-0.2512,-0.2374,-0.2365,-0.2403,-0.2575,-0.2801,-0.3085,-0.2999,-0.2974,-0.3334,-0.2938,-0.2515,-0.2629,0.0,0.0,-0.224,-0.2243,-0.2267,-0.2328,-0.233,-0.2184,-0.175,-0.2214,-0.2393,-0.2123,-0.0766,0.0,0.0,0.0,0.0,0.0,0.0,0.0,-0.0,-0.0152,-0.0909,-0.2119,-0.1496,-0.1637,0.0,-0.2349,-0.2335,-0.2333,-0.2333,-0.2584,-0.2808,-0.3225,-0.3585,-0.391,-0.4174,-0.4308,-0.4308,-0.4308,-0.4308,-0.444,-0.4708,-0.4839,-0.4973,-0.5379,-0.5379,-0.5513,-0.5915,-0.5912,-0.5912,-0.5912,-0.5647,-0.5513,-0.5513,-0.5647,-0.5644,-0.4973,-0.5056,-0.5036,-0.4565,-0.466,-0.4907,-0.483,-0.5245,-0.5379,-0.5379,-0.5781,-0.5908,-0.5893,-0.6093,-0.6313,-0.6304,-0.6227,-0.6182,-0.6182,-0.6182,-0.6182,-0.6182,-0.6567,-0.6956,-0.7207,-0.7576,-0.7837,-0.8236,-0.8225,-0.8225,-0.8236,-0.8236,-0.8301,-0.5794,-0.5754,-0.5628,-0.5456,-0.4953,-0.4393,-0.4018,0.0,-0.2789,-0.2519,-0.2449,-0.2372,-0.2357,-0.2485,-0.2657,-0.2888,-0.279,-0.2754,-0.3093,-0.2731,-0.2367,-0.2547,-0.236,-0.2151,0.0,0.0,-0.2543,-0.259,-0.2468,-0.2187,-0.2041,-0.2198,-0.2234,-0.1683,-0.1069,-0.0462,-0.0,0.0,0.0,0.0,0.0,0.0,0.0,0.0,-0.0895,-0.2223,-0.2064,-0.2058,0.0,-0.2338,-0.2333,-0.2331,-0.2315,-0.2566,-0.3081,-0.3196,-0.3696,-0.4171,-0.4308,-0.4308,-0.4308,-0.4308,-0.4308,-0.4313,-0.4485,-0.447,-0.4583,-0.5027,-0.5008,-0.5111,-0.5513,-0.5376,-0.5242,-0.5513,-0.5513,-0.5379,-0.5379,-0.5513,-0.5379,-0.4839,-0.4687,-0.4678,-0.4303,-0.4423,-0.4548,-0.4437,-0.4842,-0.4977,-0.4977,-0.551,-0.5912,-0.5912,-0.6152,-0.6398,-0.6398,-0.6366,-0.6345,-0.6345,-0.6345,-0.6477,-0.6736,-0.7003,-0.7398,-0.7792,-0.7987,-0.8247,-0.8448,-0.8378,-0.8378,-0.8448,-0.8448,-0.8475,-0.5651,-0.5765,-0.5798,-0.5643,-0.5111,-0.4625,-0.4147,-0.3608,-0.2978,-0.2617,-0.2561,-0.2497,-0.24,-0.2431,-0.2564,-0.273,-0.2544,-0.2507,-0.2812,-0.2373,-0.215,-0.2344,0.0,-0.2106,0.0,-0.2501,-0.269,-0.2716,-0.2461,-0.233,-0.232,-0.2328,-0.2074,-0.1686,-0.1369,-0.0766,-0.0,0.0,0.0,0.0,0.0,0.0,0.0,0.0,-0.0739,-0.2043,-0.2191,-0.2335,0.0,-0.2333,-0.2333,-0.233,-0.2301,-0.2697,-0.3219,-0.3176,-0.3541,-0.4174,-0.4174,-0.4174,-0.4311,-0.4327,-0.4335,-0.4349,-0.4425,-0.4384,-0.4316,-0.4629,-0.4744,-0.4845,-0.5137,-0.4989,-0.4845,-0.5272,-0.5262,-0.5245,-0.5245,-0.5379,-0.5245,-0.4708,-0.4559,-0.442,-0.4305,-0.4292,-0.4286,-0.4305,-0.444,-0.4705,-0.4839,-0.5376,-0.577,-0.5745,-0.6168,-0.6455,-0.6455,-0.6455,-0.6455,-0.6455,-0.6455,-0.6585,-0.6853,-0.7121,-0.7522,-0.7789,-0.7985,-0.8244,-0.8323,-0.8244,-0.8249,-0.8456,-0.8488,-0.8526,-0.5463,-0.5578,-0.5627,-0.5533,-0.5025,-0.4556,-0.431,-0.3688,-0.3054,-0.3025,-0.2805,-0.262,-0.262,-0.2579,-0.255,-0.2673,-0.2313,-0.2091,-0.2349,-0.2033,-0.1795,0.0,-0.1984,-0.2044,-0.2105,-0.2219,-0.229,-0.229,-0.2316,0.0,-0.2293,-0.2318,-0.2361,-0.2423,-0.1666,-0.0919,-0.0,0.0,0.0,0.0,0.0,0.0,0.0,0.0,-0.0443,-0.1314,-0.2043,-0.2335,0.0,-0.2333,-0.2333,-0.233,-0.2301,-0.2555,-0.2799,-0.2764,-0.3135,-0.3768,-0.3768,-0.4037,-0.4316,-0.4379,-0.4398,-0.442,-0.4537,-0.4447,-0.4308,-0.4308,-0.4574,-0.4855,-0.4922,-0.4891,-0.4858,-0.5338,-0.5163,-0.4839,-0.4839,-0.5111,-0.5245,-0.4442,-0.4525,-0.4637,-0.4297,-0.4256,-0.4237,-0.4297,-0.4308,-0.444,-0.4705,-0.5111,-0.5352,-0.5277,-0.6,-0.6455,-0.6455,-0.6455,-0.6455,-0.6455,-0.6455,-0.6455,-0.6455,-0.6853,-0.6982,-0.6987,-0.7388,-0.7526,-0.7526,-0.7526,-0.766,-0.8061,-0.8173,-0.8423,-0.5331,-0.5329,-0.5363,-0.5201,-0.4781,-0.4426,-0.4193,-0.3726,-0.3381,-0.3085,-0.3015,-0.2853,-0.2611,-0.2619,-0.2686,-0.2777,-0.2566,-0.239,-0.2615,-0.236,0.0,-0.2127,-0.2171,-0.2302,0.0,0.0,-0.24,-0.2681,-0.2429,-0.23,-0.2292,-0.2318,-0.2361,-0.2421,-0.2272,-0.1993,-0.1728,-0.1099,-0.0627,0.0,0.0,0.0,-0.0,-0.1046,-0.1478,-0.1314,-0.2042,-0.2334,-0.2333,-0.2333,-0.2322,-0.2301,-0.2271,-0.2381,-0.2762,-0.2726,-0.2972,-0.3362,-0.3768,-0.3902,-0.4047,-0.4242,-0.4398,-0.4412,-0.4488,-0.4471,-0.442,-0.4382,-0.4473,-0.4454,-0.4518,-0.4518,-0.451,-0.4667,-0.4792,-0.4762,-0.4583,-0.4708,-0.4842,-0.4442,-0.4426,-0.442,-0.4305,-0.4292,-0.4286,-0.4305,-0.444,-0.4705,-0.4839,-0.5376,-0.577,-0.5745,-0.6168,-0.6431,-0.6105,-0.6285,-0.6455,-0.6455,-0.6455,-0.6455,-0.6455,-0.6853,-0.7121,-0.7388,-0.7655,-0.8056,-0.8189,-0.8189,-0.8365,-0.8579,-0.8702,-0.8777,-0.5188,-0.5246,-0.5191,-0.4971,-0.4703,-0.4405,-0.4046,-0.3797,-0.3491,-0.3213,-0.3128,-0.3037,-0.2828,-0.2804,-0.2771,-0.2869,-0.2669,-0.2593,-0.2733,-0.2527,0.0,-0.2423,0.0,0.0,0.0,-0.2386,-0.2377,-0.2541,-0.2422,-0.229,-0.229,-0.2318,-0.2356,-0.2405,-0.2406,-0.2436,-0.2496,-0.2028,-0.1401,-0.093,-0.0931,-0.0766,-0.0448,-0.1496,-0.178,-0.1605,-0.2041,-0.2333,0.0,-0.2333,-0.2316,-0.2288,-0.2258,-0.2367,-0.2471,-0.2572,-0.2692,-0.3096,-0.3365,-0.3512,-0.367,-0.4136,-0.4324,-0.4504,-0.454,-0.4504,-0.4444,-0.4409,-0.4371,-0.4352,-0.439,-0.4398,-0.4398,-0.4398,-0.4652,-0.4756,-0.4313,-0.4574,-0.4708,-0.4308,-0.4327,-0.4335,-0.4311,-0.4343,-0.436,-0.4313,-0.4459,-0.4735,-0.498,-0.5376,-0.5767,-0.5871,-0.6297,-0.6285,-0.5803,-0.6269,-0.6455,-0.6455,-0.6455,-0.6455,-0.6455,-0.6719,-0.6853,-0.7125,-0.7522,-0.7789,-0.8056,-0.8365,-0.8606,-0.8767,-0.8799,-0.8997,0.0,-0.5078,-0.506,-0.4864,-0.4727,-0.4437,-0.4009,-0.3736,0.0,-0.3287,-0.3097,-0.3037,-0.3197,-0.3067,-0.2905,-0.2835,-0.2669,-0.256,-0.2647,-0.2669,0.0,0.0,-0.2333,0.0,-0.2234,-0.2218,-0.2223,-0.2279,-0.2285,-0.2285,-0.2288,-0.2315,-0.2343,-0.2373,-0.2375,-0.2405,-0.2469,-0.2472,-0.2457,-0.2275,-0.2484,-0.2144,-0.1317,-0.1347,-0.1641,0.0,-0.2333,-0.2333,-0.2333,-0.2331,-0.2313,-0.2285,-0.2253,-0.2223,-0.2193,-0.2165,-0.2425,-0.2694,-0.2694,-0.2987,-0.33,-0.3769,-0.4282,-0.4665,-0.4665,-0.4545,-0.4412,-0.4412,-0.4409,-0.4403,-0.4403,-0.4403,-0.4403,-0.4398,-0.4623,-0.4714,-0.4308,-0.4574,-0.4708,-0.4308,-0.4357,-0.4379,-0.4324,-0.4409,-0.4444,-0.4335,-0.4368,-0.4658,-0.5272,-0.5396,-0.564,-0.5833,-0.6289,-0.6305,-0.5961,-0.6281,-0.6455,-0.6455,-0.6455,-0.6455,-0.6464,-0.6455,-0.6455,-0.6598,-0.6862,-0.7134,-0.7139,-0.7922,-0.8357,-0.8697,-0.8884,-0.9095,-0.4725,0.0,-0.4629,-0.4467,-0.4178,-0.3971,0.0,-0.3649,0.0,0.0,0.0,-0.3272,-0.3276,-0.3074,-0.3125,-0.3419,-0.3135,-0.3054,-0.3419,-0.3321,0.0,-0.2682,-0.2575,-0.2463,-0.224,-0.2218,-0.2206,-0.2221,-0.2221,-0.2232,-0.2255,-0.2285,-0.2313,-0.2342,-0.2343,-0.2384,-0.2469,-0.2492,-0.2333,-0.1844,-0.2164,-0.2288,-0.2072,-0.2084,-0.2072,-0.2333,-0.2333,-0.2333,-0.2331,-0.2309,-0.2283,-0.2253,-0.2222,-0.2192,-0.2165,-0.2158,-0.229,-0.229,-0.2559,-0.2699,-0.2853,-0.334,-0.3852,-0.4226,-0.4226,-0.4459,-0.4531,-0.4531,-0.4499,-0.4463,-0.4463,-0.4463,-0.4452,-0.4409,-0.4387,-0.4499,-0.4316,-0.4308,-0.444,-0.4308,-0.4357,-0.4392,-0.4379,-0.4436,-0.4474,-0.4444,-0.5011,-0.5438,-0.5556,-0.6106,-0.6379,-0.6497,-0.6651,-0.6656,-0.6493,-0.6521,-0.6455,-0.6455,-0.6455,-0.6484,-0.6558,-0.6492,-0.6619,-0.6961,-0.7641,-0.8093,-0.8454,-0.8713,-0.8938,-0.8991,-0.9193,-0.9253,-0.4474,-0.4624,-0.467,-0.4382,-0.4293,-0.4129,-0.3786,-0.3598,0.0,0.0,0.0,-0.3356,-0.3393,-0.3272,-0.3333,-0.3656,-0.3422,-0.3346,-0.3682,0.0,-0.3295,-0.3271,-0.3006,-0.2882,0.0,-0.2617,-0.2736,-0.2634,-0.2483,-0.2497,-0.2404,-0.2268,-0.2289,-0.2331,-0.2333,-0.2363,-0.2427,-0.2443,-0.229,-0.1972,-0.2289,-0.2416,-0.2358,-0.2372,-0.2361,-0.2333,-0.2333,-0.2333,-0.2331,-0.2303,-0.2273,-0.2243,-0.2211,-0.2181,-0.2155,-0.2155,-0.2163,-0.2173,-0.2429,-0.2571,-0.273,-0.3064,-0.341,-0.3751,-0.3729,-0.4006,-0.4432,-0.4575,-0.4529,-0.4477,-0.445,-0.4444,-0.4428,-0.4371,-0.4357,-0.4346,-0.4313,-0.4308,-0.4316,-0.4343,-0.4398,-0.4436,-0.4436,-0.4507,-0.4548,-0.4491,-0.4929,-0.5222,-0.5331,-0.5887,-0.6306,-0.6446,-0.6585,-0.6725,-0.6725,-0.6635,-0.6578,-0.6578,-0.6578,-0.6602,-0.6651,-0.6607,-0.6739,-0.7199,-0.775,-0.8218,-0.8749,-0.8959,-0.916,-0.9215,-0.9275,-0.9302,-0.4365,-0.4703,-0.4945,-0.4481,-0.4491,-0.4491,-0.3852,-0.3632,0.0,0.0,0.0,0.0,-0.3524,-0.356,0.0,-0.3802,-0.3764,-0.3752,-0.3835,-0.3812,-0.3739,-0.3811,-0.3523,0.0,-0.3336,-0.3273,-0.3261,-0.3338,-0.2896,-0.2774,-0.2847,-0.2399,-0.2273,-0.2331,-0.2333,-0.2345,-0.2371,-0.238,-0.2383,-0.2379,-0.2405,-0.2387,-0.2334,-0.236,-0.2357,-0.2333,-0.2328,0.0,-0.2323,-0.229,-0.2262,-0.2236,-0.2204,-0.2177,-0.2155,-0.2155,-0.2172,-0.2189,-0.2163,-0.2446,-0.2755,-0.2647,-0.2963,-0.3414,-0.3375,-0.3533,-0.3994,-0.4277,-0.4523,-0.4471,-0.4422,-0.4403,-0.4384,-0.4322,-0.4308,-0.4308,-0.4308,-0.4308,-0.4324,-0.4387,-0.4444,-0.4485,-0.4496,-0.4589,-0.463,-0.4526,-0.4556,-0.4712,-0.4941,-0.536,-0.5782,-0.606,-0.6485,-0.6625,-0.6625,-0.6766,-0.6766,-0.6766,-0.6741,-0.6725,-0.6725,-0.6737,-0.6885,-0.7305,-0.772,-0.8048,-0.8581,-0.8871,-0.9209,-0.9302,-0.9302,-0.9302,-0.467,-0.4953,-0.5061,-0.4581,-0.4415,-0.4382,-0.4264,-0.3858,-0.3543,0.0,0.0,0.0,0.0,-0.3679,-0.3816,0.0,0.0,-0.4512,0.0,0.0,-0.4234,-0.3895,0.0,-0.3638,-0.3249,-0.3236,-0.3234,-0.3249,-0.2839,-0.2735,-0.2808,-0.2387,-0.2273,-0.2331,-0.2333,-0.2335,-0.2339,-0.2391,-0.2403,-0.2378,-0.2383,-0.2367,-0.2333,-0.2338,-0.2337,-0.2331,0.0,-0.2297,-0.2293,-0.2237,-0.2211,-0.2204,-0.2173,-0.2159,-0.2155,-0.2155,-0.2158,-0.2161,-0.2157,-0.2174,-0.2338,-0.2342,-0.2504,-0.2952,-0.2945,-0.3229,-0.3516,-0.3516,-0.407,-0.448,-0.4471,-0.4433,-0.4384,-0.4322,-0.4308,-0.4308,-0.4308,-0.4308,-0.4324,-0.4387,-0.4444,-0.4499,-0.4551,-0.4619,-0.4657,-0.464,-0.4936,-0.5084,-0.5219,-0.5505,-0.5791,-0.5791,-0.6228,-0.6376,-0.6376,-0.6805,-0.6949,-0.6949,-0.6807,-0.6725,-0.6725,-0.6794,-0.6977,-0.7407,-0.7827,-0.8164,-0.8703,-0.9136,-0.9285,-0.9302,-0.9302,-0.9302,-0.4501,-0.4768,-0.4942,-0.4724,-0.4717,-0.4784,-0.4594,-0.4173,-0.3793,0.0,0.0,0.0,0.0,0.0,-0.4117,-0.4642,0.0,-0.484,-0.4453,-0.4551,-0.44,0.0,0.0,-0.4037,-0.3768,-0.3768,-0.3768,-0.3768,-0.3499,-0.3269,-0.3361,-0.2767,-0.2518,-0.2621,-0.2446,-0.2301,-0.2333,-0.236,-0.2367,-0.2353,-0.2353,-0.2346,-0.2333,-0.2333,-0.2333,-0.2331,0.0,-0.229,-0.2286,-0.2225,-0.22,-0.2196,-0.2166,-0.2165,-0.2181,-0.2198,-0.2193,-0.2178,-0.2178,-0.2177,-0.2176,-0.2176,-0.2333,-0.2494,-0.2475,-0.2772,-0.3079,-0.3059,-0.3467,-0.388,-0.4159,-0.4118,-0.407,-0.4313,-0.4308,-0.4308,-0.4308,-0.4333,-0.4373,-0.4433,-0.4491,-0.4551,-0.461,-0.4646,-0.4665,-0.4665,-0.481,-0.4956,-0.4956,-0.5247,-0.5538,-0.5538,-0.5974,-0.6413,-0.6413,-0.67,-0.699,-0.699,-0.6913,-0.6868,-0.6868,-0.6905,-0.7073,-0.7217,-0.7648,-0.7954,-0.8145,-0.8729,-0.9013,-0.9018,-0.9163,-0.934,-0.4436,-0.467,-0.4893,-0.4947,-0.5052,-0.5124,-0.4949,-0.455,0.0,0.0,0.0,0.0,0.0,-0.4324,0.0,-0.4886,-0.51,-0.5079,-0.4778,-0.4737,-0.4692,-0.4426,-0.4308,-0.4308,-0.4308,-0.4308,-0.4308,-0.4308,-0.4037,-0.3808,-0.3904,-0.3296,-0.2914,-0.3045,-0.2572,-0.243,-0.2478,-0.2333,-0.2333,-0.2333,-0.2333,-0.233,-0.2323,-0.233,-0.233,-0.2322,-0.2293,-0.2281,-0.2275,-0.2214,-0.2189,-0.2187,-0.2163,-0.2169,-0.2193,-0.2223,-0.2215,-0.2189,-0.2189,-0.2178,-0.2163,-0.2157,-0.2176,-0.2195,-0.2163,-0.246,-0.2634,-0.2608,-0.2873,-0.3147,-0.357,-0.367,-0.3768,-0.4037,-0.4174,-0.4174,-0.4308,-0.4354,-0.4414,-0.4471,-0.4531,-0.4594,-0.4654,-0.4665,-0.4665,-0.4665,-0.4665,-0.4665,-0.4665,-0.4956,-0.5104,-0.525,-0.5832,-0.6264,-0.6559,-0.6845,-0.699,-0.699,-0.699,-0.699,-0.699,-0.699,-0.6998,-0.7023,-0.7456,-0.761,-0.7637,-0.8367,-0.8659,-0.8659,-0.8951,-0.9129,-0.4844,-0.4985,-0.5056,-0.5279,-0.511,-0.5059,-0.5545,-0.5257,0.0,-0.5568,0.0,0.0,0.0,-0.4942,-0.5047,-0.5426,-0.5454,-0.5522,-0.5489,0.0,-0.4949,-0.4824,-0.444,-0.4308,-0.4308,-0.4308,-0.4308,-0.4308,-0.4037,-0.3792,-0.3849,-0.3475,-0.3379,-0.3294,-0.3038,-0.2912,-0.2917,-0.2478,-0.2333,-0.2333,-0.2333,-0.2319,-0.2294,-0.232,-0.2319,-0.2292,-0.2262,-0.2248,-0.2244,-0.2183,-0.2158,-0.2158,-0.2155,-0.2157,-0.2162,-0.2192,-0.2184,-0.2158,-0.2158,-0.2174,-0.2192,-0.2163,-0.2176,-0.2195,-0.2163,-0.2158,-0.2296,-0.2293,-0.2293,-0.2434,-0.3149,-0.3263,-0.3362,-0.3768,-0.3902,-0.3902,-0.4174,-0.4354,-0.4414,-0.4471,-0.4531,-0.4594,-0.4654,-0.4665,-0.4665,-0.4665,-0.4665,-0.4665,-0.4665,-0.4665,-0.481,-0.5104,-0.5538,-0.6116,-0.6845,-0.699,-0.699,-0.699,-0.699,-0.699,-0.699,-0.699,-0.7031,-0.7113,-0.7556,-0.7747,-0.784,-0.829,-0.8436,-0.8436,-0.8436,-0.8388,-0.4682,-0.4844,-0.504,-0.5127,-0.5261,0.0,0.0,-0.5496,-0.5334,-0.5753,-0.5438,0.0,0.0,0.0,-0.5239,-0.5545,-0.5622,-0.563,-0.5552,-0.5511,-0.5195,-0.4769,-0.4684,-0.4574,-0.4308,-0.4308,-0.4308,-0.4308,-0.4174,-0.4062,-0.4118,-0.3866,-0.3762,-0.3672,-0.3122,-0.2845,-0.2845,-0.242,-0.2278,-0.2278,-0.2297,-0.2292,-0.2263,-0.2274,-0.2273,-0.226,-0.223,-0.2217,-0.2214,-0.2172,-0.2155,-0.2157,-0.2176,-0.2195,-0.221,-0.2203,-0.2217,-0.2232,-0.2174,-0.2174,-0.2195,-0.2165,-0.2162,-0.217,-0.2158,-0.2168,-0.2178,-0.2159,-0.2169,-0.2317,-0.2852,-0.2974,-0.2961,-0.3365,-0.3362,-0.3506,-0.3673,-0.3858,-0.4053,-0.4107,-0.4445,-0.4638,-0.466,-0.4665,-0.4665,-0.4665,-0.4665,-0.4665,-0.4665,-0.4665,-0.481,-0.5104,-0.5829,-0.641,-0.699,-0.699,-0.699,-0.699,-0.699,-0.699,-0.699,-0.699,-0.7031,-0.7125,-0.7273,-0.7319,-0.7561,-0.7862,-0.8008,-0.8008,-0.8615,-0.8775,-0.4705,-0.4961,-0.5134,-0.5129,-0.5488,-0.5891,-0.6067,-0.5904,-0.5872,-0.6027,-0.5779,-0.543,-0.5272,0.0,0.0,0.0,-0.5667,-0.5654,-0.564,-0.562,-0.5433,-0.4968,-0.492,-0.4699,-0.4414,-0.4297,-0.4308,-0.4308,-0.4308,-0.4324,-0.4368,-0.4113,-0.4001,-0.4041,-0.3497,-0.3083,-0.2943,-0.2524,-0.238,-0.2232,-0.2252,-0.2251,-0.2232,-0.2241,-0.224,-0.223,-0.2208,-0.22,-0.2198,-0.2168,-0.2155,-0.2158,-0.2188,-0.2207,-0.2215,-0.2204,-0.2221,-0.2238,-0.2176,-0.2174,-0.2195,-0.2165,-0.2161,-0.2168,-0.2158,-0.2169,-0.2181,-0.2161,-0.217,-0.2317,-0.2431,-0.2559,-0.2694,-0.2961,-0.3105,-0.3123,-0.3289,-0.3484,-0.382,-0.3856,-0.4047,-0.4374,-0.4374,-0.4374,-0.4517,-0.4517,-0.4665,-0.4665,-0.4665,-0.4665,-0.481,-0.5392,-0.5977,-0.6555,-0.699,-0.699,-0.7003,-0.6881,-0.7003,-0.699,-0.699,-0.699,-0.7047,-0.7166,-0.717,-0.7227,-0.7346,-0.7646,-0.7646,-0.7646,-0.826,-0.8583,-0.5188,-0.5329,-0.55,-0.5536,-0.5718,-0.607,-0.6486,-0.6622,-0.6653,-0.6791,-0.626,-0.5599,-0.5477,-0.5308,0.0,-0.5602,-0.572,-0.5843,-0.6027,-0.5747,-0.554,-0.554,-0.5152,-0.4815,-0.475,-0.4406,-0.4308,-0.4308,-0.4308,-0.4308,-0.4308,-0.4365,-0.4398,-0.4398,-0.4038,-0.3785,-0.3363,-0.2943,-0.2645,-0.22,-0.22,-0.22,-0.22,-0.223,-0.2228,-0.22,-0.22,-0.22,-0.2198,-0.2168,-0.2155,-0.2158,-0.2188,-0.2181,-0.2159,-0.2188,-0.2181,-0.2155,-0.2155,-0.2174,-0.2195,-0.2165,-0.2174,-0.2193,-0.2163,-0.2155,-0.2155,-0.2155,-0.2155,-0.2155,-0.2155,-0.2155,-0.229,-0.2559,-0.2723,-0.275,-0.316,-0.3369,-0.3432,-0.3432,-0.3469,-0.35,-0.35,-0.3789,-0.408,-0.408,-0.4371,-0.4665,-0.4665,-0.4665,-0.4956,-0.568,-0.6119,-0.6555,-0.699,-0.699,-0.6881,-0.6522,-0.6747,-0.699,-0.699,-0.699,-0.7076,-0.726,-0.7264,-0.735,-0.7525,-0.7525,-0.7525,-0.7525,-0.7525,-0.7476,-0.4931,-0.5237,0.0,-0.5799,-0.6201,0.0,0.0,-0.6978,0.0,0.0,-0.6425,-0.5955,-0.5573,0.0,0.0,-0.5716,-0.5761,-0.5823,-0.5941,-0.591,-0.5839,-0.5582,-0.5419,-0.5236,-0.4741,-0.4631,-0.4528,-0.4305,-0.4308,-0.4308,-0.4308,-0.4365,-0.4379,-0.4335,-0.4118,-0.3854,-0.3679,-0.2999,-0.2719,-0.2843,-0.2438,-0.2169,-0.2169,-0.2177,-0.2177,-0.2169,-0.2169,-0.2169,-0.2168,-0.2158,-0.2155,-0.2155,-0.2165,-0.2176,-0.2185,-0.2173,-0.2189,-0.2213,-0.217,-0.2174,-0.2195,-0.2165,-0.2161,-0.2166,-0.2158,-0.2155,-0.2155,-0.2155,-0.217,-0.2187,-0.2187,-0.2187,-0.2181,-0.2294,-0.2332,-0.2371,-0.251,-0.2827,-0.3011,-0.304,-0.3346,-0.35,-0.35,-0.3646,-0.3791,-0.408,-0.4226,-0.4371,-0.4665,-0.4956,-0.5101,-0.5392,-0.5977,-0.6413,-0.6555,-0.6608,-0.6651,-0.6526,-0.636,-0.6349,-0.6639,-0.6877,-0.7076,-0.726,-0.7264,-0.735,-0.7525,-0.7525,-0.7525,-0.7525,-0.7842,-0.7985,-0.5339,-0.5683,0.0,-0.6116,-0.662,-0.7056,-0.7482,0.0,0.0,0.0,-0.6451,-0.6077,-0.57,-0.5667,0.0,-0.5765,-0.581,-0.5855,-0.5908,-0.5994,-0.5914,-0.5624,-0.5601,-0.5433,-0.5092,-0.4991,-0.4772,-0.4568,-0.4551,-0.4417,-0.4305,-0.4319,-0.4322,-0.4308,-0.4208,-0.3937,-0.3768,-0.3365,-0.3096,-0.3228,-0.2827,-0.2558,-0.2425,-0.229,-0.2155,-0.2155,-0.2155,-0.2155,-0.2155,-0.2155,-0.2155,-0.2155,-0.2155,-0.2166,-0.218,-0.2161,-0.2177,-0.2204,-0.2168,-0.2174,-0.2196,-0.2178,-0.2173,-0.2173,-0.2173,-0.2173,-0.217,-0.2158,-0.2177,-0.22,-0.22,-0.2208,-0.2214,-0.2195,-0.2219,-0.2248,-0.226,-0.2429,-0.2599,-0.2621,-0.2917,-0.3068,-0.3084,-0.322,-0.336,-0.3669,-0.3948,-0.4226,-0.4665,-0.481,-0.511,-0.5284,-0.57,-0.5988,-0.6166,-0.6209,-0.6248,-0.6127,-0.5982,-0.5999,-0.6026,-0.6518,-0.6833,-0.7157,-0.7313,-0.7382,-0.7525,-0.7525,-0.7525,-0.7525,-0.7842,-0.7998,-0.5996,-0.6348,0.0,-0.6467,-0.6901,0.0,-0.7646,-0.7448,-0.7245,-0.7001,0.0,-0.6173,-0.5898,-0.5725,-0.5696,-0.579,-0.5867,-0.5921,-0.5929,-0.5994,-0.601,-0.5925,-0.569,-0.5661,-0.554,-0.5346,-0.5155,-0.4827,-0.4772,-0.4631,-0.4423,-0.4243,-0.424,-0.4423,-0.4297,-0.4163,-0.3895,-0.3761,-0.3629,-0.3362,-0.3228,-0.3096,-0.2694,-0.2425,-0.229,-0.2155,-0.2155,-0.2153,-0.215,-0.215,-0.2148,-0.2147,-0.215,-0.215,-0.2151,-0.2154,-0.2155,-0.2155,-0.2155,-0.2173,-0.2196,-0.2196,-0.2196,-0.2196,-0.2199,-0.22,-0.2193,-0.2166,-0.2181,-0.2204,-0.2204,-0.2225,-0.2247,-0.2252,-0.2253,-0.226,-0.2285,-0.2313,-0.2333,-0.2333,-0.2333,-0.2342,-0.2369,-0.2648,-0.2934,-0.2973,-0.3684,-0.4241,-0.4535,-0.4681,-0.4847,-0.52,-0.5296,-0.543,-0.5796,-0.5796,-0.5674,-0.544,-0.5745,-0.5777,-0.5391,-0.6173,-0.6616,-0.6777,-0.7237,-0.7435,-0.7525,-0.7525,-0.7525,-0.7525,-0.7525,-0.7525,-0.5569,-0.6249,0.0,0.0,-0.72,-0.7696,-0.7619,-0.7514,-0.7491,-0.7362,-0.6987,-0.6719,-0.6616,-0.6481,-0.625,-0.635,-0.6319,-0.6188,-0.6014,-0.5978,-0.5941,-0.5921,-0.589,-0.5855,-0.5665,-0.5558,-0.5339,-0.5152,-0.5092,-0.5056,-0.4943,-0.4723,-0.4726,-0.4943,-0.4473,-0.4369,-0.4502,-0.397,-0.386,-0.4037,-0.3497,-0.3228,-0.3094,-0.2694,-0.2425,-0.2155,-0.2155,-0.2142,-0.2119,-0.2119,-0.2105,-0.2086,-0.2109,-0.2119,-0.2121,-0.2146,-0.2155,-0.2155,-0.2155,-0.2159,-0.2165,-0.2165,-0.2165,-0.2169,-0.2192,-0.22,-0.2199,-0.2192,-0.2213,-0.2236,-0.2236,-0.224,-0.2256,-0.2303,-0.2313,-0.2309,-0.2294,-0.2313,-0.2333,-0.2333,-0.2333,-0.2335,-0.2342,-0.2357,-0.2676,-0.3012,-0.361,-0.4204,-0.4354,-0.4657,-0.4812,-0.4823,-0.5066,-0.5351,-0.5419,-0.5525,-0.5373,-0.544,-0.5247,-0.5124,-0.5086,-0.6077,-0.6675,-0.6777,-0.7237,-0.7435,-0.7525,-0.7525,-0.7525,-0.7525,-0.7525,-0.7525,-0.5898,0.0,0.0,-0.7244,0.0,-0.7685,-0.7578,-0.7698,-0.7801,-0.7617,-0.7388,-0.7143,-0.6898,-0.6775,-0.6671,-0.6722,-0.6685,-0.6548,-0.6478,-0.6315,-0.6162,-0.6162,-0.6081,-0.5898,-0.5859,-0.5739,-0.5646,-0.5469,-0.5401,-0.5245,-0.5151,-0.4901,-0.4901,-0.5151,-0.4677,-0.4449,-0.4744,-0.4188,-0.4071,-0.4264,-0.3836,-0.3428,-0.3167,-0.2658,-0.2275,-0.2153,-0.2124,-0.211,-0.2108,-0.2094,-0.2087,-0.2087,-0.2104,-0.2119,-0.2133,-0.2148,-0.2155,-0.2155,-0.2155,-0.2163,-0.2176,-0.2176,-0.2176,-0.218,-0.2195,-0.22,-0.22,-0.22,-0.2222,-0.2249,-0.2263,-0.2267,-0.2278,-0.2322,-0.2323,-0.2316,-0.233,-0.2333,-0.2337,-0.2352,-0.2354,-0.2358,-0.2373,-0.2402,-0.2574,-0.2878,-0.3482,-0.3935,-0.4238,-0.4542,-0.4856,-0.4886,-0.4985,-0.5109,-0.5144,-0.5115,-0.5098,-0.5101,-0.4948,-0.4839,-0.4932,-0.567,-0.6142,-0.6217,-0.6682,-0.6855,-0.69,-0.69,-0.69,-0.69,-0.69,-0.7056,-0.6241,-0.6643,-0.6893,-0.7469,-0.7505,0.0,-0.7606,-0.7725,-0.7818,-0.7839,-0.7617,-0.7388,-0.7143,-0.7021,-0.703,-0.7045,-0.7035,-0.703,-0.6922,-0.6662,-0.6403,-0.6403,-0.6175,-0.597,-0.6047,-0.6055,-0.5958,-0.5646,-0.5701,-0.5556,-0.5238,-0.5192,-0.5189,-0.5241,-0.4875,-0.4652,-0.4708,-0.4265,-0.4139,-0.4202,-0.402,-0.3739,-0.3099,-0.2475,-0.211,-0.2136,-0.2086,-0.2075,-0.2091,-0.2067,-0.2068,-0.2087,-0.2097,-0.2113,-0.2133,-0.2148,-0.2151,-0.2147,-0.2153,-0.2172,-0.2192,-0.2192,-0.2192,-0.2193,-0.2199,-0.22,-0.22,-0.2063,-0.2083,-0.1969,-0.1992,-0.2143,-0.2154,-0.2326,-0.2315,-0.2313,-0.2367,-0.2358,-0.2348,-0.2373,-0.2378,-0.239,-0.2425,-0.2453,-0.2616,-0.2901,-0.3353,-0.3807,-0.4114,-0.4571,-0.4897,-0.4946,-0.4897,-0.4867,-0.4875,-0.4848,-0.4812,-0.4774,-0.4798,-0.4842,-0.4902,-0.5219,-0.5563,-0.5633,-0.6111,-0.6275,-0.6275,-0.6275,-0.6275,-0.6275,-0.6275,-0.6587,-0.574,0.0,-0.6605,0.0,-0.7247,-0.7116,0.0,0.0,-0.7595,0.0,-0.7564,-0.7505,-0.775,-0.7505,-0.7296,-0.7396,-0.7326,-0.7296,-0.7017,-0.6955,-0.6775,-0.6403,-0.6354,-0.629,-0.6051,-0.6055,-0.5934,-0.5942,-0.5862,-0.5818,-0.583,-0.5515,-0.5519,-0.583,-0.49,-0.4684,-0.4943,-0.4302,-0.4076,-0.4136,-0.3871,-0.3482,-0.3097,-0.268,-0.2303,-0.2075,-0.2067,-0.2052,-0.203,-0.2026,-0.2012,-0.2,-0.205,-0.2056,-0.2046,-0.2125,-0.2138,-0.2251,-0.2146,-0.2158,-0.2161,-0.2161,-0.2161,-0.2165,-0.2192,-0.22,-0.2063,-0.1512,-0.1388,-0.1263,-0.1265,-0.1419,-0.1723,-0.218,-0.233,-0.2337,-0.2371,-0.2375,-0.2373,-0.2378,-0.2378,-0.2397,-0.2454,-0.2466,-0.2477,-0.2499,-0.3283,-0.3749,-0.3905,-0.453,-0.5,-0.5008,-0.4959,-0.4946,-0.4995,-0.4856,-0.4788,-0.4831,-0.4741,-0.4717,-0.4777,-0.4828,-0.4886,-0.4946,-0.5929,-0.6275,-0.6275,-0.6275,-0.6275,-0.6275,-0.6275,-0.6587,-0.6096,-0.6376,-0.6709,0.0,-0.7247,-0.7143,-0.7383,-0.7535,-0.7638,-0.7693,-0.7669,-0.775,-0.7872,-0.775,-0.7643,-0.7696,-0.7659,-0.7643,-0.7573,-0.7291,-0.7143,-0.7016,-0.669,-0.6345,-0.6222,-0.6102,-0.5978,-0.5978,-0.569,-0.5667,-0.5667,-0.5335,-0.5215,-0.5306,-0.4716,-0.4502,-0.4665,-0.4253,-0.3875,-0.3776,-0.3426,-0.3044,-0.277,-0.2396,-0.2162,-0.2063,-0.203,-0.2016,-0.2018,-0.2001,-0.1997,-0.2003,-0.2029,-0.2041,-0.205,-0.2108,-0.2121,-0.2113,-0.2144,-0.2155,-0.2155,-0.2155,-0.2155,-0.2157,-0.217,-0.1903,-0.15,-0.0692,-0.0558,-0.0563,-0.0429,-0.0865,-0.1449,-0.2186,-0.2346,-0.2367,-0.2397,-0.2376,-0.2363,-0.2397,-0.2403,-0.2423,-0.2484,-0.2495,-0.2499,-0.2512,-0.3299,-0.3768,-0.3768,-0.4552,-0.5022,-0.5022,-0.497,-0.4932,-0.4924,-0.482,-0.4752,-0.4744,-0.4725,-0.4741,-0.4804,-0.4864,-0.4924,-0.4984,-0.5321,-0.5648,-0.5648,-0.5648,-0.5648,-0.5648,-0.5648,-0.5805,-0.616,-0.6388,-0.659,-0.6975,-0.7124,-0.7089,-0.7366,-0.7519,-0.7627,-0.7687,-0.7769,-0.7839,-0.7867,-0.7872,-0.7872,-0.7872,-0.7872,-0.7872,-0.7872,-0.7627,-0.7505,-0.7388,-0.7016,-0.6526,-0.6403,-0.6162,-0.5916,-0.5794,-0.5544,-0.5421,-0.5298,-0.5056,-0.4933,-0.4933,-0.4564,-0.4462,-0.4514,-0.397,-0.3702,-0.3455,-0.3122,-0.2868,-0.2467,-0.2237,-0.2138,-0.2039,-0.1996,-0.1989,-0.2007,-0.1985,-0.1989,-0.2008,-0.2016,-0.2029,-0.2046,-0.2083,-0.2093,-0.2091,-0.2129,-0.2143,-0.2144,-0.2153,-0.2155,-0.2155,-0.2155,-0.175,-0.0947,-0.0276,0.0,-0.0,-0.0287,-0.0724,-0.1454,-0.2188,-0.2352,-0.2378,-0.2416,-0.2394,-0.238,-0.2427,-0.2435,-0.2451,-0.2506,-0.2514,-0.2514,-0.2671,-0.314,-0.3764,-0.391,-0.4376,-0.4844,-0.5,-0.4962,-0.4918,-0.4872,-0.4812,-0.4752,-0.4692,-0.473,-0.4777,-0.482,-0.4897,-0.4957,-0.4997,-0.5014,-0.5022,-0.5022,-0.5022,-0.5014,-0.5,-0.5014,-0.5327,-0.5255,-0.5536,-0.5829,-0.6222,-0.648,-0.6741,-0.7095,-0.7269,-0.7421,-0.7655,-0.7703,-0.7741,-0.785,-0.7872,-0.7872,-0.7872,-0.7872,-0.7872,-0.7872,-0.7872,-0.775,-0.7383,-0.7383,-0.7138,-0.6403,-0.6403,-0.6158,-0.5421,-0.5421,-0.5298,-0.4933,-0.4933,-0.4933,-0.4933,-0.4564,-0.4441,-0.4444,-0.3825,-0.3455,-0.3455,-0.3211,-0.2839,-0.2466,-0.2431,-0.2195,-0.1981,-0.1978,-0.1977,-0.1978,-0.1977,-0.1977,-0.1981,-0.2008,-0.2003,-0.1988,-0.2045,-0.2048,-0.2031,-0.2091,-0.2244,-0.2248,-0.2146,-0.2155,-0.2155,-0.2155,-0.175,-0.0943,-0.027,0.0,-0.0138,-0.0981,-0.1136,-0.1438,-0.2183,-0.2335,-0.2352,-0.241,-0.2444,-0.2462,-0.2466,-0.2466,-0.2477,-0.2508,-0.2514,-0.2671,-0.2983,-0.3139,-0.3439,-0.4174,-0.4321,-0.4478,-0.494,-0.4937,-0.4935,-0.4932,-0.4875,-0.4815,-0.4755,-0.4752,-0.4758,-0.476,-0.4875,-0.4937,-0.494,-0.4995,-0.5022,-0.5022,-0.5022,-0.4995,-0.4943,-0.4995,-0.5459,0.0,-0.5647,-0.5739,-0.6088,-0.6412,-0.6765,-0.6763,-0.7084,-0.7361,-0.7448,-0.7529,-0.7595,-0.7638,-0.7769,-0.7872,-0.7872,-0.7812,-0.7763,-0.7763,-0.7573,-0.7313,-0.7266,-0.6914,-0.6575,-0.6399,-0.6158,-0.5912,-0.5421,-0.5176,-0.4933,-0.4564,-0.4318,-0.4318,-0.4318,-0.4195,-0.4071,-0.4071,-0.3702,-0.3332,-0.3209,-0.2837,-0.2467,-0.2222,-0.221,-0.2089,-0.1977,-0.1977,-0.1977,-0.1977,-0.1977,-0.1977,-0.1978,-0.1988,-0.1996,-0.2008,-0.2049,-0.1811,-0.1431,-0.1593,-0.187,-0.214,-0.2151,-0.2155,-0.2155,-0.2155,-0.2019,-0.1487,-0.0275,0.0,-0.014,-0.1002,-0.1156,-0.1451,-0.2186,-0.2348,-0.2368,-0.239,-0.2433,-0.2463,-0.2443,-0.2455,-0.2473,-0.2484,-0.2502,-0.2507,-0.2643,-0.2969,-0.3127,-0.3554,-0.3702,-0.3997,-0.4119,-0.4114,-0.4114,-0.4421,-0.4369,-0.4494,-0.4812,-0.4812,-0.4831,-0.4869,-0.4948,-0.4989,-0.4989,-0.5011,-0.5022,-0.5022,-0.5022,-0.5011,-0.4992,-0.5011,-0.5324,-0.5474,0.0,0.0,-0.5987,-0.6305,-0.6537,-0.6855,-0.7,-0.7205,-0.7409,-0.7486,-0.7541,-0.7502,-0.7649,-0.7752,-0.7752,-0.7687,-0.7655,-0.7573,-0.7272,-0.7143,-0.714,-0.6788,-0.644,-0.635,-0.6141,-0.5782,-0.538,-0.4916,-0.4687,-0.4438,-0.4071,-0.3951,-0.3951,-0.3951,-0.3828,-0.3828,-0.3455,-0.3209,-0.2837,-0.2467,-0.2222,-0.1977,-0.1966,-0.1967,-0.1975,-0.1966,-0.1967,-0.1977,-0.1977,-0.1977,-0.1977,-0.1977,-0.1994,-0.2022,-0.2042,-0.168,-0.1311,-0.1064,-0.1471,-0.2142,-0.2151,-0.2155,-0.2155,-0.2155,-0.2162,-0.2042,-0.0971,-0.0419,-0.0141,-0.1009,-0.1455,-0.1752,-0.2188,-0.2356,-0.2375,-0.2365,-0.2418,-0.2463,-0.2443,-0.2463,-0.2481,-0.247,-0.2485,-0.2489,-0.2612,-0.2779,-0.2935,-0.3206,-0.3353,-0.3491,-0.3614,-0.3623,-0.3784,-0.4086,-0.4057,-0.4202,-0.454,-0.4694,-0.4872,-0.4935,-0.4989,-0.5022,-0.5022,-0.5022,-0.5022,-0.5022,-0.5003,-0.4992,-0.4992,-0.5148,-0.5471,0.0,0.0,0.0,-0.5895,-0.5872,-0.6048,-0.7131,-0.7084,-0.6907,-0.7533,-0.7567,-0.7556,-0.747,-0.7508,-0.7508,-0.7508,-0.7508,-0.7439,-0.7194,-0.7204,-0.713,-0.6884,-0.6893,-0.6733,-0.627,-0.5985,-0.5758,-0.5305,-0.4767,-0.4438,-0.4438,-0.4071,-0.3951,-0.3951,-0.3951,-0.3828,-0.3455,-0.3209,-0.2837,-0.2467,-0.2222,-0.1977,-0.1975,-0.1945,-0.1948,-0.1975,-0.1945,-0.1949,-0.1977,-0.1977,-0.1977,-0.1977,-0.1977,-0.1994,-0.2022,-0.2023,-0.1915,-0.1813,-0.0394,-0.0923,-0.2116,-0.2146,-0.2155,-0.2154,-0.2155,-0.2176,-0.22,-0.2202,-0.1111,-0.0282,-0.0999,-0.1735,-0.2335,-0.2334,-0.2356,-0.2369,-0.2339,-0.2403,-0.2466,-0.2467,-0.2491,-0.2502,-0.2473,-0.2467,-0.2612,-0.3035,-0.2725,-0.2714,-0.3425,-0.327,-0.3122,-0.3567,-0.3604,-0.3631,-0.3631,-0.3935,-0.424,-0.4242,-0.4545,-0.4875,-0.4937,-0.4992,-0.5022,-0.5022,-0.5022,-0.5022,-0.5022,-0.4965,-0.494,-0.494,-0.5399,-0.6052,-0.5261,0.0,0.0,0.0,0.0,0.0,-0.5976,-0.6241,-0.6492,-0.7032,-0.7006,-0.7,-0.7307,-0.7312,-0.7258,-0.7258,-0.7328,-0.7311,-0.7434,-0.691,-0.6696,-0.6765,-0.6422,-0.6077,-0.5998,-0.5778,-0.5536,-0.5388,-0.4797,-0.4438,-0.4438,-0.4071,-0.3951,-0.3951,-0.3951,-0.3828,-0.3828,-0.3209,-0.296,-0.2837,-0.2222,-0.1977,-0.1977,-0.1967,-0.1969,-0.1977,-0.1476,-0.123,-0.1235,-0.1235,-0.1235,-0.1235,-0.1235,-0.1621,-0.2024,-0.2046,-0.1425,-0.0525,-0.0133,-0.0268,-0.0803,-0.1882,-0.1885,-0.1481,-0.2019,-0.2176,-0.1929,-0.0974,-0.1127,-0.1571,-0.1302,-0.1746,-0.2334,-0.2333,-0.2339,-0.2343,-0.2334,-0.2369,-0.241,-0.2432,-0.2443,-0.2446,-0.2438,-0.2436,-0.2425,-0.2545,-0.241,-0.2413,-0.2681,-0.2676,-0.2517,-0.2641,-0.2668,-0.2849,-0.3177,-0.3332,-0.3664,-0.4347,-0.4473,-0.4627,-0.4995,-0.5011,-0.5022,-0.5022,-0.5022,-0.5022,-0.5022,-0.5006,-0.4997,-0.4997,-0.5777,-0.641,0.0,0.0,0.0,0.0,0.0,0.0,-0.6233,-0.6275,-0.6444,-0.7119,-0.7032,-0.684,-0.7227,-0.7243,-0.71,-0.7149,-0.7214,-0.7323,-0.7264,-0.6803,-0.65,-0.6543,-0.6198,-0.5843,-0.5859,-0.5525,-0.5406,-0.5373,-0.4913,-0.4564,-0.4438,-0.4071,-0.3951,-0.3951,-0.3951,-0.3815,-0.3669,-0.3198,-0.2952,-0.2688,-0.2216,-0.1977,-0.1977,-0.1977,-0.1977,-0.1977,-0.1235,-0.0864,-0.0617,-0.0617,-0.0617,-0.0617,-0.0617,-0.0873,-0.1139,-0.1157,-0.0652,0.0,0.0,0.0,-0.0135,-0.0943,-0.1346,-0.1483,-0.1356,-0.1234,-0.1112,-0.0282,-0.1143,-0.2166,-0.1736,-0.1889,-0.233,-0.2318,-0.2324,-0.2333,-0.2333,-0.2346,-0.2368,-0.2399,-0.2414,-0.242,-0.2406,-0.2405,-0.2394,-0.2364,-0.2375,-0.2379,-0.2361,-0.236,-0.2352,-0.2334,-0.2372,-0.2555,-0.2725,-0.2893,-0.3233,-0.3764,-0.4192,-0.4495,-0.4706,-0.4865,-0.5022,-0.5022,-0.5022,-0.5022,-0.5022,-0.4997,-0.4984,-0.5295,-0.5945,-0.6587,0.0,0.0,0.0,0.0,-0.591,0.0,-0.7021,-0.6794,-0.6653,-0.7496,-0.7232,-0.7015,-0.7192,-0.7135,-0.6959,-0.7056,-0.7122,-0.7124,-0.7006,-0.6764,-0.6621,-0.6481,-0.6141,-0.5872,-0.579,-0.5616,-0.5391,-0.5316,-0.514,-0.4807,-0.4429,-0.406,-0.3937,-0.3929,-0.3929,-0.3783,-0.3367,-0.3176,-0.2808,-0.2404,-0.2081,-0.1975,-0.1971,-0.1975,-0.1977,-0.1977,-0.1235,-0.0617,0.0,0.0,0.0,0.0,0.0,0.0,0.0,0.0,0.0,0.0,0.0,0.0,0.0,0.0,-0.0943,-0.1758,-0.041,0.0,0.0,0.0,-0.1011,-0.203,-0.2154,-0.2309,-0.2322,-0.2297,-0.2312,-0.2333,-0.2333,-0.2333,-0.2341,-0.2368,-0.2395,-0.2406,-0.2383,-0.2375,-0.2364,-0.2337,-0.2333,-0.2333,-0.2333,-0.2333,-0.2333,-0.2333,-0.2382,-0.2416,-0.2423,-0.2754,-0.3098,-0.3137,-0.3886,-0.4347,-0.4395,-0.4709,-0.5022,-0.5022,-0.5014,-0.5014,-0.5022,-0.497,-0.51,-0.5563,-0.6088,-0.6431,0.0,0.0,0.0,0.0,0.0,0.0,-0.6086,-0.626,-0.6465,-0.6563,-0.6453,-0.6315,-0.6564,-0.654,-0.6551,-0.6573,-0.6899,-0.7203,-0.7236,-0.6819,-0.6522,-0.6514,-0.612,-0.5802,-0.5782,-0.5616,-0.5536,-0.577,-0.5536,-0.5025,-0.4358,-0.4237,-0.4093,-0.3807,-0.3804,-0.368,-0.3312,-0.3005,-0.2765,-0.2368,-0.2073,-0.1963,-0.1941,-0.1966,-0.1977,-0.1977,-0.1235,-0.0617,0.0,0.0,0.0,0.0,0.0,0.0,0.0,0.0,0.0,0.0,0.0,0.0,0.0,0.0,-0.0136,-0.041,-0.0136,0.0,0.0,0.0,-0.0287,-0.0708,-0.2001,-0.2294,-0.2297,-0.2292,-0.2313,-0.2335,-0.2333,-0.2333,-0.2334,-0.2341,-0.2346,-0.2357,-0.2375,-0.2358,-0.2339,-0.2334,-0.2333,-0.2333,-0.2333,-0.2333,-0.2333,-0.2333,-0.2343,-0.2371,-0.242,-0.2429,-0.2762,-0.3135,-0.3603,-0.4073,-0.4397,-0.4709,-0.5022,-0.5022,-0.4976,-0.4976,-0.5022,-0.5008,-0.5162,-0.563,-0.5802,-0.5962,0.0,0.0,0.0,-0.6121,0.0,0.0,0.0,-0.6312,-0.6401,-0.6737,-0.6352,-0.6128,-0.6468,-0.6399,-0.6301,-0.6426,-0.6692,-0.691,-0.697,-0.6786,-0.6638,-0.6574,-0.616,-0.5831,-0.5712,-0.5674,-0.5726,-0.5847,-0.52,-0.4681,-0.4525,-0.4169,-0.3917,-0.3771,-0.3651,-0.3401,-0.3258,-0.2858,-0.2512,-0.2358,-0.2052,-0.1954,-0.1954,-0.1954,-0.1962,-0.1977,-0.1235,-0.0617,0.0,0.0,0.0,0.0,0.0,0.0,0.0,0.0,0.0,0.0,0.0,0.0,0.0,0.0,0.0,0.0,0.0,0.0,0.0,0.0,0.0,-0.0142,-0.0992,-0.1424,-0.1712,-0.1689,-0.1701,-0.1721,-0.1731,-0.2023,-0.2316,-0.2331,-0.2334,-0.2339,-0.2353,-0.2343,-0.2333,-0.2333,-0.2333,-0.2333,-0.2333,-0.2333,-0.2333,-0.2333,-0.2346,-0.2373,-0.242,-0.2438,-0.2619,-0.3135,-0.3611,-0.3925,-0.4397,-0.4709,-0.5008,-0.4978,-0.4951,-0.4951,-0.4978,-0.5006,-0.5179,-0.5335,-0.5615,-0.5773,0.0,0.0,0.0,0.0,0.0,-0.6395,0.0,0.0,0.0,-0.6834,-0.6382,-0.5985,-0.6409,-0.6199,-0.6013,-0.6208,-0.6415,-0.6535,-0.6491,-0.664,-0.6754,-0.6427,-0.6258,-0.5942,-0.5594,-0.5643,-0.57,-0.5634,-0.4815,-0.4422,-0.4568,-0.4103,-0.3864,-0.3733,-0.35,-0.325,-0.3102,-0.2719,-0.2385,-0.224,-0.2042,-0.1949,-0.1967,-0.1948,-0.1954,-0.1977,-0.1482,-0.0741,0.0,0.0,0.0,0.0,0.0,0.0,0.0,0.0,0.0,0.0,0.0,0.0,0.0,0.0,0.0,0.0,0.0,0.0,0.0,0.0,0.0,0.0,0.0,-0.0425,-0.0996,-0.0833,-0.0977,-0.0988,-0.0996,-0.1429,-0.1867,-0.2032,-0.2186,-0.2189,-0.2333,-0.2333,-0.2333,-0.2333,-0.2333,-0.2333,-0.2333,-0.2333,-0.2333,-0.2333,-0.2354,-0.2382,-0.2413,-0.2443,-0.2627,-0.3127,-0.3599,-0.3916,-0.4397,-0.4709,-0.5,-0.4954,-0.4943,-0.4943,-0.4954,-0.4976,-0.4997,-0.5019,-0.5283,-0.5441,0.0,0.0,0.0,0.0,-0.685,0.0,0.0,0.0,-0.6414,-0.6059,0.0,-0.5547,-0.5526,0.0,0.0,-0.5485,-0.5953,-0.623,-0.6013,-0.6126,-0.6092,-0.5874,-0.5805,-0.5743,-0.541,-0.5345,-0.5294,-0.5295,-0.4979,-0.4578,-0.4258,-0.415,-0.4008,-0.361,-0.3608,-0.3292,-0.276,-0.2809,-0.2478,-0.2005,-0.1944,-0.1959,-0.1937,-0.196,-0.1974,-0.1977,-0.1977,-0.1111,0.0,0.0,0.0,0.0,0.0,0.0,0.0,0.0,0.0,0.0,0.0,0.0,0.0,0.0,0.0,0.0,0.0,0.0,0.0,0.0,0.0,0.0,0.0,-0.0,-0.0143,-0.014,-0.0141,-0.0142,-0.0141,-0.0142,-0.043,-0.1147,-0.1447,-0.175,-0.2187,-0.2333,-0.2333,-0.2333,-0.2333,-0.2333,-0.2333,-0.2333,-0.2333,-0.2333,-0.2335,-0.235,-0.238,-0.2412,-0.2594,-0.3091,-0.3554,-0.3882,-0.4395,-0.4709,-0.5019,-0.5011,-0.4962,-0.4962,-0.5011,-0.4913,-0.4918,-0.5022,-0.5014,-0.5014,0.0,0.0,0.0,0.0,0.0,0.0,-0.619,0.0,-0.6261,0.0,0.0,0.0,0.0,0.0,0.0,0.0,-0.5687,-0.579,-0.5616,-0.5695,-0.5764,-0.5683,-0.5477,-0.5279,-0.5128,-0.5059,-0.5014,-0.4942,-0.4561,-0.4307,-0.4015,-0.3945,-0.3729,-0.3589,-0.3395,-0.3196,-0.2647,-0.2571,-0.2356,-0.1885,-0.1894,-0.19,-0.1904,-0.1899,-0.1677,-0.1462,-0.1462,-0.0857,0.0,0.0,0.0,0.0,0.0,0.0,0.0,0.0,0.0,0.0,0.0,0.0,0.0,0.0,0.0,0.0,0.0,0.0,0.0,0.0,0.0,0.0,0.0,0.0,0.0,0.0,0.0,0.0,0.0,0.0,-0.0425,-0.1572,-0.188,-0.2042,-0.2333,-0.2333,-0.2333,-0.2333,-0.2333,-0.2333,-0.2333,-0.2333,-0.2339,-0.2357,-0.2358,-0.2372,-0.2402,-0.2432,-0.2601,-0.3053,-0.3661,-0.4142,-0.435,-0.4783,-0.4935,-0.497,-0.4948,-0.4948,-0.4973,-0.4957,-0.4973,-0.5019,-0.4986,-0.5008,-0.7473,0.0,0.0,0.0,0.0,0.0,0.0,0.0,0.0,0.0,0.0,0.0,0.0,0.0,0.0,0.0,0.0,-0.5534,-0.5344,-0.5309,-0.5333,-0.5325,-0.502,-0.4856,-0.4908,-0.4785,-0.4622,-0.4607,-0.4236,-0.392,-0.3814,-0.365,-0.357,-0.3586,-0.329,-0.2974,-0.2647,-0.2446,-0.2229,-0.1885,-0.1864,-0.1865,-0.1885,-0.1872,-0.1653,-0.1207,-0.0848,-0.0489,0.0,0.0,0.0,0.0,0.0,0.0,0.0,0.0,0.0,0.0,0.0,0.0,0.0,0.0,0.0,0.0,0.0,0.0,0.0,0.0,0.0,0.0,0.0,0.0,0.0,0.0,0.0,0.0,0.0,-0.0277,-0.0985,-0.2132,-0.2309,-0.2335,-0.2333,-0.2333,-0.2333,-0.2333,-0.2333,-0.2335,-0.2345,-0.2345,-0.2353,-0.2376,-0.2378,-0.2387,-0.2409,-0.2431,-0.2587,-0.3016,-0.3778,-0.4098,-0.4123,-0.4418,-0.4586,-0.4781,-0.4797,-0.4807,-0.4959,-0.5,-0.5022,-0.5019,-0.4978,-0.5006,0.0,0.0,0.0,-0.6605,0.0,0.0,0.0,0.0,-0.621,0.0,0.0,0.0,0.0,0.0,0.0,0.0,0.0,0.0,0.0,-0.5036,-0.4844,-0.4713,-0.4632,-0.4643,-0.4822,-0.452,-0.4219,-0.4126,-0.3784,-0.3613,-0.3477,-0.3499,-0.3526,-0.3586,-0.3253,-0.2941,-0.2647,-0.2417,-0.2205,-0.1885,-0.1884,-0.1884,-0.1887,-0.1915,-0.1929,-0.1812,-0.0613,-0.0,0.0,0.0,0.0,0.0,0.0,0.0,0.0,0.0,0.0,0.0,0.0,0.0,0.0,0.0,0.0,0.0,0.0,0.0,0.0,0.0,0.0,0.0,0.0,0.0,0.0,0.0,0.0,0.0,0.0,-0.1239,-0.2245,-0.2247,-0.2293,-0.2333,-0.2333,-0.2333,-0.2333,-0.2333,-0.2333,-0.2343,-0.2373,-0.2376,-0.2378,-0.2378,-0.2378,-0.2379,-0.2379,-0.238,-0.2529,-0.2975,-0.3458,-0.3765,-0.3576,-0.3653,-0.4006,-0.4473,-0.4369,-0.4552,-0.5019,-0.5019,-0.5022,-0.5022,-0.5019,-0.5019,0.0,0.0,-0.8318,-0.7183,0.0,0.0,0.0,0.0,0.0,0.0,0.0,0.0,0.0,0.0,0.0,0.0,0.0,0.0,0.0,-0.4667,-0.4422,-0.437,-0.4285,-0.4218,-0.4214,-0.409,-0.3934,-0.3741,-0.3613,-0.3418,-0.3368,-0.3455,-0.3507,-0.3526,-0.3267,-0.2972,-0.2647,-0.2417,-0.2192,-0.1855,-0.1835,-0.1825,-0.1827,-0.1857,-0.1881,-0.1784,-0.1329,-0.0734,0.0,0.0,0.0,0.0,0.0,0.0,0.0,0.0,0.0,0.0,0.0,0.0,0.0,0.0,0.0,0.0,0.0,0.0,0.0,0.0,0.0,0.0,0.0,0.0,0.0,0.0,0.0,-0.0275,-0.1366,-0.1953,-0.2275,-0.2275,-0.2307,-0.2333,-0.2333,-0.2333,-0.2333,-0.2333,-0.2333,-0.2343,-0.2375,-0.2361,-0.2364,-0.2403,-0.2408,-0.2401,-0.238,-0.236,-0.2357,-0.2526,-0.2985,-0.3283,-0.3272,-0.3805,-0.4165,-0.4473,-0.468,-0.4865,-0.5022,-0.5022,-0.5022,-0.5022,-0.5022,-0.5041,-0.8099,-0.8307,0.0,-0.753,-0.7436,0.0,-0.6371,0.0,-0.648,0.0,0.0,0.0,0.0,0.0,0.0,0.0,0.0,0.0,0.0,-0.4483,-0.423,-0.4293,-0.413,-0.4047,-0.4034,-0.3886,-0.3747,-0.3725,-0.35,-0.3314,-0.3275,-0.3401,-0.3477,-0.339,-0.3145,-0.2849,-0.2623,-0.2281,-0.2052,-0.1824,-0.1805,-0.1801,-0.1812,-0.1842,-0.1522,-0.1071,-0.0604,-0.0122,0.037,0.037,0.037,0.037,0.037,0.037,0.037,0.0123,0.0,0.0,0.0,0.0,0.0,0.0,0.0,0.0,0.0,0.0,0.0,0.0,0.0,0.0,0.0,0.0,0.0,0.0,0.0,-0.0415,-0.1927,-0.2248,-0.229,-0.229,-0.2313,-0.2333,-0.2333,-0.2333,-0.2333,-0.2333,-0.2333,-0.2348,-0.2388,-0.2378,-0.2384,-0.2435,-0.2429,-0.2406,-0.2365,-0.2364,-0.2368,-0.2378,-0.2676,-0.2825,-0.2825,-0.3487,-0.3984,-0.4137,-0.4515,-0.4865,-0.5022,-0.5022,-0.5022,-0.5022,-0.5022,-0.5055]}]]